<?xml version="1.0" encoding="UTF-8" ?>
<gpx version="1.1" xmlns:xsi="http://www.w3.org/2001/XMLSchema-instance" 
    xmlns="http://www.topografix.com/GPX/1/1" 
    xsi:schemaLocation="http://www.topografix.com/GPX/1/1 http://www.topografix.com/GPX/1/1/gpx.xsd" 
    creator="Openrunner - https://www.openrunner.com" >	<trk>
						<name>N° 3 rapido route 83 km 2024-19085990</name>
						<trkseg>
					<trkpt lat="45.866770" lon="4.598150">
						<ele>356</ele>
						<time>2024-10-10T18:35:54Z</time>
					</trkpt>
					<trkpt lat="45.867100" lon="4.600320">
						<ele>369</ele>
						<time>2024-10-10T18:36:22Z</time>
					</trkpt>
					<trkpt lat="45.867430" lon="4.601350">
						<ele>370</ele>
						<time>2024-10-10T18:36:36Z</time>
					</trkpt>
					<trkpt lat="45.867560" lon="4.602120">
						<ele>368</ele>
						<time>2024-10-10T18:36:45Z</time>
					</trkpt>
					<trkpt lat="45.867680" lon="4.602600">
						<ele>366</ele>
						<time>2024-10-10T18:36:52Z</time>
					</trkpt>
					<trkpt lat="45.867760" lon="4.603040">
						<ele>367</ele>
						<time>2024-10-10T18:36:57Z</time>
					</trkpt>
					<trkpt lat="45.867770" lon="4.603250">
						<ele>367</ele>
						<time>2024-10-10T18:37:00Z</time>
					</trkpt>
					<trkpt lat="45.867760" lon="4.603440">
						<ele>367</ele>
						<time>2024-10-10T18:37:02Z</time>
					</trkpt>
					<trkpt lat="45.867540" lon="4.603510">
						<ele>368</ele>
						<time>2024-10-10T18:37:06Z</time>
					</trkpt>
					<trkpt lat="45.867760" lon="4.603440">
						<ele>367</ele>
						<time>2024-10-10T18:37:10Z</time>
					</trkpt>
					<trkpt lat="45.867750" lon="4.603670">
						<ele>367</ele>
						<time>2024-10-10T18:37:13Z</time>
					</trkpt>
					<trkpt lat="45.867630" lon="4.604370">
						<ele>368</ele>
						<time>2024-10-10T18:37:22Z</time>
					</trkpt>
					<trkpt lat="45.867540" lon="4.605200">
						<ele>366</ele>
						<time>2024-10-10T18:37:33Z</time>
					</trkpt>
					<trkpt lat="45.867430" lon="4.607270">
						<ele>361</ele>
						<time>2024-10-10T18:37:58Z</time>
					</trkpt>
					<trkpt lat="45.867340" lon="4.608020">
						<ele>360</ele>
						<time>2024-10-10T18:38:08Z</time>
					</trkpt>
					<trkpt lat="45.867190" lon="4.609640">
						<ele>360</ele>
						<time>2024-10-10T18:38:28Z</time>
					</trkpt>
					<trkpt lat="45.867040" lon="4.610570">
						<ele>358</ele>
						<time>2024-10-10T18:38:40Z</time>
					</trkpt>
					<trkpt lat="45.867020" lon="4.611300">
						<ele>353</ele>
						<time>2024-10-10T18:38:49Z</time>
					</trkpt>
					<trkpt lat="45.866830" lon="4.611970">
						<ele>348</ele>
						<time>2024-10-10T18:38:58Z</time>
					</trkpt>
					<trkpt lat="45.866610" lon="4.614220">
						<ele>338</ele>
						<time>2024-10-10T18:39:26Z</time>
					</trkpt>
					<trkpt lat="45.866590" lon="4.614880">
						<ele>333</ele>
						<time>2024-10-10T18:39:34Z</time>
					</trkpt>
					<trkpt lat="45.866460" lon="4.616060">
						<ele>328</ele>
						<time>2024-10-10T18:39:49Z</time>
					</trkpt>
					<trkpt lat="45.866460" lon="4.616320">
						<ele>327</ele>
						<time>2024-10-10T18:39:52Z</time>
					</trkpt>
					<trkpt lat="45.866540" lon="4.616880">
						<ele>324</ele>
						<time>2024-10-10T18:39:59Z</time>
					</trkpt>
					<trkpt lat="45.866610" lon="4.617750">
						<ele>318</ele>
						<time>2024-10-10T18:40:10Z</time>
					</trkpt>
					<trkpt lat="45.866920" lon="4.619020">
						<ele>316</ele>
						<time>2024-10-10T18:40:27Z</time>
					</trkpt>
					<trkpt lat="45.866950" lon="4.619300">
						<ele>316</ele>
						<time>2024-10-10T18:40:30Z</time>
					</trkpt>
					<trkpt lat="45.866920" lon="4.619830">
						<ele>316</ele>
						<time>2024-10-10T18:40:37Z</time>
					</trkpt>
					<trkpt lat="45.866980" lon="4.620640">
						<ele>317</ele>
						<time>2024-10-10T18:40:47Z</time>
					</trkpt>
					<trkpt lat="45.867110" lon="4.621400">
						<ele>316</ele>
						<time>2024-10-10T18:40:57Z</time>
					</trkpt>
					<trkpt lat="45.867220" lon="4.622370">
						<ele>312</ele>
						<time>2024-10-10T18:41:09Z</time>
					</trkpt>
					<trkpt lat="45.867250" lon="4.623060">
						<ele>311</ele>
						<time>2024-10-10T18:41:17Z</time>
					</trkpt>
					<trkpt lat="45.867270" lon="4.624410">
						<ele>308</ele>
						<time>2024-10-10T18:41:34Z</time>
					</trkpt>
					<trkpt lat="45.867340" lon="4.625500">
						<ele>308</ele>
						<time>2024-10-10T18:41:48Z</time>
					</trkpt>
					<trkpt lat="45.867240" lon="4.627400">
						<ele>306</ele>
						<time>2024-10-10T18:42:11Z</time>
					</trkpt>
					<trkpt lat="45.867150" lon="4.628660">
						<ele>302</ele>
						<time>2024-10-10T18:42:27Z</time>
					</trkpt>
					<trkpt lat="45.866970" lon="4.630190">
						<ele>295</ele>
						<time>2024-10-10T18:42:46Z</time>
					</trkpt>
					<trkpt lat="45.866880" lon="4.630760">
						<ele>293</ele>
						<time>2024-10-10T18:42:53Z</time>
					</trkpt>
					<trkpt lat="45.866700" lon="4.631420">
						<ele>291</ele>
						<time>2024-10-10T18:43:02Z</time>
					</trkpt>
					<trkpt lat="45.866550" lon="4.632160">
						<ele>290</ele>
						<time>2024-10-10T18:43:12Z</time>
					</trkpt>
					<trkpt lat="45.866400" lon="4.633090">
						<ele>288</ele>
						<time>2024-10-10T18:43:24Z</time>
					</trkpt>
					<trkpt lat="45.866110" lon="4.634310">
						<ele>287</ele>
						<time>2024-10-10T18:43:40Z</time>
					</trkpt>
					<trkpt lat="45.865940" lon="4.634830">
						<ele>286</ele>
						<time>2024-10-10T18:43:47Z</time>
					</trkpt>
					<trkpt lat="45.866140" lon="4.635100">
						<ele>285</ele>
						<time>2024-10-10T18:43:52Z</time>
					</trkpt>
					<trkpt lat="45.867230" lon="4.637010">
						<ele>272</ele>
						<time>2024-10-10T18:44:22Z</time>
					</trkpt>
					<trkpt lat="45.867290" lon="4.637250">
						<ele>270</ele>
						<time>2024-10-10T18:44:25Z</time>
					</trkpt>
					<trkpt lat="45.867330" lon="4.637740">
						<ele>268</ele>
						<time>2024-10-10T18:44:31Z</time>
					</trkpt>
					<trkpt lat="45.867430" lon="4.638230">
						<ele>267</ele>
						<time>2024-10-10T18:44:38Z</time>
					</trkpt>
					<trkpt lat="45.867580" lon="4.638740">
						<ele>267</ele>
						<time>2024-10-10T18:44:45Z</time>
					</trkpt>
					<trkpt lat="45.867830" lon="4.639300">
						<ele>265</ele>
						<time>2024-10-10T18:44:53Z</time>
					</trkpt>
					<trkpt lat="45.868340" lon="4.640130">
						<ele>262</ele>
						<time>2024-10-10T18:45:07Z</time>
					</trkpt>
					<trkpt lat="45.869230" lon="4.640740">
						<ele>253</ele>
						<time>2024-10-10T18:45:24Z</time>
					</trkpt>
					<trkpt lat="45.869630" lon="4.641630">
						<ele>244</ele>
						<time>2024-10-10T18:45:37Z</time>
					</trkpt>
					<trkpt lat="45.869900" lon="4.642430">
						<ele>236</ele>
						<time>2024-10-10T18:45:48Z</time>
					</trkpt>
					<trkpt lat="45.869970" lon="4.642360">
						<ele>235</ele>
						<time>2024-10-10T18:45:50Z</time>
					</trkpt>
					<trkpt lat="45.870000" lon="4.642350">
						<ele>235</ele>
						<time>2024-10-10T18:45:50Z</time>
					</trkpt>
					<trkpt lat="45.870580" lon="4.642430">
						<ele>228</ele>
						<time>2024-10-10T18:46:01Z</time>
					</trkpt>
					<trkpt lat="45.871480" lon="4.642950">
						<ele>218</ele>
						<time>2024-10-10T18:46:18Z</time>
					</trkpt>
					<trkpt lat="45.871760" lon="4.643090">
						<ele>215</ele>
						<time>2024-10-10T18:46:23Z</time>
					</trkpt>
					<trkpt lat="45.872140" lon="4.643070">
						<ele>212</ele>
						<time>2024-10-10T18:46:30Z</time>
					</trkpt>
					<trkpt lat="45.873500" lon="4.643400">
						<ele>211</ele>
						<time>2024-10-10T18:46:55Z</time>
					</trkpt>
					<trkpt lat="45.873720" lon="4.643420">
						<ele>211</ele>
						<time>2024-10-10T18:46:58Z</time>
					</trkpt>
					<trkpt lat="45.874210" lon="4.643390">
						<ele>212</ele>
						<time>2024-10-10T18:47:07Z</time>
					</trkpt>
					<trkpt lat="45.874450" lon="4.643400">
						<ele>212</ele>
						<time>2024-10-10T18:47:11Z</time>
					</trkpt>
					<trkpt lat="45.874900" lon="4.643510">
						<ele>212</ele>
						<time>2024-10-10T18:47:20Z</time>
					</trkpt>
					<trkpt lat="45.875480" lon="4.643740">
						<ele>212</ele>
						<time>2024-10-10T18:47:30Z</time>
					</trkpt>
					<trkpt lat="45.875740" lon="4.643870">
						<ele>212</ele>
						<time>2024-10-10T18:47:35Z</time>
					</trkpt>
					<trkpt lat="45.875800" lon="4.643930">
						<ele>212</ele>
						<time>2024-10-10T18:47:36Z</time>
					</trkpt>
					<trkpt lat="45.875900" lon="4.644090">
						<ele>213</ele>
						<time>2024-10-10T18:47:39Z</time>
					</trkpt>
					<trkpt lat="45.875980" lon="4.644170">
						<ele>213</ele>
						<time>2024-10-10T18:47:41Z</time>
					</trkpt>
					<trkpt lat="45.876060" lon="4.644180">
						<ele>213</ele>
						<time>2024-10-10T18:47:42Z</time>
					</trkpt>
					<trkpt lat="45.875980" lon="4.644170">
						<ele>213</ele>
						<time>2024-10-10T18:47:44Z</time>
					</trkpt>
					<trkpt lat="45.876060" lon="4.644180">
						<ele>213</ele>
						<time>2024-10-10T18:47:45Z</time>
					</trkpt>
					<trkpt lat="45.876630" lon="4.644140">
						<ele>213</ele>
						<time>2024-10-10T18:47:55Z</time>
					</trkpt>
					<trkpt lat="45.877250" lon="4.644350">
						<ele>215</ele>
						<time>2024-10-10T18:48:07Z</time>
					</trkpt>
					<trkpt lat="45.876830" lon="4.644920">
						<ele>214</ele>
						<time>2024-10-10T18:48:17Z</time>
					</trkpt>
					<trkpt lat="45.877190" lon="4.645470">
						<ele>216</ele>
						<time>2024-10-10T18:48:26Z</time>
					</trkpt>
					<trkpt lat="45.877220" lon="4.646090">
						<ele>217</ele>
						<time>2024-10-10T18:48:34Z</time>
					</trkpt>
					<trkpt lat="45.877310" lon="4.646420">
						<ele>218</ele>
						<time>2024-10-10T18:48:38Z</time>
					</trkpt>
					<trkpt lat="45.877260" lon="4.646730">
						<ele>217</ele>
						<time>2024-10-10T18:48:42Z</time>
					</trkpt>
					<trkpt lat="45.877240" lon="4.647140">
						<ele>215</ele>
						<time>2024-10-10T18:48:47Z</time>
					</trkpt>
					<trkpt lat="45.877390" lon="4.647810">
						<ele>213</ele>
						<time>2024-10-10T18:48:56Z</time>
					</trkpt>
					<trkpt lat="45.877520" lon="4.648110">
						<ele>214</ele>
						<time>2024-10-10T18:49:00Z</time>
					</trkpt>
					<trkpt lat="45.878080" lon="4.649100">
						<ele>221</ele>
						<time>2024-10-10T18:49:16Z</time>
					</trkpt>
					<trkpt lat="45.878270" lon="4.649470">
						<ele>225</ele>
						<time>2024-10-10T18:49:22Z</time>
					</trkpt>
					<trkpt lat="45.878610" lon="4.649750">
						<ele>230</ele>
						<time>2024-10-10T18:49:29Z</time>
					</trkpt>
					<trkpt lat="45.878920" lon="4.649850">
						<ele>233</ele>
						<time>2024-10-10T18:49:35Z</time>
					</trkpt>
					<trkpt lat="45.879230" lon="4.649840">
						<ele>236</ele>
						<time>2024-10-10T18:49:40Z</time>
					</trkpt>
					<trkpt lat="45.879490" lon="4.649700">
						<ele>237</ele>
						<time>2024-10-10T18:49:45Z</time>
					</trkpt>
					<trkpt lat="45.879920" lon="4.649360">
						<ele>237</ele>
						<time>2024-10-10T18:49:54Z</time>
					</trkpt>
					<trkpt lat="45.880620" lon="4.648750">
						<ele>241</ele>
						<time>2024-10-10T18:50:08Z</time>
					</trkpt>
					<trkpt lat="45.880830" lon="4.648650">
						<ele>243</ele>
						<time>2024-10-10T18:50:12Z</time>
					</trkpt>
					<trkpt lat="45.882160" lon="4.648290">
						<ele>251</ele>
						<time>2024-10-10T18:50:36Z</time>
					</trkpt>
					<trkpt lat="45.882760" lon="4.648060">
						<ele>257</ele>
						<time>2024-10-10T18:50:47Z</time>
					</trkpt>
					<trkpt lat="45.884960" lon="4.647680">
						<ele>270</ele>
						<time>2024-10-10T18:51:27Z</time>
					</trkpt>
					<trkpt lat="45.885240" lon="4.647700">
						<ele>270</ele>
						<time>2024-10-10T18:51:32Z</time>
					</trkpt>
					<trkpt lat="45.885360" lon="4.647800">
						<ele>271</ele>
						<time>2024-10-10T18:51:34Z</time>
					</trkpt>
					<trkpt lat="45.885450" lon="4.647940">
						<ele>272</ele>
						<time>2024-10-10T18:51:37Z</time>
					</trkpt>
					<trkpt lat="45.885480" lon="4.648060">
						<ele>273</ele>
						<time>2024-10-10T18:51:38Z</time>
					</trkpt>
					<trkpt lat="45.885510" lon="4.648300">
						<ele>275</ele>
						<time>2024-10-10T18:51:41Z</time>
					</trkpt>
					<trkpt lat="45.885480" lon="4.648600">
						<ele>276</ele>
						<time>2024-10-10T18:51:45Z</time>
					</trkpt>
					<trkpt lat="45.885220" lon="4.650130">
						<ele>286</ele>
						<time>2024-10-10T18:52:05Z</time>
					</trkpt>
					<trkpt lat="45.885160" lon="4.650410">
						<ele>287</ele>
						<time>2024-10-10T18:52:08Z</time>
					</trkpt>
					<trkpt lat="45.885010" lon="4.650790">
						<ele>290</ele>
						<time>2024-10-10T18:52:14Z</time>
					</trkpt>
					<trkpt lat="45.884890" lon="4.651030">
						<ele>291</ele>
						<time>2024-10-10T18:52:17Z</time>
					</trkpt>
					<trkpt lat="45.884750" lon="4.651230">
						<ele>293</ele>
						<time>2024-10-10T18:52:21Z</time>
					</trkpt>
					<trkpt lat="45.883330" lon="4.652770">
						<ele>302</ele>
						<time>2024-10-10T18:52:52Z</time>
					</trkpt>
					<trkpt lat="45.883100" lon="4.653080">
						<ele>305</ele>
						<time>2024-10-10T18:52:58Z</time>
					</trkpt>
					<trkpt lat="45.882940" lon="4.653450">
						<ele>307</ele>
						<time>2024-10-10T18:53:03Z</time>
					</trkpt>
					<trkpt lat="45.881930" lon="4.656480">
						<ele>322</ele>
						<time>2024-10-10T18:53:45Z</time>
					</trkpt>
					<trkpt lat="45.881760" lon="4.656830">
						<ele>324</ele>
						<time>2024-10-10T18:53:50Z</time>
					</trkpt>
					<trkpt lat="45.881530" lon="4.657230">
						<ele>328</ele>
						<time>2024-10-10T18:53:57Z</time>
					</trkpt>
					<trkpt lat="45.881330" lon="4.657510">
						<ele>333</ele>
						<time>2024-10-10T18:54:02Z</time>
					</trkpt>
					<trkpt lat="45.881090" lon="4.657790">
						<ele>336</ele>
						<time>2024-10-10T18:54:07Z</time>
					</trkpt>
					<trkpt lat="45.880910" lon="4.657960">
						<ele>337</ele>
						<time>2024-10-10T18:54:11Z</time>
					</trkpt>
					<trkpt lat="45.880560" lon="4.658220">
						<ele>339</ele>
						<time>2024-10-10T18:54:18Z</time>
					</trkpt>
					<trkpt lat="45.880190" lon="4.658460">
						<ele>341</ele>
						<time>2024-10-10T18:54:25Z</time>
					</trkpt>
					<trkpt lat="45.879960" lon="4.658640">
						<ele>342</ele>
						<time>2024-10-10T18:54:30Z</time>
					</trkpt>
					<trkpt lat="45.879550" lon="4.659110">
						<ele>341</ele>
						<time>2024-10-10T18:54:39Z</time>
					</trkpt>
					<trkpt lat="45.879390" lon="4.659370">
						<ele>342</ele>
						<time>2024-10-10T18:54:44Z</time>
					</trkpt>
					<trkpt lat="45.879310" lon="4.659560">
						<ele>343</ele>
						<time>2024-10-10T18:54:46Z</time>
					</trkpt>
					<trkpt lat="45.879240" lon="4.660110">
						<ele>343</ele>
						<time>2024-10-10T18:54:53Z</time>
					</trkpt>
					<trkpt lat="45.879230" lon="4.661340">
						<ele>349</ele>
						<time>2024-10-10T18:55:08Z</time>
					</trkpt>
					<trkpt lat="45.879840" lon="4.661380">
						<ele>348</ele>
						<time>2024-10-10T18:55:19Z</time>
					</trkpt>
					<trkpt lat="45.880330" lon="4.661370">
						<ele>348</ele>
						<time>2024-10-10T18:55:28Z</time>
					</trkpt>
					<trkpt lat="45.881780" lon="4.661240">
						<ele>349</ele>
						<time>2024-10-10T18:55:54Z</time>
					</trkpt>
					<trkpt lat="45.882700" lon="4.661330">
						<ele>351</ele>
						<time>2024-10-10T18:56:10Z</time>
					</trkpt>
					<trkpt lat="45.884500" lon="4.661450">
						<ele>362</ele>
						<time>2024-10-10T18:56:42Z</time>
					</trkpt>
					<trkpt lat="45.884730" lon="4.661480">
						<ele>364</ele>
						<time>2024-10-10T18:56:46Z</time>
					</trkpt>
					<trkpt lat="45.884850" lon="4.661550">
						<ele>365</ele>
						<time>2024-10-10T18:56:49Z</time>
					</trkpt>
					<trkpt lat="45.885400" lon="4.662000">
						<ele>369</ele>
						<time>2024-10-10T18:57:00Z</time>
					</trkpt>
					<trkpt lat="45.885830" lon="4.662490">
						<ele>371</ele>
						<time>2024-10-10T18:57:10Z</time>
					</trkpt>
					<trkpt lat="45.886490" lon="4.663630">
						<ele>378</ele>
						<time>2024-10-10T18:57:28Z</time>
					</trkpt>
					<trkpt lat="45.886730" lon="4.663920">
						<ele>379</ele>
						<time>2024-10-10T18:57:34Z</time>
					</trkpt>
					<trkpt lat="45.886980" lon="4.664140">
						<ele>381</ele>
						<time>2024-10-10T18:57:39Z</time>
					</trkpt>
					<trkpt lat="45.887230" lon="4.664390">
						<ele>382</ele>
						<time>2024-10-10T18:57:44Z</time>
					</trkpt>
					<trkpt lat="45.887870" lon="4.665210">
						<ele>389</ele>
						<time>2024-10-10T18:58:00Z</time>
					</trkpt>
					<trkpt lat="45.887970" lon="4.665310">
						<ele>390</ele>
						<time>2024-10-10T18:58:02Z</time>
					</trkpt>
					<trkpt lat="45.888460" lon="4.665610">
						<ele>393</ele>
						<time>2024-10-10T18:58:11Z</time>
					</trkpt>
					<trkpt lat="45.888740" lon="4.665890">
						<ele>397</ele>
						<time>2024-10-10T18:58:17Z</time>
					</trkpt>
					<trkpt lat="45.888900" lon="4.666190">
						<ele>400</ele>
						<time>2024-10-10T18:58:22Z</time>
					</trkpt>
					<trkpt lat="45.889180" lon="4.666570">
						<ele>405</ele>
						<time>2024-10-10T18:58:29Z</time>
					</trkpt>
					<trkpt lat="45.889390" lon="4.666750">
						<ele>406</ele>
						<time>2024-10-10T18:58:33Z</time>
					</trkpt>
					<trkpt lat="45.889750" lon="4.666990">
						<ele>408</ele>
						<time>2024-10-10T18:58:40Z</time>
					</trkpt>
					<trkpt lat="45.890240" lon="4.667190">
						<ele>408</ele>
						<time>2024-10-10T18:58:49Z</time>
					</trkpt>
					<trkpt lat="45.890510" lon="4.667370">
						<ele>409</ele>
						<time>2024-10-10T18:58:55Z</time>
					</trkpt>
					<trkpt lat="45.890660" lon="4.667580">
						<ele>411</ele>
						<time>2024-10-10T18:58:58Z</time>
					</trkpt>
					<trkpt lat="45.890770" lon="4.667690">
						<ele>411</ele>
						<time>2024-10-10T18:59:01Z</time>
					</trkpt>
					<trkpt lat="45.891110" lon="4.667950">
						<ele>411</ele>
						<time>2024-10-10T18:59:08Z</time>
					</trkpt>
					<trkpt lat="45.891470" lon="4.668120">
						<ele>411</ele>
						<time>2024-10-10T18:59:14Z</time>
					</trkpt>
					<trkpt lat="45.891530" lon="4.668190">
						<ele>412</ele>
						<time>2024-10-10T18:59:16Z</time>
					</trkpt>
					<trkpt lat="45.891530" lon="4.668830">
						<ele>414</ele>
						<time>2024-10-10T18:59:24Z</time>
					</trkpt>
					<trkpt lat="45.891980" lon="4.670480">
						<ele>412</ele>
						<time>2024-10-10T18:59:46Z</time>
					</trkpt>
					<trkpt lat="45.892140" lon="4.670910">
						<ele>411</ele>
						<time>2024-10-10T18:59:52Z</time>
					</trkpt>
					<trkpt lat="45.892280" lon="4.671210">
						<ele>412</ele>
						<time>2024-10-10T18:59:56Z</time>
					</trkpt>
					<trkpt lat="45.892520" lon="4.671610">
						<ele>413</ele>
						<time>2024-10-10T19:00:03Z</time>
					</trkpt>
					<trkpt lat="45.892660" lon="4.671750">
						<ele>413</ele>
						<time>2024-10-10T19:00:06Z</time>
					</trkpt>
					<trkpt lat="45.892900" lon="4.671900">
						<ele>413</ele>
						<time>2024-10-10T19:00:10Z</time>
					</trkpt>
					<trkpt lat="45.893400" lon="4.672150">
						<ele>413</ele>
						<time>2024-10-10T19:00:20Z</time>
					</trkpt>
					<trkpt lat="45.893560" lon="4.672310">
						<ele>413</ele>
						<time>2024-10-10T19:00:23Z</time>
					</trkpt>
					<trkpt lat="45.893660" lon="4.672440">
						<ele>412</ele>
						<time>2024-10-10T19:00:26Z</time>
					</trkpt>
					<trkpt lat="45.893950" lon="4.673000">
						<ele>408</ele>
						<time>2024-10-10T19:00:34Z</time>
					</trkpt>
					<trkpt lat="45.894110" lon="4.673190">
						<ele>408</ele>
						<time>2024-10-10T19:00:38Z</time>
					</trkpt>
					<trkpt lat="45.894500" lon="4.673610">
						<ele>408</ele>
						<time>2024-10-10T19:00:47Z</time>
					</trkpt>
					<trkpt lat="45.894800" lon="4.673870">
						<ele>407</ele>
						<time>2024-10-10T19:00:53Z</time>
					</trkpt>
					<trkpt lat="45.895240" lon="4.674170">
						<ele>405</ele>
						<time>2024-10-10T19:01:02Z</time>
					</trkpt>
					<trkpt lat="45.895530" lon="4.674290">
						<ele>405</ele>
						<time>2024-10-10T19:01:07Z</time>
					</trkpt>
					<trkpt lat="45.897130" lon="4.674880">
						<ele>400</ele>
						<time>2024-10-10T19:01:36Z</time>
					</trkpt>
					<trkpt lat="45.897400" lon="4.674930">
						<ele>400</ele>
						<time>2024-10-10T19:01:41Z</time>
					</trkpt>
					<trkpt lat="45.897750" lon="4.674890">
						<ele>399</ele>
						<time>2024-10-10T19:01:47Z</time>
					</trkpt>
					<trkpt lat="45.897880" lon="4.674850">
						<ele>398</ele>
						<time>2024-10-10T19:01:50Z</time>
					</trkpt>
					<trkpt lat="45.897960" lon="4.674800">
						<ele>398</ele>
						<time>2024-10-10T19:01:51Z</time>
					</trkpt>
					<trkpt lat="45.898080" lon="4.674620">
						<ele>398</ele>
						<time>2024-10-10T19:01:54Z</time>
					</trkpt>
					<trkpt lat="45.898140" lon="4.674410">
						<ele>398</ele>
						<time>2024-10-10T19:01:57Z</time>
					</trkpt>
					<trkpt lat="45.898180" lon="4.674120">
						<ele>399</ele>
						<time>2024-10-10T19:02:01Z</time>
					</trkpt>
					<trkpt lat="45.898300" lon="4.673800">
						<ele>401</ele>
						<time>2024-10-10T19:02:05Z</time>
					</trkpt>
					<trkpt lat="45.898390" lon="4.673670">
						<ele>401</ele>
						<time>2024-10-10T19:02:08Z</time>
					</trkpt>
					<trkpt lat="45.898510" lon="4.673540">
						<ele>402</ele>
						<time>2024-10-10T19:02:10Z</time>
					</trkpt>
					<trkpt lat="45.898660" lon="4.673470">
						<ele>402</ele>
						<time>2024-10-10T19:02:13Z</time>
					</trkpt>
					<trkpt lat="45.898890" lon="4.673450">
						<ele>400</ele>
						<time>2024-10-10T19:02:17Z</time>
					</trkpt>
					<trkpt lat="45.899760" lon="4.673670">
						<ele>396</ele>
						<time>2024-10-10T19:02:33Z</time>
					</trkpt>
					<trkpt lat="45.899960" lon="4.673770">
						<ele>394</ele>
						<time>2024-10-10T19:02:37Z</time>
					</trkpt>
					<trkpt lat="45.900370" lon="4.674100">
						<ele>391</ele>
						<time>2024-10-10T19:02:45Z</time>
					</trkpt>
					<trkpt lat="45.900920" lon="4.674710">
						<ele>384</ele>
						<time>2024-10-10T19:02:57Z</time>
					</trkpt>
					<trkpt lat="45.901120" lon="4.674970">
						<ele>381</ele>
						<time>2024-10-10T19:03:02Z</time>
					</trkpt>
					<trkpt lat="45.901440" lon="4.675600">
						<ele>376</ele>
						<time>2024-10-10T19:03:12Z</time>
					</trkpt>
					<trkpt lat="45.901590" lon="4.675810">
						<ele>375</ele>
						<time>2024-10-10T19:03:16Z</time>
					</trkpt>
					<trkpt lat="45.902180" lon="4.676500">
						<ele>374</ele>
						<time>2024-10-10T19:03:29Z</time>
					</trkpt>
					<trkpt lat="45.902410" lon="4.676680">
						<ele>373</ele>
						<time>2024-10-10T19:03:34Z</time>
					</trkpt>
					<trkpt lat="45.903430" lon="4.677090">
						<ele>373</ele>
						<time>2024-10-10T19:03:53Z</time>
					</trkpt>
					<trkpt lat="45.905540" lon="4.677870">
						<ele>365</ele>
						<time>2024-10-10T19:04:31Z</time>
					</trkpt>
					<trkpt lat="45.905870" lon="4.677920">
						<ele>367</ele>
						<time>2024-10-10T19:04:37Z</time>
					</trkpt>
					<trkpt lat="45.906510" lon="4.677930">
						<ele>368</ele>
						<time>2024-10-10T19:04:49Z</time>
					</trkpt>
					<trkpt lat="45.906950" lon="4.678020">
						<ele>368</ele>
						<time>2024-10-10T19:04:57Z</time>
					</trkpt>
					<trkpt lat="45.909700" lon="4.679070">
						<ele>371</ele>
						<time>2024-10-10T19:05:47Z</time>
					</trkpt>
					<trkpt lat="45.910500" lon="4.679450">
						<ele>374</ele>
						<time>2024-10-10T19:06:02Z</time>
					</trkpt>
					<trkpt lat="45.911200" lon="4.679640">
						<ele>377</ele>
						<time>2024-10-10T19:06:15Z</time>
					</trkpt>
					<trkpt lat="45.911590" lon="4.679810">
						<ele>379</ele>
						<time>2024-10-10T19:06:22Z</time>
					</trkpt>
					<trkpt lat="45.911940" lon="4.680030">
						<ele>382</ele>
						<time>2024-10-10T19:06:29Z</time>
					</trkpt>
					<trkpt lat="45.912540" lon="4.680320">
						<ele>385</ele>
						<time>2024-10-10T19:06:40Z</time>
					</trkpt>
					<trkpt lat="45.913630" lon="4.680810">
						<ele>385</ele>
						<time>2024-10-10T19:07:01Z</time>
					</trkpt>
					<trkpt lat="45.913910" lon="4.680860">
						<ele>386</ele>
						<time>2024-10-10T19:07:06Z</time>
					</trkpt>
					<trkpt lat="45.914260" lon="4.680780">
						<ele>385</ele>
						<time>2024-10-10T19:07:12Z</time>
					</trkpt>
					<trkpt lat="45.914470" lon="4.680850">
						<ele>385</ele>
						<time>2024-10-10T19:07:16Z</time>
					</trkpt>
					<trkpt lat="45.915760" lon="4.681570">
						<ele>378</ele>
						<time>2024-10-10T19:07:40Z</time>
					</trkpt>
					<trkpt lat="45.916210" lon="4.681920">
						<ele>375</ele>
						<time>2024-10-10T19:07:49Z</time>
					</trkpt>
					<trkpt lat="45.917060" lon="4.682480">
						<ele>372</ele>
						<time>2024-10-10T19:08:06Z</time>
					</trkpt>
					<trkpt lat="45.918440" lon="4.682830">
						<ele>373</ele>
						<time>2024-10-10T19:08:31Z</time>
					</trkpt>
					<trkpt lat="45.919020" lon="4.682890">
						<ele>377</ele>
						<time>2024-10-10T19:08:41Z</time>
					</trkpt>
					<trkpt lat="45.920670" lon="4.683230">
						<ele>381</ele>
						<time>2024-10-10T19:09:11Z</time>
					</trkpt>
					<trkpt lat="45.921060" lon="4.683350">
						<ele>382</ele>
						<time>2024-10-10T19:09:18Z</time>
					</trkpt>
					<trkpt lat="45.921320" lon="4.683540">
						<ele>382</ele>
						<time>2024-10-10T19:09:23Z</time>
					</trkpt>
					<trkpt lat="45.921750" lon="4.684000">
						<ele>384</ele>
						<time>2024-10-10T19:09:33Z</time>
					</trkpt>
					<trkpt lat="45.921930" lon="4.684170">
						<ele>385</ele>
						<time>2024-10-10T19:09:37Z</time>
					</trkpt>
					<trkpt lat="45.922200" lon="4.684380">
						<ele>385</ele>
						<time>2024-10-10T19:09:42Z</time>
					</trkpt>
					<trkpt lat="45.923200" lon="4.685410">
						<ele>387</ele>
						<time>2024-10-10T19:10:04Z</time>
					</trkpt>
					<trkpt lat="45.923850" lon="4.685810">
						<ele>385</ele>
						<time>2024-10-10T19:10:17Z</time>
					</trkpt>
					<trkpt lat="45.923920" lon="4.685920">
						<ele>385</ele>
						<time>2024-10-10T19:10:18Z</time>
					</trkpt>
					<trkpt lat="45.924030" lon="4.685920">
						<ele>384</ele>
						<time>2024-10-10T19:10:20Z</time>
					</trkpt>
					<trkpt lat="45.924370" lon="4.686130">
						<ele>381</ele>
						<time>2024-10-10T19:10:27Z</time>
					</trkpt>
					<trkpt lat="45.925040" lon="4.686370">
						<ele>376</ele>
						<time>2024-10-10T19:10:39Z</time>
					</trkpt>
					<trkpt lat="45.925570" lon="4.686490">
						<ele>374</ele>
						<time>2024-10-10T19:10:49Z</time>
					</trkpt>
					<trkpt lat="45.925780" lon="4.686350">
						<ele>373</ele>
						<time>2024-10-10T19:10:53Z</time>
					</trkpt>
					<trkpt lat="45.926060" lon="4.686230">
						<ele>370</ele>
						<time>2024-10-10T19:10:58Z</time>
					</trkpt>
					<trkpt lat="45.926060" lon="4.686230">
						<ele>370</ele>
						<time>2024-10-10T19:10:58Z</time>
					</trkpt>
					<trkpt lat="45.927470" lon="4.685630">
						<ele>367</ele>
						<time>2024-10-10T19:11:24Z</time>
					</trkpt>
					<trkpt lat="45.930630" lon="4.686230">
						<ele>353</ele>
						<time>2024-10-10T19:12:21Z</time>
					</trkpt>
					<trkpt lat="45.931950" lon="4.686540">
						<ele>345</ele>
						<time>2024-10-10T19:12:45Z</time>
					</trkpt>
					<trkpt lat="45.932320" lon="4.686650">
						<ele>344</ele>
						<time>2024-10-10T19:12:52Z</time>
					</trkpt>
					<trkpt lat="45.934880" lon="4.687240">
						<ele>342</ele>
						<time>2024-10-10T19:13:38Z</time>
					</trkpt>
					<trkpt lat="45.935210" lon="4.687310">
						<ele>342</ele>
						<time>2024-10-10T19:13:44Z</time>
					</trkpt>
					<trkpt lat="45.937770" lon="4.688010">
						<ele>342</ele>
						<time>2024-10-10T19:14:30Z</time>
					</trkpt>
					<trkpt lat="45.939030" lon="4.688780">
						<ele>342</ele>
						<time>2024-10-10T19:14:54Z</time>
					</trkpt>
					<trkpt lat="45.939800" lon="4.689040">
						<ele>342</ele>
						<time>2024-10-10T19:15:08Z</time>
					</trkpt>
					<trkpt lat="45.940450" lon="4.689290">
						<ele>341</ele>
						<time>2024-10-10T19:15:20Z</time>
					</trkpt>
					<trkpt lat="45.940710" lon="4.689490">
						<ele>341</ele>
						<time>2024-10-10T19:15:26Z</time>
					</trkpt>
					<trkpt lat="45.940910" lon="4.689470">
						<ele>341</ele>
						<time>2024-10-10T19:15:29Z</time>
					</trkpt>
					<trkpt lat="45.942010" lon="4.689830">
						<ele>339</ele>
						<time>2024-10-10T19:15:49Z</time>
					</trkpt>
					<trkpt lat="45.942640" lon="4.689960">
						<ele>338</ele>
						<time>2024-10-10T19:16:01Z</time>
					</trkpt>
					<trkpt lat="45.943430" lon="4.690070">
						<ele>337</ele>
						<time>2024-10-10T19:16:15Z</time>
					</trkpt>
					<trkpt lat="45.944210" lon="4.690060">
						<ele>339</ele>
						<time>2024-10-10T19:16:29Z</time>
					</trkpt>
					<trkpt lat="45.944800" lon="4.687450">
						<ele>324</ele>
						<time>2024-10-10T19:17:03Z</time>
					</trkpt>
					<trkpt lat="45.944780" lon="4.687310">
						<ele>323</ele>
						<time>2024-10-10T19:17:04Z</time>
					</trkpt>
					<trkpt lat="45.944730" lon="4.687200">
						<ele>322</ele>
						<time>2024-10-10T19:17:06Z</time>
					</trkpt>
					<trkpt lat="45.944440" lon="4.687020">
						<ele>320</ele>
						<time>2024-10-10T19:17:12Z</time>
					</trkpt>
					<trkpt lat="45.944390" lon="4.686920">
						<ele>319</ele>
						<time>2024-10-10T19:17:13Z</time>
					</trkpt>
					<trkpt lat="45.944000" lon="4.685740">
						<ele>309</ele>
						<time>2024-10-10T19:17:29Z</time>
					</trkpt>
					<trkpt lat="45.943760" lon="4.685220">
						<ele>305</ele>
						<time>2024-10-10T19:17:37Z</time>
					</trkpt>
					<trkpt lat="45.943710" lon="4.685020">
						<ele>303</ele>
						<time>2024-10-10T19:17:40Z</time>
					</trkpt>
					<trkpt lat="45.943650" lon="4.684570">
						<ele>301</ele>
						<time>2024-10-10T19:17:45Z</time>
					</trkpt>
					<trkpt lat="45.943480" lon="4.683930">
						<ele>299</ele>
						<time>2024-10-10T19:17:54Z</time>
					</trkpt>
					<trkpt lat="45.943370" lon="4.683340">
						<ele>296</ele>
						<time>2024-10-10T19:18:01Z</time>
					</trkpt>
					<trkpt lat="45.943280" lon="4.682340">
						<ele>291</ele>
						<time>2024-10-10T19:18:14Z</time>
					</trkpt>
					<trkpt lat="45.943230" lon="4.682110">
						<ele>289</ele>
						<time>2024-10-10T19:18:17Z</time>
					</trkpt>
					<trkpt lat="45.943170" lon="4.681260">
						<ele>282</ele>
						<time>2024-10-10T19:18:27Z</time>
					</trkpt>
					<trkpt lat="45.943220" lon="4.681000">
						<ele>279</ele>
						<time>2024-10-10T19:18:31Z</time>
					</trkpt>
					<trkpt lat="45.943310" lon="4.680710">
						<ele>276</ele>
						<time>2024-10-10T19:18:35Z</time>
					</trkpt>
					<trkpt lat="45.943510" lon="4.680230">
						<ele>274</ele>
						<time>2024-10-10T19:18:42Z</time>
					</trkpt>
					<trkpt lat="45.943620" lon="4.679920">
						<ele>271</ele>
						<time>2024-10-10T19:18:46Z</time>
					</trkpt>
					<trkpt lat="45.943720" lon="4.679330">
						<ele>266</ele>
						<time>2024-10-10T19:18:53Z</time>
					</trkpt>
					<trkpt lat="45.943860" lon="4.679050">
						<ele>265</ele>
						<time>2024-10-10T19:18:58Z</time>
					</trkpt>
					<trkpt lat="45.944110" lon="4.678460">
						<ele>265</ele>
						<time>2024-10-10T19:19:06Z</time>
					</trkpt>
					<trkpt lat="45.944170" lon="4.678350">
						<ele>265</ele>
						<time>2024-10-10T19:19:08Z</time>
					</trkpt>
					<trkpt lat="45.944600" lon="4.677920">
						<ele>266</ele>
						<time>2024-10-10T19:19:17Z</time>
					</trkpt>
					<trkpt lat="45.944740" lon="4.677670">
						<ele>267</ele>
						<time>2024-10-10T19:19:21Z</time>
					</trkpt>
					<trkpt lat="45.944820" lon="4.677320">
						<ele>268</ele>
						<time>2024-10-10T19:19:26Z</time>
					</trkpt>
					<trkpt lat="45.944900" lon="4.677180">
						<ele>269</ele>
						<time>2024-10-10T19:19:28Z</time>
					</trkpt>
					<trkpt lat="45.945160" lon="4.677020">
						<ele>270</ele>
						<time>2024-10-10T19:19:33Z</time>
					</trkpt>
					<trkpt lat="45.945470" lon="4.676950">
						<ele>272</ele>
						<time>2024-10-10T19:19:39Z</time>
					</trkpt>
					<trkpt lat="45.945660" lon="4.676800">
						<ele>275</ele>
						<time>2024-10-10T19:19:42Z</time>
					</trkpt>
					<trkpt lat="45.946260" lon="4.675840">
						<ele>278</ele>
						<time>2024-10-10T19:19:58Z</time>
					</trkpt>
					<trkpt lat="45.946700" lon="4.675360">
						<ele>278</ele>
						<time>2024-10-10T19:20:08Z</time>
					</trkpt>
					<trkpt lat="45.946970" lon="4.675140">
						<ele>280</ele>
						<time>2024-10-10T19:20:14Z</time>
					</trkpt>
					<trkpt lat="45.947080" lon="4.674690">
						<ele>282</ele>
						<time>2024-10-10T19:20:20Z</time>
					</trkpt>
					<trkpt lat="45.947320" lon="4.673210">
						<ele>289</ele>
						<time>2024-10-10T19:20:39Z</time>
					</trkpt>
					<trkpt lat="45.947380" lon="4.673070">
						<ele>289</ele>
						<time>2024-10-10T19:20:41Z</time>
					</trkpt>
					<trkpt lat="45.947740" lon="4.672900">
						<ele>289</ele>
						<time>2024-10-10T19:20:47Z</time>
					</trkpt>
					<trkpt lat="45.947830" lon="4.672750">
						<ele>290</ele>
						<time>2024-10-10T19:20:50Z</time>
					</trkpt>
					<trkpt lat="45.948060" lon="4.671920">
						<ele>292</ele>
						<time>2024-10-10T19:21:01Z</time>
					</trkpt>
					<trkpt lat="45.949700" lon="4.672690">
						<ele>287</ele>
						<time>2024-10-10T19:21:31Z</time>
					</trkpt>
					<trkpt lat="45.950560" lon="4.673140">
						<ele>287</ele>
						<time>2024-10-10T19:21:48Z</time>
					</trkpt>
					<trkpt lat="45.952680" lon="4.674130">
						<ele>286</ele>
						<time>2024-10-10T19:22:27Z</time>
					</trkpt>
					<trkpt lat="45.953290" lon="4.674460">
						<ele>285</ele>
						<time>2024-10-10T19:22:39Z</time>
					</trkpt>
					<trkpt lat="45.953380" lon="4.674410">
						<ele>286</ele>
						<time>2024-10-10T19:22:41Z</time>
					</trkpt>
					<trkpt lat="45.954060" lon="4.674610">
						<ele>287</ele>
						<time>2024-10-10T19:22:53Z</time>
					</trkpt>
					<trkpt lat="45.954780" lon="4.674620">
						<ele>288</ele>
						<time>2024-10-10T19:23:06Z</time>
					</trkpt>
					<trkpt lat="45.955350" lon="4.674750">
						<ele>289</ele>
						<time>2024-10-10T19:23:16Z</time>
					</trkpt>
					<trkpt lat="45.955530" lon="4.674740">
						<ele>290</ele>
						<time>2024-10-10T19:23:19Z</time>
					</trkpt>
					<trkpt lat="45.955880" lon="4.674550">
						<ele>292</ele>
						<time>2024-10-10T19:23:26Z</time>
					</trkpt>
					<trkpt lat="45.956040" lon="4.674430">
						<ele>293</ele>
						<time>2024-10-10T19:23:29Z</time>
					</trkpt>
					<trkpt lat="45.956450" lon="4.674280">
						<ele>293</ele>
						<time>2024-10-10T19:23:37Z</time>
					</trkpt>
					<trkpt lat="45.957010" lon="4.674220">
						<ele>294</ele>
						<time>2024-10-10T19:23:47Z</time>
					</trkpt>
					<trkpt lat="45.957740" lon="4.673960">
						<ele>297</ele>
						<time>2024-10-10T19:24:00Z</time>
					</trkpt>
					<trkpt lat="45.958580" lon="4.673590">
						<ele>300</ele>
						<time>2024-10-10T19:24:16Z</time>
					</trkpt>
					<trkpt lat="45.959010" lon="4.673540">
						<ele>300</ele>
						<time>2024-10-10T19:24:23Z</time>
					</trkpt>
					<trkpt lat="45.959620" lon="4.673560">
						<ele>302</ele>
						<time>2024-10-10T19:24:34Z</time>
					</trkpt>
					<trkpt lat="45.959770" lon="4.673590">
						<ele>303</ele>
						<time>2024-10-10T19:24:37Z</time>
					</trkpt>
					<trkpt lat="45.960250" lon="4.673920">
						<ele>304</ele>
						<time>2024-10-10T19:24:46Z</time>
					</trkpt>
					<trkpt lat="45.960680" lon="4.674280">
						<ele>304</ele>
						<time>2024-10-10T19:24:55Z</time>
					</trkpt>
					<trkpt lat="45.962240" lon="4.675220">
						<ele>306</ele>
						<time>2024-10-10T19:25:25Z</time>
					</trkpt>
					<trkpt lat="45.962440" lon="4.675390">
						<ele>306</ele>
						<time>2024-10-10T19:25:30Z</time>
					</trkpt>
					<trkpt lat="45.963380" lon="4.676400">
						<ele>303</ele>
						<time>2024-10-10T19:25:50Z</time>
					</trkpt>
					<trkpt lat="45.963730" lon="4.676730">
						<ele>303</ele>
						<time>2024-10-10T19:25:58Z</time>
					</trkpt>
					<trkpt lat="45.963970" lon="4.676850">
						<ele>303</ele>
						<time>2024-10-10T19:26:02Z</time>
					</trkpt>
					<trkpt lat="45.964520" lon="4.677030">
						<ele>303</ele>
						<time>2024-10-10T19:26:12Z</time>
					</trkpt>
					<trkpt lat="45.964750" lon="4.677150">
						<ele>303</ele>
						<time>2024-10-10T19:26:17Z</time>
					</trkpt>
					<trkpt lat="45.965740" lon="4.677740">
						<ele>301</ele>
						<time>2024-10-10T19:26:36Z</time>
					</trkpt>
					<trkpt lat="45.966290" lon="4.678000">
						<ele>299</ele>
						<time>2024-10-10T19:26:46Z</time>
					</trkpt>
					<trkpt lat="45.967240" lon="4.678840">
						<ele>295</ele>
						<time>2024-10-10T19:27:06Z</time>
					</trkpt>
					<trkpt lat="45.968030" lon="4.679420">
						<ele>293</ele>
						<time>2024-10-10T19:27:22Z</time>
					</trkpt>
					<trkpt lat="45.968270" lon="4.679540">
						<ele>293</ele>
						<time>2024-10-10T19:27:26Z</time>
					</trkpt>
					<trkpt lat="45.969190" lon="4.679890">
						<ele>293</ele>
						<time>2024-10-10T19:27:43Z</time>
					</trkpt>
					<trkpt lat="45.969690" lon="4.680300">
						<ele>293</ele>
						<time>2024-10-10T19:27:53Z</time>
					</trkpt>
					<trkpt lat="45.969880" lon="4.678660">
						<ele>297</ele>
						<time>2024-10-10T19:28:14Z</time>
					</trkpt>
					<trkpt lat="45.969870" lon="4.678470">
						<ele>297</ele>
						<time>2024-10-10T19:28:16Z</time>
					</trkpt>
					<trkpt lat="45.969800" lon="4.678350">
						<ele>297</ele>
						<time>2024-10-10T19:28:18Z</time>
					</trkpt>
					<trkpt lat="45.969520" lon="4.678120">
						<ele>297</ele>
						<time>2024-10-10T19:28:24Z</time>
					</trkpt>
					<trkpt lat="45.969510" lon="4.678000">
						<ele>297</ele>
						<time>2024-10-10T19:28:26Z</time>
					</trkpt>
					<trkpt lat="45.969780" lon="4.677390">
						<ele>295</ele>
						<time>2024-10-10T19:28:34Z</time>
					</trkpt>
					<trkpt lat="45.969790" lon="4.677200">
						<ele>294</ele>
						<time>2024-10-10T19:28:37Z</time>
					</trkpt>
					<trkpt lat="45.969210" lon="4.676470">
						<ele>292</ele>
						<time>2024-10-10T19:28:51Z</time>
					</trkpt>
					<trkpt lat="45.968930" lon="4.675940">
						<ele>287</ele>
						<time>2024-10-10T19:28:59Z</time>
					</trkpt>
					<trkpt lat="45.968680" lon="4.675610">
						<ele>283</ele>
						<time>2024-10-10T19:29:05Z</time>
					</trkpt>
					<trkpt lat="45.968390" lon="4.675270">
						<ele>278</ele>
						<time>2024-10-10T19:29:11Z</time>
					</trkpt>
					<trkpt lat="45.967700" lon="4.674580">
						<ele>273</ele>
						<time>2024-10-10T19:29:26Z</time>
					</trkpt>
					<trkpt lat="45.967220" lon="4.674050">
						<ele>268</ele>
						<time>2024-10-10T19:29:37Z</time>
					</trkpt>
					<trkpt lat="45.966960" lon="4.673820">
						<ele>267</ele>
						<time>2024-10-10T19:29:43Z</time>
					</trkpt>
					<trkpt lat="45.966550" lon="4.673390">
						<ele>263</ele>
						<time>2024-10-10T19:29:52Z</time>
					</trkpt>
					<trkpt lat="45.966410" lon="4.673310">
						<ele>263</ele>
						<time>2024-10-10T19:29:54Z</time>
					</trkpt>
					<trkpt lat="45.966240" lon="4.673140">
						<ele>261</ele>
						<time>2024-10-10T19:29:58Z</time>
					</trkpt>
					<trkpt lat="45.966240" lon="4.672990">
						<ele>256</ele>
						<time>2024-10-10T19:30:00Z</time>
					</trkpt>
					<trkpt lat="45.966320" lon="4.672830">
						<ele>251</ele>
						<time>2024-10-10T19:30:02Z</time>
					</trkpt>
					<trkpt lat="45.966420" lon="4.672830">
						<ele>249</ele>
						<time>2024-10-10T19:30:04Z</time>
					</trkpt>
					<trkpt lat="45.966640" lon="4.673140">
						<ele>255</ele>
						<time>2024-10-10T19:30:10Z</time>
					</trkpt>
					<trkpt lat="45.966850" lon="4.673260">
						<ele>255</ele>
						<time>2024-10-10T19:30:14Z</time>
					</trkpt>
					<trkpt lat="45.967050" lon="4.673330">
						<ele>253</ele>
						<time>2024-10-10T19:30:17Z</time>
					</trkpt>
					<trkpt lat="45.967980" lon="4.673500">
						<ele>243</ele>
						<time>2024-10-10T19:30:34Z</time>
					</trkpt>
					<trkpt lat="45.968800" lon="4.673530">
						<ele>234</ele>
						<time>2024-10-10T19:30:49Z</time>
					</trkpt>
					<trkpt lat="45.968920" lon="4.673520">
						<ele>233</ele>
						<time>2024-10-10T19:30:51Z</time>
					</trkpt>
					<trkpt lat="45.969040" lon="4.673450">
						<ele>230</ele>
						<time>2024-10-10T19:30:53Z</time>
					</trkpt>
					<trkpt lat="45.969220" lon="4.673280">
						<ele>226</ele>
						<time>2024-10-10T19:30:57Z</time>
					</trkpt>
					<trkpt lat="45.969310" lon="4.673240">
						<ele>225</ele>
						<time>2024-10-10T19:30:58Z</time>
					</trkpt>
					<trkpt lat="45.969460" lon="4.673210">
						<ele>224</ele>
						<time>2024-10-10T19:31:01Z</time>
					</trkpt>
					<trkpt lat="45.969620" lon="4.673230">
						<ele>224</ele>
						<time>2024-10-10T19:31:04Z</time>
					</trkpt>
					<trkpt lat="45.969840" lon="4.673190">
						<ele>222</ele>
						<time>2024-10-10T19:31:08Z</time>
					</trkpt>
					<trkpt lat="45.969920" lon="4.672820">
						<ele>218</ele>
						<time>2024-10-10T19:31:13Z</time>
					</trkpt>
					<trkpt lat="45.969930" lon="4.672600">
						<ele>216</ele>
						<time>2024-10-10T19:31:15Z</time>
					</trkpt>
					<trkpt lat="45.970020" lon="4.672580">
						<ele>216</ele>
						<time>2024-10-10T19:31:17Z</time>
					</trkpt>
					<trkpt lat="45.970060" lon="4.672530">
						<ele>215</ele>
						<time>2024-10-10T19:31:18Z</time>
					</trkpt>
					<trkpt lat="45.970080" lon="4.672430">
						<ele>215</ele>
						<time>2024-10-10T19:31:19Z</time>
					</trkpt>
					<trkpt lat="45.970060" lon="4.672310">
						<ele>216</ele>
						<time>2024-10-10T19:31:21Z</time>
					</trkpt>
					<trkpt lat="45.970030" lon="4.672270">
						<ele>216</ele>
						<time>2024-10-10T19:31:22Z</time>
					</trkpt>
					<trkpt lat="45.969990" lon="4.672240">
						<ele>216</ele>
						<time>2024-10-10T19:31:22Z</time>
					</trkpt>
					<trkpt lat="45.969910" lon="4.672240">
						<ele>216</ele>
						<time>2024-10-10T19:31:24Z</time>
					</trkpt>
					<trkpt lat="45.969810" lon="4.671240">
						<ele>218</ele>
						<time>2024-10-10T19:31:36Z</time>
					</trkpt>
					<trkpt lat="45.969730" lon="4.671030">
						<ele>218</ele>
						<time>2024-10-10T19:31:39Z</time>
					</trkpt>
					<trkpt lat="45.969590" lon="4.670850">
						<ele>219</ele>
						<time>2024-10-10T19:31:43Z</time>
					</trkpt>
					<trkpt lat="45.968950" lon="4.670380">
						<ele>221</ele>
						<time>2024-10-10T19:31:55Z</time>
					</trkpt>
					<trkpt lat="45.968720" lon="4.670160">
						<ele>221</ele>
						<time>2024-10-10T19:32:00Z</time>
					</trkpt>
					<trkpt lat="45.968610" lon="4.669950">
						<ele>221</ele>
						<time>2024-10-10T19:32:04Z</time>
					</trkpt>
					<trkpt lat="45.968550" lon="4.669700">
						<ele>222</ele>
						<time>2024-10-10T19:32:07Z</time>
					</trkpt>
					<trkpt lat="45.968430" lon="4.668520">
						<ele>224</ele>
						<time>2024-10-10T19:32:22Z</time>
					</trkpt>
					<trkpt lat="45.968600" lon="4.667720">
						<ele>226</ele>
						<time>2024-10-10T19:32:32Z</time>
					</trkpt>
					<trkpt lat="45.968810" lon="4.667630">
						<ele>228</ele>
						<time>2024-10-10T19:32:36Z</time>
					</trkpt>
					<trkpt lat="45.968940" lon="4.667570">
						<ele>230</ele>
						<time>2024-10-10T19:32:38Z</time>
					</trkpt>
					<trkpt lat="45.968980" lon="4.667510">
						<ele>230</ele>
						<time>2024-10-10T19:32:39Z</time>
					</trkpt>
					<trkpt lat="45.969590" lon="4.664010">
						<ele>244</ele>
						<time>2024-10-10T19:33:24Z</time>
					</trkpt>
					<trkpt lat="45.969860" lon="4.662270">
						<ele>251</ele>
						<time>2024-10-10T19:33:46Z</time>
					</trkpt>
					<trkpt lat="45.970010" lon="4.661950">
						<ele>253</ele>
						<time>2024-10-10T19:33:51Z</time>
					</trkpt>
					<trkpt lat="45.970740" lon="4.661120">
						<ele>254</ele>
						<time>2024-10-10T19:34:07Z</time>
					</trkpt>
					<trkpt lat="45.971390" lon="4.660260">
						<ele>260</ele>
						<time>2024-10-10T19:34:23Z</time>
					</trkpt>
					<trkpt lat="45.971660" lon="4.659810">
						<ele>262</ele>
						<time>2024-10-10T19:34:30Z</time>
					</trkpt>
					<trkpt lat="45.971690" lon="4.657780">
						<ele>266</ele>
						<time>2024-10-10T19:34:55Z</time>
					</trkpt>
					<trkpt lat="45.971700" lon="4.657660">
						<ele>266</ele>
						<time>2024-10-10T19:34:57Z</time>
					</trkpt>
					<trkpt lat="45.972190" lon="4.656100">
						<ele>268</ele>
						<time>2024-10-10T19:35:18Z</time>
					</trkpt>
					<trkpt lat="45.972300" lon="4.655160">
						<ele>269</ele>
						<time>2024-10-10T19:35:30Z</time>
					</trkpt>
					<trkpt lat="45.972450" lon="4.654650">
						<ele>271</ele>
						<time>2024-10-10T19:35:37Z</time>
					</trkpt>
					<trkpt lat="45.973110" lon="4.653620">
						<ele>276</ele>
						<time>2024-10-10T19:35:54Z</time>
					</trkpt>
					<trkpt lat="45.974560" lon="4.651260">
						<ele>282</ele>
						<time>2024-10-10T19:36:33Z</time>
					</trkpt>
					<trkpt lat="45.974780" lon="4.651130">
						<ele>283</ele>
						<time>2024-10-10T19:36:37Z</time>
					</trkpt>
					<trkpt lat="45.976300" lon="4.650640">
						<ele>283</ele>
						<time>2024-10-10T19:37:05Z</time>
					</trkpt>
					<trkpt lat="45.977040" lon="4.650450">
						<ele>285</ele>
						<time>2024-10-10T19:37:18Z</time>
					</trkpt>
					<trkpt lat="45.977060" lon="4.650520">
						<ele>285</ele>
						<time>2024-10-10T19:37:19Z</time>
					</trkpt>
					<trkpt lat="45.977110" lon="4.650550">
						<ele>285</ele>
						<time>2024-10-10T19:37:20Z</time>
					</trkpt>
					<trkpt lat="45.977140" lon="4.650550">
						<ele>285</ele>
						<time>2024-10-10T19:37:21Z</time>
					</trkpt>
					<trkpt lat="45.977190" lon="4.650500">
						<ele>286</ele>
						<time>2024-10-10T19:37:22Z</time>
					</trkpt>
					<trkpt lat="45.977200" lon="4.650410">
						<ele>286</ele>
						<time>2024-10-10T19:37:23Z</time>
					</trkpt>
					<trkpt lat="45.977480" lon="4.650260">
						<ele>287</ele>
						<time>2024-10-10T19:37:28Z</time>
					</trkpt>
					<trkpt lat="45.978730" lon="4.649820">
						<ele>286</ele>
						<time>2024-10-10T19:37:51Z</time>
					</trkpt>
					<trkpt lat="45.980180" lon="4.649190">
						<ele>280</ele>
						<time>2024-10-10T19:38:18Z</time>
					</trkpt>
					<trkpt lat="45.980840" lon="4.647950">
						<ele>276</ele>
						<time>2024-10-10T19:38:37Z</time>
					</trkpt>
					<trkpt lat="45.980960" lon="4.647560">
						<ele>273</ele>
						<time>2024-10-10T19:38:43Z</time>
					</trkpt>
					<trkpt lat="45.981070" lon="4.647050">
						<ele>269</ele>
						<time>2024-10-10T19:38:49Z</time>
					</trkpt>
					<trkpt lat="45.981120" lon="4.646700">
						<ele>267</ele>
						<time>2024-10-10T19:38:54Z</time>
					</trkpt>
					<trkpt lat="45.981090" lon="4.646440">
						<ele>265</ele>
						<time>2024-10-10T19:38:57Z</time>
					</trkpt>
					<trkpt lat="45.980860" lon="4.645610">
						<ele>264</ele>
						<time>2024-10-10T19:39:08Z</time>
					</trkpt>
					<trkpt lat="45.980830" lon="4.645500">
						<ele>264</ele>
						<time>2024-10-10T19:39:10Z</time>
					</trkpt>
					<trkpt lat="45.980810" lon="4.645440">
						<ele>264</ele>
						<time>2024-10-10T19:39:10Z</time>
					</trkpt>
					<trkpt lat="45.980820" lon="4.645350">
						<ele>264</ele>
						<time>2024-10-10T19:39:11Z</time>
					</trkpt>
					<trkpt lat="45.980870" lon="4.645090">
						<ele>264</ele>
						<time>2024-10-10T19:39:15Z</time>
					</trkpt>
					<trkpt lat="45.980920" lon="4.645030">
						<ele>263</ele>
						<time>2024-10-10T19:39:16Z</time>
					</trkpt>
					<trkpt lat="45.981040" lon="4.644970">
						<ele>262</ele>
						<time>2024-10-10T19:39:18Z</time>
					</trkpt>
					<trkpt lat="45.981160" lon="4.644960">
						<ele>261</ele>
						<time>2024-10-10T19:39:20Z</time>
					</trkpt>
					<trkpt lat="45.981230" lon="4.644990">
						<ele>260</ele>
						<time>2024-10-10T19:39:22Z</time>
					</trkpt>
					<trkpt lat="45.981380" lon="4.645190">
						<ele>258</ele>
						<time>2024-10-10T19:39:25Z</time>
					</trkpt>
					<trkpt lat="45.981490" lon="4.645290">
						<ele>256</ele>
						<time>2024-10-10T19:39:28Z</time>
					</trkpt>
					<trkpt lat="45.981670" lon="4.645270">
						<ele>254</ele>
						<time>2024-10-10T19:39:31Z</time>
					</trkpt>
					<trkpt lat="45.982220" lon="4.644950">
						<ele>255</ele>
						<time>2024-10-10T19:39:41Z</time>
					</trkpt>
					<trkpt lat="45.982360" lon="4.644930">
						<ele>255</ele>
						<time>2024-10-10T19:39:44Z</time>
					</trkpt>
					<trkpt lat="45.982740" lon="4.644970">
						<ele>257</ele>
						<time>2024-10-10T19:39:51Z</time>
					</trkpt>
					<trkpt lat="45.982930" lon="4.644890">
						<ele>259</ele>
						<time>2024-10-10T19:39:54Z</time>
					</trkpt>
					<trkpt lat="45.983520" lon="4.644450">
						<ele>265</ele>
						<time>2024-10-10T19:40:06Z</time>
					</trkpt>
					<trkpt lat="45.984470" lon="4.643950">
						<ele>272</ele>
						<time>2024-10-10T19:40:24Z</time>
					</trkpt>
					<trkpt lat="45.985200" lon="4.643790">
						<ele>276</ele>
						<time>2024-10-10T19:40:37Z</time>
					</trkpt>
					<trkpt lat="45.985790" lon="4.643910">
						<ele>282</ele>
						<time>2024-10-10T19:40:48Z</time>
					</trkpt>
					<trkpt lat="45.986280" lon="4.643880">
						<ele>285</ele>
						<time>2024-10-10T19:40:56Z</time>
					</trkpt>
					<trkpt lat="45.986630" lon="4.643980">
						<ele>286</ele>
						<time>2024-10-10T19:41:03Z</time>
					</trkpt>
					<trkpt lat="45.987030" lon="4.644170">
						<ele>288</ele>
						<time>2024-10-10T19:41:10Z</time>
					</trkpt>
					<trkpt lat="45.987350" lon="4.644430">
						<ele>289</ele>
						<time>2024-10-10T19:41:17Z</time>
					</trkpt>
					<trkpt lat="45.987610" lon="4.644760">
						<ele>289</ele>
						<time>2024-10-10T19:41:23Z</time>
					</trkpt>
					<trkpt lat="45.987610" lon="4.644750">
						<ele>289</ele>
						<time>2024-10-10T19:41:23Z</time>
					</trkpt>
					<trkpt lat="45.987610" lon="4.644760">
						<ele>289</ele>
						<time>2024-10-10T19:41:23Z</time>
					</trkpt>
					<trkpt lat="45.987740" lon="4.644920">
						<ele>289</ele>
						<time>2024-10-10T19:41:26Z</time>
					</trkpt>
					<trkpt lat="45.987950" lon="4.645070">
						<ele>289</ele>
						<time>2024-10-10T19:41:31Z</time>
					</trkpt>
					<trkpt lat="45.988130" lon="4.645120">
						<ele>289</ele>
						<time>2024-10-10T19:41:34Z</time>
					</trkpt>
					<trkpt lat="45.990550" lon="4.645220">
						<ele>287</ele>
						<time>2024-10-10T19:42:17Z</time>
					</trkpt>
					<trkpt lat="45.990580" lon="4.645270">
						<ele>287</ele>
						<time>2024-10-10T19:42:18Z</time>
					</trkpt>
					<trkpt lat="45.990610" lon="4.645270">
						<ele>287</ele>
						<time>2024-10-10T19:42:18Z</time>
					</trkpt>
					<trkpt lat="45.990610" lon="4.645270">
						<ele>287</ele>
						<time>2024-10-10T19:42:18Z</time>
					</trkpt>
					<trkpt lat="45.990640" lon="4.645250">
						<ele>287</ele>
						<time>2024-10-10T19:42:19Z</time>
					</trkpt>
					<trkpt lat="45.990650" lon="4.645200">
						<ele>287</ele>
						<time>2024-10-10T19:42:19Z</time>
					</trkpt>
					<trkpt lat="45.991160" lon="4.645300">
						<ele>288</ele>
						<time>2024-10-10T19:42:29Z</time>
					</trkpt>
					<trkpt lat="45.991980" lon="4.645360">
						<ele>290</ele>
						<time>2024-10-10T19:42:43Z</time>
					</trkpt>
					<trkpt lat="45.992450" lon="4.645510">
						<ele>291</ele>
						<time>2024-10-10T19:42:52Z</time>
					</trkpt>
					<trkpt lat="45.993360" lon="4.645650">
						<ele>292</ele>
						<time>2024-10-10T19:43:08Z</time>
					</trkpt>
					<trkpt lat="45.993380" lon="4.645950">
						<ele>291</ele>
						<time>2024-10-10T19:43:12Z</time>
					</trkpt>
					<trkpt lat="45.993740" lon="4.646200">
						<ele>292</ele>
						<time>2024-10-10T19:43:19Z</time>
					</trkpt>
					<trkpt lat="45.994020" lon="4.646260">
						<ele>293</ele>
						<time>2024-10-10T19:43:24Z</time>
					</trkpt>
					<trkpt lat="45.994370" lon="4.646370">
						<ele>293</ele>
						<time>2024-10-10T19:43:30Z</time>
					</trkpt>
					<trkpt lat="45.995610" lon="4.646890">
						<ele>293</ele>
						<time>2024-10-10T19:43:53Z</time>
					</trkpt>
					<trkpt lat="45.995740" lon="4.646920">
						<ele>293</ele>
						<time>2024-10-10T19:43:56Z</time>
					</trkpt>
					<trkpt lat="45.996180" lon="4.646910">
						<ele>294</ele>
						<time>2024-10-10T19:44:03Z</time>
					</trkpt>
					<trkpt lat="45.997160" lon="4.646720">
						<ele>293</ele>
						<time>2024-10-10T19:44:21Z</time>
					</trkpt>
					<trkpt lat="45.997580" lon="4.646610">
						<ele>292</ele>
						<time>2024-10-10T19:44:29Z</time>
					</trkpt>
					<trkpt lat="45.997840" lon="4.646480">
						<ele>291</ele>
						<time>2024-10-10T19:44:34Z</time>
					</trkpt>
					<trkpt lat="45.997940" lon="4.646380">
						<ele>291</ele>
						<time>2024-10-10T19:44:36Z</time>
					</trkpt>
					<trkpt lat="45.998490" lon="4.645690">
						<ele>291</ele>
						<time>2024-10-10T19:44:49Z</time>
					</trkpt>
					<trkpt lat="45.998530" lon="4.645660">
						<ele>290</ele>
						<time>2024-10-10T19:44:50Z</time>
					</trkpt>
					<trkpt lat="45.998600" lon="4.645670">
						<ele>290</ele>
						<time>2024-10-10T19:44:51Z</time>
					</trkpt>
					<trkpt lat="45.998640" lon="4.645440">
						<ele>291</ele>
						<time>2024-10-10T19:44:54Z</time>
					</trkpt>
					<trkpt lat="45.998670" lon="4.645450">
						<ele>290</ele>
						<time>2024-10-10T19:44:54Z</time>
					</trkpt>
					<trkpt lat="45.999860" lon="4.645190">
						<ele>283</ele>
						<time>2024-10-10T19:45:16Z</time>
					</trkpt>
					<trkpt lat="46.000240" lon="4.645170">
						<ele>282</ele>
						<time>2024-10-10T19:45:22Z</time>
					</trkpt>
					<trkpt lat="46.000850" lon="4.645400">
						<ele>280</ele>
						<time>2024-10-10T19:45:34Z</time>
					</trkpt>
					<trkpt lat="46.001220" lon="4.645640">
						<ele>278</ele>
						<time>2024-10-10T19:45:41Z</time>
					</trkpt>
					<trkpt lat="46.001520" lon="4.645880">
						<ele>278</ele>
						<time>2024-10-10T19:45:47Z</time>
					</trkpt>
					<trkpt lat="46.001740" lon="4.645880">
						<ele>277</ele>
						<time>2024-10-10T19:45:51Z</time>
					</trkpt>
					<trkpt lat="46.001990" lon="4.645810">
						<ele>274</ele>
						<time>2024-10-10T19:45:55Z</time>
					</trkpt>
					<trkpt lat="46.002460" lon="4.645900">
						<ele>269</ele>
						<time>2024-10-10T19:46:04Z</time>
					</trkpt>
					<trkpt lat="46.002700" lon="4.645850">
						<ele>266</ele>
						<time>2024-10-10T19:46:08Z</time>
					</trkpt>
					<trkpt lat="46.002800" lon="4.645780">
						<ele>265</ele>
						<time>2024-10-10T19:46:10Z</time>
					</trkpt>
					<trkpt lat="46.003690" lon="4.644640">
						<ele>261</ele>
						<time>2024-10-10T19:46:31Z</time>
					</trkpt>
					<trkpt lat="46.004580" lon="4.643580">
						<ele>270</ele>
						<time>2024-10-10T19:46:52Z</time>
					</trkpt>
					<trkpt lat="46.004670" lon="4.643530">
						<ele>272</ele>
						<time>2024-10-10T19:46:54Z</time>
					</trkpt>
					<trkpt lat="46.004730" lon="4.643530">
						<ele>273</ele>
						<time>2024-10-10T19:46:55Z</time>
					</trkpt>
					<trkpt lat="46.004840" lon="4.643600">
						<ele>274</ele>
						<time>2024-10-10T19:46:57Z</time>
					</trkpt>
					<trkpt lat="46.004900" lon="4.643720">
						<ele>275</ele>
						<time>2024-10-10T19:46:59Z</time>
					</trkpt>
					<trkpt lat="46.005010" lon="4.644830">
						<ele>275</ele>
						<time>2024-10-10T19:47:12Z</time>
					</trkpt>
					<trkpt lat="46.005010" lon="4.645080">
						<ele>276</ele>
						<time>2024-10-10T19:47:16Z</time>
					</trkpt>
					<trkpt lat="46.004880" lon="4.645480">
						<ele>275</ele>
						<time>2024-10-10T19:47:21Z</time>
					</trkpt>
					<trkpt lat="46.004850" lon="4.645690">
						<ele>276</ele>
						<time>2024-10-10T19:47:24Z</time>
					</trkpt>
					<trkpt lat="46.004810" lon="4.647200">
						<ele>280</ele>
						<time>2024-10-10T19:47:42Z</time>
					</trkpt>
					<trkpt lat="46.004860" lon="4.648090">
						<ele>281</ele>
						<time>2024-10-10T19:47:53Z</time>
					</trkpt>
					<trkpt lat="46.004900" lon="4.648460">
						<ele>282</ele>
						<time>2024-10-10T19:47:58Z</time>
					</trkpt>
					<trkpt lat="46.004980" lon="4.648670">
						<ele>284</ele>
						<time>2024-10-10T19:48:01Z</time>
					</trkpt>
					<trkpt lat="46.005110" lon="4.648840">
						<ele>285</ele>
						<time>2024-10-10T19:48:04Z</time>
					</trkpt>
					<trkpt lat="46.005250" lon="4.648940">
						<ele>286</ele>
						<time>2024-10-10T19:48:07Z</time>
					</trkpt>
					<trkpt lat="46.005260" lon="4.648940">
						<ele>286</ele>
						<time>2024-10-10T19:48:07Z</time>
					</trkpt>
					<trkpt lat="46.005430" lon="4.648990">
						<ele>288</ele>
						<time>2024-10-10T19:48:10Z</time>
					</trkpt>
					<trkpt lat="46.005600" lon="4.649020">
						<ele>289</ele>
						<time>2024-10-10T19:48:13Z</time>
					</trkpt>
					<trkpt lat="46.006520" lon="4.649060">
						<ele>291</ele>
						<time>2024-10-10T19:48:30Z</time>
					</trkpt>
					<trkpt lat="46.007970" lon="4.649210">
						<ele>289</ele>
						<time>2024-10-10T19:48:55Z</time>
					</trkpt>
					<trkpt lat="46.007990" lon="4.649210">
						<ele>289</ele>
						<time>2024-10-10T19:48:56Z</time>
					</trkpt>
					<trkpt lat="46.007960" lon="4.649690">
						<ele>287</ele>
						<time>2024-10-10T19:49:02Z</time>
					</trkpt>
					<trkpt lat="46.007930" lon="4.649860">
						<ele>286</ele>
						<time>2024-10-10T19:49:04Z</time>
					</trkpt>
					<trkpt lat="46.007880" lon="4.650050">
						<ele>285</ele>
						<time>2024-10-10T19:49:06Z</time>
					</trkpt>
					<trkpt lat="46.007720" lon="4.650470">
						<ele>283</ele>
						<time>2024-10-10T19:49:12Z</time>
					</trkpt>
					<trkpt lat="46.007680" lon="4.650610">
						<ele>283</ele>
						<time>2024-10-10T19:49:14Z</time>
					</trkpt>
					<trkpt lat="46.007660" lon="4.650770">
						<ele>282</ele>
						<time>2024-10-10T19:49:16Z</time>
					</trkpt>
					<trkpt lat="46.007580" lon="4.652580">
						<ele>280</ele>
						<time>2024-10-10T19:49:39Z</time>
					</trkpt>
					<trkpt lat="46.007520" lon="4.653410">
						<ele>279</ele>
						<time>2024-10-10T19:49:49Z</time>
					</trkpt>
					<trkpt lat="46.007460" lon="4.653960">
						<ele>278</ele>
						<time>2024-10-10T19:49:56Z</time>
					</trkpt>
					<trkpt lat="46.007320" lon="4.655140">
						<ele>278</ele>
						<time>2024-10-10T19:50:11Z</time>
					</trkpt>
					<trkpt lat="46.007240" lon="4.655690">
						<ele>279</ele>
						<time>2024-10-10T19:50:18Z</time>
					</trkpt>
					<trkpt lat="46.007230" lon="4.655920">
						<ele>279</ele>
						<time>2024-10-10T19:50:20Z</time>
					</trkpt>
					<trkpt lat="46.007260" lon="4.656530">
						<ele>278</ele>
						<time>2024-10-10T19:50:28Z</time>
					</trkpt>
					<trkpt lat="46.007240" lon="4.656780">
						<ele>278</ele>
						<time>2024-10-10T19:50:31Z</time>
					</trkpt>
					<trkpt lat="46.007200" lon="4.657030">
						<ele>278</ele>
						<time>2024-10-10T19:50:34Z</time>
					</trkpt>
					<trkpt lat="46.007130" lon="4.657360">
						<ele>278</ele>
						<time>2024-10-10T19:50:39Z</time>
					</trkpt>
					<trkpt lat="46.007280" lon="4.657480">
						<ele>278</ele>
						<time>2024-10-10T19:50:42Z</time>
					</trkpt>
					<trkpt lat="46.007440" lon="4.657640">
						<ele>277</ele>
						<time>2024-10-10T19:50:45Z</time>
					</trkpt>
					<trkpt lat="46.007560" lon="4.657820">
						<ele>277</ele>
						<time>2024-10-10T19:50:48Z</time>
					</trkpt>
					<trkpt lat="46.008160" lon="4.658740">
						<ele>274</ele>
						<time>2024-10-10T19:51:04Z</time>
					</trkpt>
					<trkpt lat="46.008350" lon="4.659030">
						<ele>273</ele>
						<time>2024-10-10T19:51:09Z</time>
					</trkpt>
					<trkpt lat="46.008530" lon="4.659250">
						<ele>271</ele>
						<time>2024-10-10T19:51:13Z</time>
					</trkpt>
					<trkpt lat="46.008600" lon="4.659300">
						<ele>270</ele>
						<time>2024-10-10T19:51:14Z</time>
					</trkpt>
					<trkpt lat="46.008930" lon="4.659390">
						<ele>267</ele>
						<time>2024-10-10T19:51:20Z</time>
					</trkpt>
					<trkpt lat="46.008990" lon="4.659410">
						<ele>267</ele>
						<time>2024-10-10T19:51:21Z</time>
					</trkpt>
					<trkpt lat="46.009140" lon="4.659460">
						<ele>265</ele>
						<time>2024-10-10T19:51:24Z</time>
					</trkpt>
					<trkpt lat="46.009190" lon="4.659530">
						<ele>264</ele>
						<time>2024-10-10T19:51:25Z</time>
					</trkpt>
					<trkpt lat="46.009220" lon="4.659600">
						<ele>263</ele>
						<time>2024-10-10T19:51:26Z</time>
					</trkpt>
					<trkpt lat="46.009400" lon="4.660410">
						<ele>259</ele>
						<time>2024-10-10T19:51:37Z</time>
					</trkpt>
					<trkpt lat="46.009460" lon="4.660570">
						<ele>258</ele>
						<time>2024-10-10T19:51:39Z</time>
					</trkpt>
					<trkpt lat="46.009910" lon="4.659720">
						<ele>256</ele>
						<time>2024-10-10T19:51:52Z</time>
					</trkpt>
					<trkpt lat="46.010210" lon="4.659220">
						<ele>256</ele>
						<time>2024-10-10T19:52:00Z</time>
					</trkpt>
					<trkpt lat="46.010400" lon="4.658720">
						<ele>258</ele>
						<time>2024-10-10T19:52:07Z</time>
					</trkpt>
					<trkpt lat="46.010780" lon="4.657890">
						<ele>263</ele>
						<time>2024-10-10T19:52:20Z</time>
					</trkpt>
					<trkpt lat="46.011010" lon="4.657520">
						<ele>264</ele>
						<time>2024-10-10T19:52:26Z</time>
					</trkpt>
					<trkpt lat="46.011150" lon="4.657330">
						<ele>264</ele>
						<time>2024-10-10T19:52:29Z</time>
					</trkpt>
					<trkpt lat="46.011590" lon="4.656740">
						<ele>267</ele>
						<time>2024-10-10T19:52:40Z</time>
					</trkpt>
					<trkpt lat="46.011840" lon="4.656360">
						<ele>268</ele>
						<time>2024-10-10T19:52:47Z</time>
					</trkpt>
					<trkpt lat="46.012060" lon="4.656070">
						<ele>269</ele>
						<time>2024-10-10T19:52:52Z</time>
					</trkpt>
					<trkpt lat="46.012240" lon="4.655920">
						<ele>269</ele>
						<time>2024-10-10T19:52:56Z</time>
					</trkpt>
					<trkpt lat="46.012580" lon="4.655730">
						<ele>269</ele>
						<time>2024-10-10T19:53:02Z</time>
					</trkpt>
					<trkpt lat="46.012790" lon="4.655650">
						<ele>269</ele>
						<time>2024-10-10T19:53:06Z</time>
					</trkpt>
					<trkpt lat="46.013420" lon="4.655630">
						<ele>268</ele>
						<time>2024-10-10T19:53:17Z</time>
					</trkpt>
					<trkpt lat="46.014200" lon="4.655560">
						<ele>273</ele>
						<time>2024-10-10T19:53:31Z</time>
					</trkpt>
					<trkpt lat="46.014500" lon="4.654770">
						<ele>278</ele>
						<time>2024-10-10T19:53:42Z</time>
					</trkpt>
					<trkpt lat="46.014640" lon="4.654340">
						<ele>280</ele>
						<time>2024-10-10T19:53:48Z</time>
					</trkpt>
					<trkpt lat="46.015050" lon="4.652640">
						<ele>287</ele>
						<time>2024-10-10T19:54:10Z</time>
					</trkpt>
					<trkpt lat="46.015100" lon="4.652290">
						<ele>289</ele>
						<time>2024-10-10T19:54:15Z</time>
					</trkpt>
					<trkpt lat="46.015150" lon="4.652040">
						<ele>290</ele>
						<time>2024-10-10T19:54:18Z</time>
					</trkpt>
					<trkpt lat="46.015130" lon="4.651790">
						<ele>291</ele>
						<time>2024-10-10T19:54:21Z</time>
					</trkpt>
					<trkpt lat="46.015090" lon="4.651450">
						<ele>292</ele>
						<time>2024-10-10T19:54:25Z</time>
					</trkpt>
					<trkpt lat="46.015060" lon="4.651160">
						<ele>293</ele>
						<time>2024-10-10T19:54:29Z</time>
					</trkpt>
					<trkpt lat="46.015030" lon="4.650590">
						<ele>296</ele>
						<time>2024-10-10T19:54:36Z</time>
					</trkpt>
					<trkpt lat="46.015070" lon="4.650100">
						<ele>300</ele>
						<time>2024-10-10T19:54:42Z</time>
					</trkpt>
					<trkpt lat="46.015130" lon="4.649920">
						<ele>301</ele>
						<time>2024-10-10T19:54:44Z</time>
					</trkpt>
					<trkpt lat="46.015390" lon="4.649350">
						<ele>305</ele>
						<time>2024-10-10T19:54:53Z</time>
					</trkpt>
					<trkpt lat="46.015420" lon="4.649110">
						<ele>306</ele>
						<time>2024-10-10T19:54:56Z</time>
					</trkpt>
					<trkpt lat="46.015450" lon="4.648520">
						<ele>310</ele>
						<time>2024-10-10T19:55:03Z</time>
					</trkpt>
					<trkpt lat="46.015500" lon="4.647580">
						<ele>316</ele>
						<time>2024-10-10T19:55:15Z</time>
					</trkpt>
					<trkpt lat="46.015520" lon="4.647260">
						<ele>318</ele>
						<time>2024-10-10T19:55:19Z</time>
					</trkpt>
					<trkpt lat="46.015590" lon="4.646940">
						<ele>320</ele>
						<time>2024-10-10T19:55:23Z</time>
					</trkpt>
					<trkpt lat="46.015810" lon="4.646310">
						<ele>324</ele>
						<time>2024-10-10T19:55:32Z</time>
					</trkpt>
					<trkpt lat="46.015880" lon="4.645980">
						<ele>325</ele>
						<time>2024-10-10T19:55:36Z</time>
					</trkpt>
					<trkpt lat="46.015910" lon="4.645740">
						<ele>325</ele>
						<time>2024-10-10T19:55:39Z</time>
					</trkpt>
					<trkpt lat="46.015940" lon="4.645000">
						<ele>328</ele>
						<time>2024-10-10T19:55:48Z</time>
					</trkpt>
					<trkpt lat="46.015980" lon="4.644630">
						<ele>330</ele>
						<time>2024-10-10T19:55:53Z</time>
					</trkpt>
					<trkpt lat="46.015960" lon="4.644510">
						<ele>331</ele>
						<time>2024-10-10T19:55:54Z</time>
					</trkpt>
					<trkpt lat="46.016370" lon="4.643820">
						<ele>334</ele>
						<time>2024-10-10T19:56:06Z</time>
					</trkpt>
					<trkpt lat="46.016960" lon="4.642600">
						<ele>336</ele>
						<time>2024-10-10T19:56:24Z</time>
					</trkpt>
					<trkpt lat="46.017090" lon="4.642480">
						<ele>335</ele>
						<time>2024-10-10T19:56:27Z</time>
					</trkpt>
					<trkpt lat="46.017060" lon="4.642410">
						<ele>336</ele>
						<time>2024-10-10T19:56:28Z</time>
					</trkpt>
					<trkpt lat="46.016980" lon="4.642240">
						<ele>336</ele>
						<time>2024-10-10T19:56:30Z</time>
					</trkpt>
					<trkpt lat="46.016420" lon="4.641590">
						<ele>341</ele>
						<time>2024-10-10T19:56:43Z</time>
					</trkpt>
					<trkpt lat="46.016280" lon="4.641480">
						<ele>342</ele>
						<time>2024-10-10T19:56:46Z</time>
					</trkpt>
					<trkpt lat="46.016270" lon="4.641380">
						<ele>342</ele>
						<time>2024-10-10T19:56:47Z</time>
					</trkpt>
					<trkpt lat="46.016230" lon="4.641230">
						<ele>343</ele>
						<time>2024-10-10T19:56:49Z</time>
					</trkpt>
					<trkpt lat="46.016010" lon="4.640830">
						<ele>346</ele>
						<time>2024-10-10T19:56:55Z</time>
					</trkpt>
					<trkpt lat="46.015710" lon="4.640390">
						<ele>350</ele>
						<time>2024-10-10T19:57:03Z</time>
					</trkpt>
					<trkpt lat="46.015140" lon="4.639710">
						<ele>353</ele>
						<time>2024-10-10T19:57:16Z</time>
					</trkpt>
					<trkpt lat="46.015010" lon="4.639530">
						<ele>354</ele>
						<time>2024-10-10T19:57:19Z</time>
					</trkpt>
					<trkpt lat="46.014770" lon="4.639110">
						<ele>355</ele>
						<time>2024-10-10T19:57:26Z</time>
					</trkpt>
					<trkpt lat="46.014680" lon="4.638930">
						<ele>355</ele>
						<time>2024-10-10T19:57:29Z</time>
					</trkpt>
					<trkpt lat="46.014470" lon="4.638190">
						<ele>356</ele>
						<time>2024-10-10T19:57:39Z</time>
					</trkpt>
					<trkpt lat="46.014200" lon="4.637420">
						<ele>360</ele>
						<time>2024-10-10T19:57:49Z</time>
					</trkpt>
					<trkpt lat="46.014120" lon="4.637140">
						<ele>362</ele>
						<time>2024-10-10T19:57:53Z</time>
					</trkpt>
					<trkpt lat="46.014100" lon="4.636990">
						<ele>362</ele>
						<time>2024-10-10T19:57:55Z</time>
					</trkpt>
					<trkpt lat="46.014080" lon="4.636130">
						<ele>367</ele>
						<time>2024-10-10T19:58:06Z</time>
					</trkpt>
					<trkpt lat="46.014140" lon="4.635550">
						<ele>371</ele>
						<time>2024-10-10T19:58:13Z</time>
					</trkpt>
					<trkpt lat="46.014170" lon="4.635080">
						<ele>373</ele>
						<time>2024-10-10T19:58:19Z</time>
					</trkpt>
					<trkpt lat="46.014160" lon="4.634760">
						<ele>375</ele>
						<time>2024-10-10T19:58:23Z</time>
					</trkpt>
					<trkpt lat="46.014070" lon="4.633950">
						<ele>377</ele>
						<time>2024-10-10T19:58:33Z</time>
					</trkpt>
					<trkpt lat="46.014060" lon="4.633740">
						<ele>378</ele>
						<time>2024-10-10T19:58:35Z</time>
					</trkpt>
					<trkpt lat="46.014080" lon="4.632890">
						<ele>380</ele>
						<time>2024-10-10T19:58:46Z</time>
					</trkpt>
					<trkpt lat="46.014130" lon="4.631990">
						<ele>383</ele>
						<time>2024-10-10T19:58:57Z</time>
					</trkpt>
					<trkpt lat="46.014180" lon="4.631470">
						<ele>385</ele>
						<time>2024-10-10T19:59:04Z</time>
					</trkpt>
					<trkpt lat="46.014240" lon="4.631110">
						<ele>388</ele>
						<time>2024-10-10T19:59:08Z</time>
					</trkpt>
					<trkpt lat="46.014360" lon="4.630660">
						<ele>390</ele>
						<time>2024-10-10T19:59:14Z</time>
					</trkpt>
					<trkpt lat="46.014390" lon="4.630560">
						<ele>390</ele>
						<time>2024-10-10T19:59:15Z</time>
					</trkpt>
					<trkpt lat="46.014360" lon="4.630510">
						<ele>390</ele>
						<time>2024-10-10T19:59:16Z</time>
					</trkpt>
					<trkpt lat="46.014340" lon="4.630350">
						<ele>390</ele>
						<time>2024-10-10T19:59:18Z</time>
					</trkpt>
					<trkpt lat="46.014280" lon="4.630010">
						<ele>390</ele>
						<time>2024-10-10T19:59:23Z</time>
					</trkpt>
					<trkpt lat="46.014140" lon="4.629840">
						<ele>390</ele>
						<time>2024-10-10T19:59:26Z</time>
					</trkpt>
					<trkpt lat="46.013950" lon="4.629560">
						<ele>388</ele>
						<time>2024-10-10T19:59:31Z</time>
					</trkpt>
					<trkpt lat="46.013930" lon="4.629510">
						<ele>388</ele>
						<time>2024-10-10T19:59:31Z</time>
					</trkpt>
					<trkpt lat="46.013840" lon="4.629270">
						<ele>387</ele>
						<time>2024-10-10T19:59:35Z</time>
					</trkpt>
					<trkpt lat="46.013740" lon="4.628920">
						<ele>387</ele>
						<time>2024-10-10T19:59:39Z</time>
					</trkpt>
					<trkpt lat="46.013680" lon="4.628470">
						<ele>388</ele>
						<time>2024-10-10T19:59:45Z</time>
					</trkpt>
					<trkpt lat="46.013640" lon="4.628300">
						<ele>389</ele>
						<time>2024-10-10T19:59:47Z</time>
					</trkpt>
					<trkpt lat="46.013640" lon="4.628070">
						<ele>390</ele>
						<time>2024-10-10T19:59:50Z</time>
					</trkpt>
					<trkpt lat="46.013590" lon="4.627900">
						<ele>391</ele>
						<time>2024-10-10T19:59:52Z</time>
					</trkpt>
					<trkpt lat="46.013570" lon="4.627660">
						<ele>392</ele>
						<time>2024-10-10T19:59:55Z</time>
					</trkpt>
					<trkpt lat="46.013480" lon="4.625300">
						<ele>409</ele>
						<time>2024-10-10T20:00:25Z</time>
					</trkpt>
					<trkpt lat="46.013440" lon="4.625200">
						<ele>410</ele>
						<time>2024-10-10T20:00:26Z</time>
					</trkpt>
					<trkpt lat="46.013390" lon="4.625150">
						<ele>411</ele>
						<time>2024-10-10T20:00:27Z</time>
					</trkpt>
					<trkpt lat="46.013330" lon="4.625150">
						<ele>411</ele>
						<time>2024-10-10T20:00:28Z</time>
					</trkpt>
					<trkpt lat="46.013100" lon="4.625230">
						<ele>412</ele>
						<time>2024-10-10T20:00:32Z</time>
					</trkpt>
					<trkpt lat="46.013050" lon="4.625220">
						<ele>412</ele>
						<time>2024-10-10T20:00:33Z</time>
					</trkpt>
					<trkpt lat="46.013020" lon="4.625130">
						<ele>413</ele>
						<time>2024-10-10T20:00:35Z</time>
					</trkpt>
					<trkpt lat="46.013000" lon="4.625100">
						<ele>413</ele>
						<time>2024-10-10T20:00:35Z</time>
					</trkpt>
					<trkpt lat="46.013000" lon="4.624890">
						<ele>416</ele>
						<time>2024-10-10T20:00:38Z</time>
					</trkpt>
					<trkpt lat="46.012990" lon="4.624800">
						<ele>417</ele>
						<time>2024-10-10T20:00:39Z</time>
					</trkpt>
					<trkpt lat="46.012940" lon="4.624760">
						<ele>417</ele>
						<time>2024-10-10T20:00:40Z</time>
					</trkpt>
					<trkpt lat="46.012810" lon="4.624770">
						<ele>418</ele>
						<time>2024-10-10T20:00:42Z</time>
					</trkpt>
					<trkpt lat="46.012580" lon="4.624850">
						<ele>418</ele>
						<time>2024-10-10T20:00:46Z</time>
					</trkpt>
					<trkpt lat="46.012070" lon="4.624640">
						<ele>420</ele>
						<time>2024-10-10T20:00:56Z</time>
					</trkpt>
					<trkpt lat="46.011910" lon="4.624550">
						<ele>421</ele>
						<time>2024-10-10T20:00:59Z</time>
					</trkpt>
					<trkpt lat="46.011880" lon="4.624510">
						<ele>422</ele>
						<time>2024-10-10T20:01:00Z</time>
					</trkpt>
					<trkpt lat="46.011870" lon="4.624410">
						<ele>423</ele>
						<time>2024-10-10T20:01:01Z</time>
					</trkpt>
					<trkpt lat="46.011890" lon="4.623920">
						<ele>428</ele>
						<time>2024-10-10T20:01:07Z</time>
					</trkpt>
					<trkpt lat="46.011870" lon="4.623120">
						<ele>438</ele>
						<time>2024-10-10T20:01:17Z</time>
					</trkpt>
					<trkpt lat="46.011860" lon="4.623030">
						<ele>440</ele>
						<time>2024-10-10T20:01:18Z</time>
					</trkpt>
					<trkpt lat="46.011830" lon="4.622940">
						<ele>442</ele>
						<time>2024-10-10T20:01:19Z</time>
					</trkpt>
					<trkpt lat="46.011710" lon="4.622820">
						<ele>445</ele>
						<time>2024-10-10T20:01:22Z</time>
					</trkpt>
					<trkpt lat="46.011920" lon="4.622570">
						<ele>449</ele>
						<time>2024-10-10T20:01:27Z</time>
					</trkpt>
					<trkpt lat="46.011920" lon="4.622450">
						<ele>451</ele>
						<time>2024-10-10T20:01:28Z</time>
					</trkpt>
					<trkpt lat="46.011830" lon="4.622450">
						<ele>452</ele>
						<time>2024-10-10T20:01:30Z</time>
					</trkpt>
					<trkpt lat="46.011810" lon="4.622500">
						<ele>451</ele>
						<time>2024-10-10T20:01:30Z</time>
					</trkpt>
					<trkpt lat="46.011830" lon="4.622450">
						<ele>452</ele>
						<time>2024-10-10T20:01:31Z</time>
					</trkpt>
					<trkpt lat="46.011620" lon="4.622440">
						<ele>453</ele>
						<time>2024-10-10T20:01:35Z</time>
					</trkpt>
					<trkpt lat="46.011510" lon="4.622400">
						<ele>453</ele>
						<time>2024-10-10T20:01:37Z</time>
					</trkpt>
					<trkpt lat="46.011330" lon="4.622390">
						<ele>451</ele>
						<time>2024-10-10T20:01:40Z</time>
					</trkpt>
					<trkpt lat="46.010980" lon="4.622390">
						<ele>448</ele>
						<time>2024-10-10T20:01:46Z</time>
					</trkpt>
					<trkpt lat="46.010700" lon="4.621980">
						<ele>450</ele>
						<time>2024-10-10T20:01:53Z</time>
					</trkpt>
					<trkpt lat="46.010630" lon="4.621840">
						<ele>450</ele>
						<time>2024-10-10T20:01:55Z</time>
					</trkpt>
					<trkpt lat="46.010600" lon="4.621630">
						<ele>451</ele>
						<time>2024-10-10T20:01:58Z</time>
					</trkpt>
					<trkpt lat="46.010590" lon="4.621430">
						<ele>449</ele>
						<time>2024-10-10T20:02:01Z</time>
					</trkpt>
					<trkpt lat="46.010600" lon="4.621140">
						<ele>447</ele>
						<time>2024-10-10T20:02:04Z</time>
					</trkpt>
					<trkpt lat="46.010640" lon="4.620920">
						<ele>447</ele>
						<time>2024-10-10T20:02:07Z</time>
					</trkpt>
					<trkpt lat="46.011190" lon="4.619820">
						<ele>449</ele>
						<time>2024-10-10T20:02:24Z</time>
					</trkpt>
					<trkpt lat="46.011300" lon="4.619650">
						<ele>450</ele>
						<time>2024-10-10T20:02:27Z</time>
					</trkpt>
					<trkpt lat="46.011680" lon="4.619280">
						<ele>458</ele>
						<time>2024-10-10T20:02:35Z</time>
					</trkpt>
					<trkpt lat="46.011790" lon="4.619130">
						<ele>460</ele>
						<time>2024-10-10T20:02:37Z</time>
					</trkpt>
					<trkpt lat="46.011990" lon="4.618800">
						<ele>464</ele>
						<time>2024-10-10T20:02:43Z</time>
					</trkpt>
					<trkpt lat="46.012040" lon="4.618710">
						<ele>465</ele>
						<time>2024-10-10T20:02:44Z</time>
					</trkpt>
					<trkpt lat="46.012450" lon="4.617860">
						<ele>476</ele>
						<time>2024-10-10T20:02:57Z</time>
					</trkpt>
					<trkpt lat="46.012540" lon="4.617600">
						<ele>478</ele>
						<time>2024-10-10T20:03:01Z</time>
					</trkpt>
					<trkpt lat="46.012620" lon="4.617280">
						<ele>482</ele>
						<time>2024-10-10T20:03:05Z</time>
					</trkpt>
					<trkpt lat="46.012750" lon="4.616710">
						<ele>490</ele>
						<time>2024-10-10T20:03:12Z</time>
					</trkpt>
					<trkpt lat="46.012840" lon="4.616300">
						<ele>494</ele>
						<time>2024-10-10T20:03:18Z</time>
					</trkpt>
					<trkpt lat="46.013130" lon="4.615330">
						<ele>500</ele>
						<time>2024-10-10T20:03:31Z</time>
					</trkpt>
					<trkpt lat="46.013310" lon="4.614900">
						<ele>502</ele>
						<time>2024-10-10T20:03:37Z</time>
					</trkpt>
					<trkpt lat="46.013700" lon="4.614090">
						<ele>498</ele>
						<time>2024-10-10T20:03:49Z</time>
					</trkpt>
					<trkpt lat="46.014020" lon="4.613500">
						<ele>496</ele>
						<time>2024-10-10T20:03:58Z</time>
					</trkpt>
					<trkpt lat="46.014090" lon="4.613400">
						<ele>496</ele>
						<time>2024-10-10T20:04:00Z</time>
					</trkpt>
					<trkpt lat="46.014120" lon="4.613390">
						<ele>496</ele>
						<time>2024-10-10T20:04:01Z</time>
					</trkpt>
					<trkpt lat="46.014130" lon="4.613380">
						<ele>496</ele>
						<time>2024-10-10T20:04:01Z</time>
					</trkpt>
					<trkpt lat="46.014220" lon="4.613050">
						<ele>496</ele>
						<time>2024-10-10T20:04:05Z</time>
					</trkpt>
					<trkpt lat="46.014320" lon="4.612690">
						<ele>497</ele>
						<time>2024-10-10T20:04:10Z</time>
					</trkpt>
					<trkpt lat="46.014440" lon="4.612280">
						<ele>498</ele>
						<time>2024-10-10T20:04:16Z</time>
					</trkpt>
					<trkpt lat="46.014590" lon="4.611780">
						<ele>501</ele>
						<time>2024-10-10T20:04:22Z</time>
					</trkpt>
					<trkpt lat="46.014650" lon="4.611530">
						<ele>501</ele>
						<time>2024-10-10T20:04:26Z</time>
					</trkpt>
					<trkpt lat="46.014710" lon="4.611340">
						<ele>502</ele>
						<time>2024-10-10T20:04:28Z</time>
					</trkpt>
					<trkpt lat="46.014910" lon="4.610600">
						<ele>505</ele>
						<time>2024-10-10T20:04:38Z</time>
					</trkpt>
					<trkpt lat="46.015000" lon="4.610260">
						<ele>508</ele>
						<time>2024-10-10T20:04:42Z</time>
					</trkpt>
					<trkpt lat="46.015070" lon="4.609890">
						<ele>510</ele>
						<time>2024-10-10T20:04:47Z</time>
					</trkpt>
					<trkpt lat="46.015010" lon="4.609870">
						<ele>509</ele>
						<time>2024-10-10T20:04:48Z</time>
					</trkpt>
					<trkpt lat="46.013810" lon="4.609540">
						<ele>493</ele>
						<time>2024-10-10T20:05:10Z</time>
					</trkpt>
					<trkpt lat="46.013570" lon="4.609490">
						<ele>490</ele>
						<time>2024-10-10T20:05:14Z</time>
					</trkpt>
					<trkpt lat="46.012970" lon="4.609520">
						<ele>484</ele>
						<time>2024-10-10T20:05:25Z</time>
					</trkpt>
					<trkpt lat="46.012870" lon="4.609490">
						<ele>483</ele>
						<time>2024-10-10T20:05:27Z</time>
					</trkpt>
					<trkpt lat="46.012710" lon="4.609420">
						<ele>481</ele>
						<time>2024-10-10T20:05:30Z</time>
					</trkpt>
					<trkpt lat="46.011720" lon="4.608710">
						<ele>470</ele>
						<time>2024-10-10T20:05:49Z</time>
					</trkpt>
					<trkpt lat="46.011550" lon="4.608550">
						<ele>468</ele>
						<time>2024-10-10T20:05:53Z</time>
					</trkpt>
					<trkpt lat="46.011250" lon="4.608110">
						<ele>464</ele>
						<time>2024-10-10T20:06:01Z</time>
					</trkpt>
					<trkpt lat="46.011020" lon="4.607740">
						<ele>462</ele>
						<time>2024-10-10T20:06:07Z</time>
					</trkpt>
					<trkpt lat="46.010950" lon="4.607560">
						<ele>462</ele>
						<time>2024-10-10T20:06:09Z</time>
					</trkpt>
					<trkpt lat="46.010900" lon="4.607330">
						<ele>461</ele>
						<time>2024-10-10T20:06:12Z</time>
					</trkpt>
					<trkpt lat="46.010840" lon="4.606910">
						<ele>459</ele>
						<time>2024-10-10T20:06:18Z</time>
					</trkpt>
					<trkpt lat="46.010860" lon="4.606700">
						<ele>458</ele>
						<time>2024-10-10T20:06:20Z</time>
					</trkpt>
					<trkpt lat="46.010920" lon="4.606590">
						<ele>457</ele>
						<time>2024-10-10T20:06:22Z</time>
					</trkpt>
					<trkpt lat="46.010990" lon="4.606510">
						<ele>456</ele>
						<time>2024-10-10T20:06:24Z</time>
					</trkpt>
					<trkpt lat="46.011100" lon="4.606440">
						<ele>455</ele>
						<time>2024-10-10T20:06:26Z</time>
					</trkpt>
					<trkpt lat="46.011240" lon="4.606400">
						<ele>454</ele>
						<time>2024-10-10T20:06:28Z</time>
					</trkpt>
					<trkpt lat="46.011670" lon="4.606350">
						<ele>452</ele>
						<time>2024-10-10T20:06:36Z</time>
					</trkpt>
					<trkpt lat="46.011810" lon="4.606280">
						<ele>453</ele>
						<time>2024-10-10T20:06:39Z</time>
					</trkpt>
					<trkpt lat="46.011960" lon="4.606040">
						<ele>454</ele>
						<time>2024-10-10T20:06:43Z</time>
					</trkpt>
					<trkpt lat="46.012050" lon="4.605790">
						<ele>453</ele>
						<time>2024-10-10T20:06:46Z</time>
					</trkpt>
					<trkpt lat="46.012200" lon="4.605240">
						<ele>454</ele>
						<time>2024-10-10T20:06:53Z</time>
					</trkpt>
					<trkpt lat="46.012230" lon="4.605070">
						<ele>454</ele>
						<time>2024-10-10T20:06:56Z</time>
					</trkpt>
					<trkpt lat="46.012220" lon="4.604990">
						<ele>454</ele>
						<time>2024-10-10T20:06:57Z</time>
					</trkpt>
					<trkpt lat="46.011880" lon="4.604470">
						<ele>450</ele>
						<time>2024-10-10T20:07:05Z</time>
					</trkpt>
					<trkpt lat="46.011570" lon="4.603720">
						<ele>446</ele>
						<time>2024-10-10T20:07:16Z</time>
					</trkpt>
					<trkpt lat="46.011320" lon="4.603220">
						<ele>440</ele>
						<time>2024-10-10T20:07:24Z</time>
					</trkpt>
					<trkpt lat="46.011190" lon="4.602830">
						<ele>438</ele>
						<time>2024-10-10T20:07:29Z</time>
					</trkpt>
					<trkpt lat="46.011030" lon="4.602610">
						<ele>433</ele>
						<time>2024-10-10T20:07:33Z</time>
					</trkpt>
					<trkpt lat="46.010980" lon="4.602500">
						<ele>432</ele>
						<time>2024-10-10T20:07:35Z</time>
					</trkpt>
					<trkpt lat="46.010610" lon="4.601540">
						<ele>428</ele>
						<time>2024-10-10T20:07:48Z</time>
					</trkpt>
					<trkpt lat="46.010510" lon="4.601390">
						<ele>428</ele>
						<time>2024-10-10T20:07:51Z</time>
					</trkpt>
					<trkpt lat="46.010390" lon="4.601260">
						<ele>427</ele>
						<time>2024-10-10T20:07:53Z</time>
					</trkpt>
					<trkpt lat="46.010210" lon="4.601140">
						<ele>423</ele>
						<time>2024-10-10T20:07:57Z</time>
					</trkpt>
					<trkpt lat="46.009600" lon="4.600460">
						<ele>412</ele>
						<time>2024-10-10T20:08:11Z</time>
					</trkpt>
					<trkpt lat="46.009420" lon="4.600220">
						<ele>409</ele>
						<time>2024-10-10T20:08:15Z</time>
					</trkpt>
					<trkpt lat="46.009140" lon="4.599660">
						<ele>407</ele>
						<time>2024-10-10T20:08:24Z</time>
					</trkpt>
					<trkpt lat="46.008800" lon="4.599310">
						<ele>403</ele>
						<time>2024-10-10T20:08:31Z</time>
					</trkpt>
					<trkpt lat="46.008460" lon="4.599130">
						<ele>396</ele>
						<time>2024-10-10T20:08:37Z</time>
					</trkpt>
					<trkpt lat="46.008270" lon="4.599080">
						<ele>392</ele>
						<time>2024-10-10T20:08:41Z</time>
					</trkpt>
					<trkpt lat="46.008030" lon="4.599050">
						<ele>388</ele>
						<time>2024-10-10T20:08:45Z</time>
					</trkpt>
					<trkpt lat="46.007920" lon="4.599070">
						<ele>386</ele>
						<time>2024-10-10T20:08:47Z</time>
					</trkpt>
					<trkpt lat="46.007520" lon="4.599240">
						<ele>379</ele>
						<time>2024-10-10T20:08:55Z</time>
					</trkpt>
					<trkpt lat="46.007390" lon="4.599280">
						<ele>375</ele>
						<time>2024-10-10T20:08:57Z</time>
					</trkpt>
					<trkpt lat="46.007290" lon="4.599270">
						<ele>373</ele>
						<time>2024-10-10T20:08:59Z</time>
					</trkpt>
					<trkpt lat="46.007260" lon="4.599220">
						<ele>373</ele>
						<time>2024-10-10T20:09:00Z</time>
					</trkpt>
					<trkpt lat="46.007240" lon="4.599170">
						<ele>374</ele>
						<time>2024-10-10T20:09:00Z</time>
					</trkpt>
					<trkpt lat="46.007250" lon="4.598960">
						<ele>373</ele>
						<time>2024-10-10T20:09:03Z</time>
					</trkpt>
					<trkpt lat="46.007290" lon="4.598840">
						<ele>373</ele>
						<time>2024-10-10T20:09:05Z</time>
					</trkpt>
					<trkpt lat="46.007630" lon="4.598210">
						<ele>377</ele>
						<time>2024-10-10T20:09:14Z</time>
					</trkpt>
					<trkpt lat="46.007760" lon="4.598000">
						<ele>378</ele>
						<time>2024-10-10T20:09:18Z</time>
					</trkpt>
					<trkpt lat="46.008260" lon="4.597450">
						<ele>378</ele>
						<time>2024-10-10T20:09:29Z</time>
					</trkpt>
					<trkpt lat="46.008280" lon="4.597380">
						<ele>379</ele>
						<time>2024-10-10T20:09:30Z</time>
					</trkpt>
					<trkpt lat="46.008270" lon="4.597200">
						<ele>380</ele>
						<time>2024-10-10T20:09:32Z</time>
					</trkpt>
					<trkpt lat="46.008240" lon="4.597150">
						<ele>380</ele>
						<time>2024-10-10T20:09:33Z</time>
					</trkpt>
					<trkpt lat="46.008200" lon="4.597130">
						<ele>380</ele>
						<time>2024-10-10T20:09:34Z</time>
					</trkpt>
					<trkpt lat="46.007670" lon="4.597220">
						<ele>376</ele>
						<time>2024-10-10T20:09:43Z</time>
					</trkpt>
					<trkpt lat="46.007570" lon="4.597260">
						<ele>375</ele>
						<time>2024-10-10T20:09:45Z</time>
					</trkpt>
					<trkpt lat="46.006380" lon="4.598160">
						<ele>352</ele>
						<time>2024-10-10T20:10:09Z</time>
					</trkpt>
					<trkpt lat="46.006330" lon="4.598160">
						<ele>351</ele>
						<time>2024-10-10T20:10:10Z</time>
					</trkpt>
					<trkpt lat="46.006130" lon="4.598090">
						<ele>349</ele>
						<time>2024-10-10T20:10:14Z</time>
					</trkpt>
					<trkpt lat="46.006100" lon="4.598700">
						<ele>346</ele>
						<time>2024-10-10T20:10:21Z</time>
					</trkpt>
					<trkpt lat="46.005900" lon="4.598730">
						<ele>342</ele>
						<time>2024-10-10T20:10:25Z</time>
					</trkpt>
					<trkpt lat="46.005540" lon="4.598840">
						<ele>343</ele>
						<time>2024-10-10T20:10:31Z</time>
					</trkpt>
					<trkpt lat="46.005440" lon="4.598890">
						<ele>343</ele>
						<time>2024-10-10T20:10:33Z</time>
					</trkpt>
					<trkpt lat="46.005190" lon="4.599230">
						<ele>342</ele>
						<time>2024-10-10T20:10:39Z</time>
					</trkpt>
					<trkpt lat="46.005120" lon="4.599440">
						<ele>342</ele>
						<time>2024-10-10T20:10:42Z</time>
					</trkpt>
					<trkpt lat="46.004980" lon="4.600310">
						<ele>341</ele>
						<time>2024-10-10T20:10:53Z</time>
					</trkpt>
					<trkpt lat="46.004930" lon="4.600530">
						<ele>341</ele>
						<time>2024-10-10T20:10:56Z</time>
					</trkpt>
					<trkpt lat="46.004580" lon="4.601630">
						<ele>343</ele>
						<time>2024-10-10T20:11:11Z</time>
					</trkpt>
					<trkpt lat="46.004410" lon="4.602050">
						<ele>343</ele>
						<time>2024-10-10T20:11:17Z</time>
					</trkpt>
					<trkpt lat="46.004050" lon="4.602640">
						<ele>344</ele>
						<time>2024-10-10T20:11:27Z</time>
					</trkpt>
					<trkpt lat="46.004000" lon="4.602760">
						<ele>344</ele>
						<time>2024-10-10T20:11:28Z</time>
					</trkpt>
					<trkpt lat="46.003930" lon="4.603090">
						<ele>344</ele>
						<time>2024-10-10T20:11:33Z</time>
					</trkpt>
					<trkpt lat="46.003660" lon="4.603740">
						<ele>344</ele>
						<time>2024-10-10T20:11:42Z</time>
					</trkpt>
					<trkpt lat="46.003120" lon="4.604890">
						<ele>343</ele>
						<time>2024-10-10T20:11:59Z</time>
					</trkpt>
					<trkpt lat="46.002990" lon="4.605250">
						<ele>344</ele>
						<time>2024-10-10T20:12:04Z</time>
					</trkpt>
					<trkpt lat="46.002890" lon="4.605470">
						<ele>344</ele>
						<time>2024-10-10T20:12:08Z</time>
					</trkpt>
					<trkpt lat="46.002670" lon="4.605790">
						<ele>346</ele>
						<time>2024-10-10T20:12:13Z</time>
					</trkpt>
					<trkpt lat="46.002550" lon="4.605900">
						<ele>347</ele>
						<time>2024-10-10T20:12:16Z</time>
					</trkpt>
					<trkpt lat="46.002080" lon="4.606210">
						<ele>349</ele>
						<time>2024-10-10T20:12:25Z</time>
					</trkpt>
					<trkpt lat="46.001940" lon="4.606400">
						<ele>349</ele>
						<time>2024-10-10T20:12:28Z</time>
					</trkpt>
					<trkpt lat="46.001780" lon="4.606700">
						<ele>349</ele>
						<time>2024-10-10T20:12:33Z</time>
					</trkpt>
					<trkpt lat="46.001740" lon="4.606840">
						<ele>350</ele>
						<time>2024-10-10T20:12:35Z</time>
					</trkpt>
					<trkpt lat="46.001710" lon="4.607300">
						<ele>350</ele>
						<time>2024-10-10T20:12:40Z</time>
					</trkpt>
					<trkpt lat="46.001610" lon="4.607240">
						<ele>352</ele>
						<time>2024-10-10T20:12:42Z</time>
					</trkpt>
					<trkpt lat="46.001710" lon="4.607300">
						<ele>350</ele>
						<time>2024-10-10T20:12:44Z</time>
					</trkpt>
					<trkpt lat="46.001710" lon="4.607470">
						<ele>350</ele>
						<time>2024-10-10T20:12:46Z</time>
					</trkpt>
					<trkpt lat="46.001670" lon="4.607590">
						<ele>351</ele>
						<time>2024-10-10T20:12:48Z</time>
					</trkpt>
					<trkpt lat="46.001560" lon="4.607830">
						<ele>352</ele>
						<time>2024-10-10T20:12:52Z</time>
					</trkpt>
					<trkpt lat="46.001250" lon="4.608320">
						<ele>354</ele>
						<time>2024-10-10T20:13:00Z</time>
					</trkpt>
					<trkpt lat="46.001050" lon="4.608520">
						<ele>353</ele>
						<time>2024-10-10T20:13:04Z</time>
					</trkpt>
					<trkpt lat="46.000930" lon="4.608580">
						<ele>354</ele>
						<time>2024-10-10T20:13:06Z</time>
					</trkpt>
					<trkpt lat="46.000850" lon="4.608650">
						<ele>354</ele>
						<time>2024-10-10T20:13:08Z</time>
					</trkpt>
					<trkpt lat="46.000740" lon="4.608790">
						<ele>354</ele>
						<time>2024-10-10T20:13:11Z</time>
					</trkpt>
					<trkpt lat="46.000670" lon="4.608930">
						<ele>355</ele>
						<time>2024-10-10T20:13:13Z</time>
					</trkpt>
					<trkpt lat="46.000640" lon="4.609160">
						<ele>354</ele>
						<time>2024-10-10T20:13:16Z</time>
					</trkpt>
					<trkpt lat="46.000670" lon="4.609420">
						<ele>354</ele>
						<time>2024-10-10T20:13:19Z</time>
					</trkpt>
					<trkpt lat="46.000580" lon="4.609960">
						<ele>356</ele>
						<time>2024-10-10T20:13:26Z</time>
					</trkpt>
					<trkpt lat="46.000270" lon="4.610900">
						<ele>358</ele>
						<time>2024-10-10T20:13:39Z</time>
					</trkpt>
					<trkpt lat="46.000040" lon="4.611460">
						<ele>359</ele>
						<time>2024-10-10T20:13:47Z</time>
					</trkpt>
					<trkpt lat="45.999690" lon="4.612640">
						<ele>364</ele>
						<time>2024-10-10T20:14:03Z</time>
					</trkpt>
					<trkpt lat="45.999560" lon="4.612890">
						<ele>364</ele>
						<time>2024-10-10T20:14:06Z</time>
					</trkpt>
					<trkpt lat="45.999480" lon="4.612970">
						<ele>365</ele>
						<time>2024-10-10T20:14:08Z</time>
					</trkpt>
					<trkpt lat="45.999160" lon="4.613130">
						<ele>366</ele>
						<time>2024-10-10T20:14:14Z</time>
					</trkpt>
					<trkpt lat="45.998700" lon="4.613340">
						<ele>368</ele>
						<time>2024-10-10T20:14:23Z</time>
					</trkpt>
					<trkpt lat="45.998440" lon="4.613410">
						<ele>370</ele>
						<time>2024-10-10T20:14:28Z</time>
					</trkpt>
					<trkpt lat="45.998150" lon="4.613450">
						<ele>372</ele>
						<time>2024-10-10T20:14:33Z</time>
					</trkpt>
					<trkpt lat="45.997930" lon="4.613500">
						<ele>374</ele>
						<time>2024-10-10T20:14:37Z</time>
					</trkpt>
					<trkpt lat="45.997720" lon="4.613620">
						<ele>376</ele>
						<time>2024-10-10T20:14:41Z</time>
					</trkpt>
					<trkpt lat="45.997590" lon="4.613720">
						<ele>376</ele>
						<time>2024-10-10T20:14:43Z</time>
					</trkpt>
					<trkpt lat="45.997490" lon="4.613830">
						<ele>376</ele>
						<time>2024-10-10T20:14:46Z</time>
					</trkpt>
					<trkpt lat="45.997410" lon="4.613950">
						<ele>376</ele>
						<time>2024-10-10T20:14:48Z</time>
					</trkpt>
					<trkpt lat="45.997270" lon="4.614400">
						<ele>375</ele>
						<time>2024-10-10T20:14:54Z</time>
					</trkpt>
					<trkpt lat="45.997060" lon="4.614830">
						<ele>377</ele>
						<time>2024-10-10T20:15:00Z</time>
					</trkpt>
					<trkpt lat="45.996870" lon="4.615550">
						<ele>379</ele>
						<time>2024-10-10T20:15:10Z</time>
					</trkpt>
					<trkpt lat="45.996620" lon="4.616690">
						<ele>381</ele>
						<time>2024-10-10T20:15:24Z</time>
					</trkpt>
					<trkpt lat="45.996560" lon="4.616810">
						<ele>382</ele>
						<time>2024-10-10T20:15:26Z</time>
					</trkpt>
					<trkpt lat="45.996540" lon="4.616970">
						<ele>381</ele>
						<time>2024-10-10T20:15:28Z</time>
					</trkpt>
					<trkpt lat="45.996360" lon="4.617610">
						<ele>382</ele>
						<time>2024-10-10T20:15:37Z</time>
					</trkpt>
					<trkpt lat="45.996200" lon="4.617800">
						<ele>384</ele>
						<time>2024-10-10T20:15:41Z</time>
					</trkpt>
					<trkpt lat="45.996050" lon="4.618070">
						<ele>385</ele>
						<time>2024-10-10T20:15:45Z</time>
					</trkpt>
					<trkpt lat="45.995970" lon="4.618270">
						<ele>385</ele>
						<time>2024-10-10T20:15:48Z</time>
					</trkpt>
					<trkpt lat="45.995790" lon="4.618850">
						<ele>383</ele>
						<time>2024-10-10T20:15:56Z</time>
					</trkpt>
					<trkpt lat="45.995580" lon="4.619430">
						<ele>382</ele>
						<time>2024-10-10T20:16:04Z</time>
					</trkpt>
					<trkpt lat="45.995130" lon="4.620500">
						<ele>382</ele>
						<time>2024-10-10T20:16:19Z</time>
					</trkpt>
					<trkpt lat="45.995080" lon="4.620730">
						<ele>381</ele>
						<time>2024-10-10T20:16:22Z</time>
					</trkpt>
					<trkpt lat="45.995080" lon="4.620870">
						<ele>380</ele>
						<time>2024-10-10T20:16:24Z</time>
					</trkpt>
					<trkpt lat="45.995180" lon="4.621270">
						<ele>380</ele>
						<time>2024-10-10T20:16:29Z</time>
					</trkpt>
					<trkpt lat="45.995180" lon="4.621330">
						<ele>380</ele>
						<time>2024-10-10T20:16:30Z</time>
					</trkpt>
					<trkpt lat="45.994560" lon="4.621990">
						<ele>383</ele>
						<time>2024-10-10T20:16:44Z</time>
					</trkpt>
					<trkpt lat="45.994380" lon="4.622320">
						<ele>382</ele>
						<time>2024-10-10T20:16:49Z</time>
					</trkpt>
					<trkpt lat="45.994340" lon="4.622420">
						<ele>382</ele>
						<time>2024-10-10T20:16:50Z</time>
					</trkpt>
					<trkpt lat="45.994260" lon="4.622770">
						<ele>379</ele>
						<time>2024-10-10T20:16:55Z</time>
					</trkpt>
					<trkpt lat="45.994170" lon="4.622990">
						<ele>376</ele>
						<time>2024-10-10T20:16:58Z</time>
					</trkpt>
					<trkpt lat="45.994020" lon="4.623160">
						<ele>374</ele>
						<time>2024-10-10T20:17:01Z</time>
					</trkpt>
					<trkpt lat="45.993830" lon="4.623270">
						<ele>372</ele>
						<time>2024-10-10T20:17:05Z</time>
					</trkpt>
					<trkpt lat="45.993600" lon="4.623490">
						<ele>370</ele>
						<time>2024-10-10T20:17:10Z</time>
					</trkpt>
					<trkpt lat="45.993470" lon="4.623630">
						<ele>369</ele>
						<time>2024-10-10T20:17:13Z</time>
					</trkpt>
					<trkpt lat="45.993420" lon="4.623730">
						<ele>369</ele>
						<time>2024-10-10T20:17:14Z</time>
					</trkpt>
					<trkpt lat="45.993280" lon="4.623730">
						<ele>369</ele>
						<time>2024-10-10T20:17:17Z</time>
					</trkpt>
					<trkpt lat="45.993190" lon="4.623750">
						<ele>369</ele>
						<time>2024-10-10T20:17:18Z</time>
					</trkpt>
					<trkpt lat="45.992870" lon="4.623950">
						<ele>368</ele>
						<time>2024-10-10T20:17:25Z</time>
					</trkpt>
					<trkpt lat="45.992480" lon="4.624280">
						<ele>368</ele>
						<time>2024-10-10T20:17:33Z</time>
					</trkpt>
					<trkpt lat="45.992320" lon="4.624380">
						<ele>369</ele>
						<time>2024-10-10T20:17:36Z</time>
					</trkpt>
					<trkpt lat="45.991950" lon="4.624460">
						<ele>371</ele>
						<time>2024-10-10T20:17:42Z</time>
					</trkpt>
					<trkpt lat="45.991750" lon="4.624620">
						<ele>372</ele>
						<time>2024-10-10T20:17:46Z</time>
					</trkpt>
					<trkpt lat="45.991500" lon="4.625280">
						<ele>372</ele>
						<time>2024-10-10T20:17:56Z</time>
					</trkpt>
					<trkpt lat="45.991430" lon="4.625420">
						<ele>372</ele>
						<time>2024-10-10T20:17:58Z</time>
					</trkpt>
					<trkpt lat="45.991320" lon="4.625540">
						<ele>372</ele>
						<time>2024-10-10T20:18:00Z</time>
					</trkpt>
					<trkpt lat="45.990750" lon="4.625980">
						<ele>371</ele>
						<time>2024-10-10T20:18:12Z</time>
					</trkpt>
					<trkpt lat="45.990470" lon="4.626050">
						<ele>368</ele>
						<time>2024-10-10T20:18:17Z</time>
					</trkpt>
					<trkpt lat="45.990330" lon="4.626030">
						<ele>367</ele>
						<time>2024-10-10T20:18:19Z</time>
					</trkpt>
					<trkpt lat="45.990120" lon="4.625940">
						<ele>365</ele>
						<time>2024-10-10T20:18:23Z</time>
					</trkpt>
					<trkpt lat="45.988790" lon="4.625200">
						<ele>356</ele>
						<time>2024-10-10T20:18:49Z</time>
					</trkpt>
					<trkpt lat="45.988270" lon="4.624930">
						<ele>352</ele>
						<time>2024-10-10T20:18:58Z</time>
					</trkpt>
					<trkpt lat="45.988090" lon="4.624860">
						<ele>352</ele>
						<time>2024-10-10T20:19:02Z</time>
					</trkpt>
					<trkpt lat="45.987630" lon="4.624790">
						<ele>351</ele>
						<time>2024-10-10T20:19:10Z</time>
					</trkpt>
					<trkpt lat="45.987430" lon="4.624780">
						<ele>350</ele>
						<time>2024-10-10T20:19:14Z</time>
					</trkpt>
					<trkpt lat="45.987430" lon="4.624790">
						<ele>350</ele>
						<time>2024-10-10T20:19:14Z</time>
					</trkpt>
					<trkpt lat="45.987230" lon="4.624770">
						<ele>350</ele>
						<time>2024-10-10T20:19:17Z</time>
					</trkpt>
					<trkpt lat="45.986870" lon="4.624810">
						<ele>350</ele>
						<time>2024-10-10T20:19:24Z</time>
					</trkpt>
					<trkpt lat="45.986150" lon="4.624930">
						<ele>350</ele>
						<time>2024-10-10T20:19:37Z</time>
					</trkpt>
					<trkpt lat="45.985040" lon="4.625210">
						<ele>352</ele>
						<time>2024-10-10T20:19:57Z</time>
					</trkpt>
					<trkpt lat="45.984820" lon="4.625260">
						<ele>353</ele>
						<time>2024-10-10T20:20:01Z</time>
					</trkpt>
					<trkpt lat="45.984530" lon="4.625190">
						<ele>357</ele>
						<time>2024-10-10T20:20:06Z</time>
					</trkpt>
					<trkpt lat="45.984430" lon="4.625120">
						<ele>358</ele>
						<time>2024-10-10T20:20:08Z</time>
					</trkpt>
					<trkpt lat="45.984140" lon="4.624830">
						<ele>362</ele>
						<time>2024-10-10T20:20:14Z</time>
					</trkpt>
					<trkpt lat="45.983710" lon="4.624250">
						<ele>363</ele>
						<time>2024-10-10T20:20:25Z</time>
					</trkpt>
					<trkpt lat="45.983590" lon="4.624050">
						<ele>364</ele>
						<time>2024-10-10T20:20:28Z</time>
					</trkpt>
					<trkpt lat="45.983400" lon="4.623760">
						<ele>364</ele>
						<time>2024-10-10T20:20:33Z</time>
					</trkpt>
					<trkpt lat="45.983160" lon="4.623270">
						<ele>362</ele>
						<time>2024-10-10T20:20:40Z</time>
					</trkpt>
					<trkpt lat="45.983090" lon="4.623070">
						<ele>361</ele>
						<time>2024-10-10T20:20:43Z</time>
					</trkpt>
					<trkpt lat="45.983020" lon="4.622620">
						<ele>359</ele>
						<time>2024-10-10T20:20:49Z</time>
					</trkpt>
					<trkpt lat="45.982910" lon="4.621290">
						<ele>356</ele>
						<time>2024-10-10T20:21:05Z</time>
					</trkpt>
					<trkpt lat="45.982890" lon="4.621080">
						<ele>357</ele>
						<time>2024-10-10T20:21:08Z</time>
					</trkpt>
					<trkpt lat="45.982860" lon="4.620930">
						<ele>357</ele>
						<time>2024-10-10T20:21:10Z</time>
					</trkpt>
					<trkpt lat="45.982800" lon="4.620780">
						<ele>357</ele>
						<time>2024-10-10T20:21:12Z</time>
					</trkpt>
					<trkpt lat="45.982710" lon="4.620660">
						<ele>358</ele>
						<time>2024-10-10T20:21:14Z</time>
					</trkpt>
					<trkpt lat="45.982300" lon="4.620330">
						<ele>358</ele>
						<time>2024-10-10T20:21:22Z</time>
					</trkpt>
					<trkpt lat="45.982070" lon="4.620120">
						<ele>358</ele>
						<time>2024-10-10T20:21:27Z</time>
					</trkpt>
					<trkpt lat="45.981980" lon="4.620010">
						<ele>359</ele>
						<time>2024-10-10T20:21:29Z</time>
					</trkpt>
					<trkpt lat="45.980790" lon="4.618190">
						<ele>362</ele>
						<time>2024-10-10T20:22:00Z</time>
					</trkpt>
					<trkpt lat="45.980630" lon="4.617760">
						<ele>361</ele>
						<time>2024-10-10T20:22:06Z</time>
					</trkpt>
					<trkpt lat="45.980580" lon="4.617570">
						<ele>362</ele>
						<time>2024-10-10T20:22:09Z</time>
					</trkpt>
					<trkpt lat="45.980550" lon="4.617320">
						<ele>362</ele>
						<time>2024-10-10T20:22:12Z</time>
					</trkpt>
					<trkpt lat="45.980550" lon="4.617030">
						<ele>362</ele>
						<time>2024-10-10T20:22:16Z</time>
					</trkpt>
					<trkpt lat="45.980560" lon="4.616800">
						<ele>363</ele>
						<time>2024-10-10T20:22:18Z</time>
					</trkpt>
					<trkpt lat="45.980610" lon="4.616490">
						<ele>363</ele>
						<time>2024-10-10T20:22:22Z</time>
					</trkpt>
					<trkpt lat="45.980690" lon="4.616230">
						<ele>362</ele>
						<time>2024-10-10T20:22:26Z</time>
					</trkpt>
					<trkpt lat="45.980810" lon="4.615900">
						<ele>363</ele>
						<time>2024-10-10T20:22:30Z</time>
					</trkpt>
					<trkpt lat="45.980940" lon="4.615590">
						<ele>361</ele>
						<time>2024-10-10T20:22:35Z</time>
					</trkpt>
					<trkpt lat="45.981330" lon="4.614890">
						<ele>361</ele>
						<time>2024-10-10T20:22:46Z</time>
					</trkpt>
					<trkpt lat="45.981520" lon="4.614590">
						<ele>363</ele>
						<time>2024-10-10T20:22:51Z</time>
					</trkpt>
					<trkpt lat="45.981610" lon="4.614490">
						<ele>364</ele>
						<time>2024-10-10T20:22:53Z</time>
					</trkpt>
					<trkpt lat="45.981830" lon="4.614340">
						<ele>366</ele>
						<time>2024-10-10T20:22:57Z</time>
					</trkpt>
					<trkpt lat="45.982210" lon="4.614230">
						<ele>369</ele>
						<time>2024-10-10T20:23:04Z</time>
					</trkpt>
					<trkpt lat="45.982270" lon="4.614190">
						<ele>369</ele>
						<time>2024-10-10T20:23:05Z</time>
					</trkpt>
					<trkpt lat="45.982320" lon="4.614110">
						<ele>369</ele>
						<time>2024-10-10T20:23:07Z</time>
					</trkpt>
					<trkpt lat="45.982400" lon="4.613970">
						<ele>371</ele>
						<time>2024-10-10T20:23:09Z</time>
					</trkpt>
					<trkpt lat="45.982430" lon="4.613820">
						<ele>372</ele>
						<time>2024-10-10T20:23:11Z</time>
					</trkpt>
					<trkpt lat="45.982430" lon="4.613640">
						<ele>372</ele>
						<time>2024-10-10T20:23:13Z</time>
					</trkpt>
					<trkpt lat="45.982410" lon="4.613560">
						<ele>373</ele>
						<time>2024-10-10T20:23:14Z</time>
					</trkpt>
					<trkpt lat="45.982340" lon="4.613450">
						<ele>373</ele>
						<time>2024-10-10T20:23:16Z</time>
					</trkpt>
					<trkpt lat="45.982240" lon="4.613350">
						<ele>372</ele>
						<time>2024-10-10T20:23:18Z</time>
					</trkpt>
					<trkpt lat="45.982150" lon="4.613320">
						<ele>372</ele>
						<time>2024-10-10T20:23:20Z</time>
					</trkpt>
					<trkpt lat="45.980800" lon="4.613000">
						<ele>370</ele>
						<time>2024-10-10T20:23:44Z</time>
					</trkpt>
					<trkpt lat="45.980720" lon="4.612960">
						<ele>370</ele>
						<time>2024-10-10T20:23:46Z</time>
					</trkpt>
					<trkpt lat="45.980670" lon="4.612890">
						<ele>370</ele>
						<time>2024-10-10T20:23:47Z</time>
					</trkpt>
					<trkpt lat="45.980640" lon="4.612800">
						<ele>370</ele>
						<time>2024-10-10T20:23:48Z</time>
					</trkpt>
					<trkpt lat="45.980420" lon="4.610620">
						<ele>380</ele>
						<time>2024-10-10T20:24:15Z</time>
					</trkpt>
					<trkpt lat="45.980400" lon="4.610230">
						<ele>380</ele>
						<time>2024-10-10T20:24:20Z</time>
					</trkpt>
					<trkpt lat="45.980390" lon="4.610130">
						<ele>379</ele>
						<time>2024-10-10T20:24:22Z</time>
					</trkpt>
					<trkpt lat="45.980620" lon="4.608700">
						<ele>373</ele>
						<time>2024-10-10T20:24:40Z</time>
					</trkpt>
					<trkpt lat="45.980640" lon="4.608470">
						<ele>373</ele>
						<time>2024-10-10T20:24:43Z</time>
					</trkpt>
					<trkpt lat="45.980620" lon="4.608380">
						<ele>373</ele>
						<time>2024-10-10T20:24:44Z</time>
					</trkpt>
					<trkpt lat="45.980560" lon="4.608250">
						<ele>372</ele>
						<time>2024-10-10T20:24:46Z</time>
					</trkpt>
					<trkpt lat="45.980370" lon="4.608120">
						<ele>369</ele>
						<time>2024-10-10T20:24:49Z</time>
					</trkpt>
					<trkpt lat="45.980300" lon="4.608050">
						<ele>368</ele>
						<time>2024-10-10T20:24:51Z</time>
					</trkpt>
					<trkpt lat="45.980260" lon="4.607910">
						<ele>367</ele>
						<time>2024-10-10T20:24:53Z</time>
					</trkpt>
					<trkpt lat="45.980270" lon="4.607700">
						<ele>367</ele>
						<time>2024-10-10T20:24:55Z</time>
					</trkpt>
					<trkpt lat="45.980330" lon="4.607570">
						<ele>368</ele>
						<time>2024-10-10T20:24:57Z</time>
					</trkpt>
					<trkpt lat="45.980470" lon="4.607380">
						<ele>368</ele>
						<time>2024-10-10T20:25:01Z</time>
					</trkpt>
					<trkpt lat="45.981050" lon="4.606650">
						<ele>369</ele>
						<time>2024-10-10T20:25:14Z</time>
					</trkpt>
					<trkpt lat="45.981150" lon="4.606540">
						<ele>370</ele>
						<time>2024-10-10T20:25:17Z</time>
					</trkpt>
					<trkpt lat="45.981410" lon="4.606360">
						<ele>375</ele>
						<time>2024-10-10T20:25:22Z</time>
					</trkpt>
					<trkpt lat="45.981480" lon="4.606290">
						<ele>376</ele>
						<time>2024-10-10T20:25:23Z</time>
					</trkpt>
					<trkpt lat="45.981520" lon="4.606230">
						<ele>377</ele>
						<time>2024-10-10T20:25:24Z</time>
					</trkpt>
					<trkpt lat="45.981540" lon="4.606170">
						<ele>377</ele>
						<time>2024-10-10T20:25:25Z</time>
					</trkpt>
					<trkpt lat="45.981540" lon="4.606070">
						<ele>377</ele>
						<time>2024-10-10T20:25:26Z</time>
					</trkpt>
					<trkpt lat="45.981510" lon="4.605930">
						<ele>377</ele>
						<time>2024-10-10T20:25:28Z</time>
					</trkpt>
					<trkpt lat="45.981470" lon="4.605860">
						<ele>376</ele>
						<time>2024-10-10T20:25:29Z</time>
					</trkpt>
					<trkpt lat="45.981100" lon="4.605600">
						<ele>373</ele>
						<time>2024-10-10T20:25:37Z</time>
					</trkpt>
					<trkpt lat="45.980430" lon="4.604710">
						<ele>373</ele>
						<time>2024-10-10T20:25:53Z</time>
					</trkpt>
					<trkpt lat="45.980390" lon="4.604610">
						<ele>373</ele>
						<time>2024-10-10T20:25:54Z</time>
					</trkpt>
					<trkpt lat="45.980360" lon="4.604490">
						<ele>373</ele>
						<time>2024-10-10T20:25:56Z</time>
					</trkpt>
					<trkpt lat="45.980350" lon="4.604390">
						<ele>373</ele>
						<time>2024-10-10T20:25:57Z</time>
					</trkpt>
					<trkpt lat="45.980340" lon="4.604170">
						<ele>375</ele>
						<time>2024-10-10T20:26:00Z</time>
					</trkpt>
					<trkpt lat="45.980410" lon="4.603290">
						<ele>372</ele>
						<time>2024-10-10T20:26:11Z</time>
					</trkpt>
					<trkpt lat="45.980680" lon="4.601740">
						<ele>369</ele>
						<time>2024-10-10T20:26:31Z</time>
					</trkpt>
					<trkpt lat="45.981110" lon="4.599890">
						<ele>373</ele>
						<time>2024-10-10T20:26:55Z</time>
					</trkpt>
					<trkpt lat="45.981510" lon="4.598690">
						<ele>379</ele>
						<time>2024-10-10T20:27:11Z</time>
					</trkpt>
					<trkpt lat="45.981510" lon="4.598470">
						<ele>377</ele>
						<time>2024-10-10T20:27:14Z</time>
					</trkpt>
					<trkpt lat="45.981500" lon="4.598390">
						<ele>376</ele>
						<time>2024-10-10T20:27:15Z</time>
					</trkpt>
					<trkpt lat="45.981470" lon="4.598330">
						<ele>376</ele>
						<time>2024-10-10T20:27:16Z</time>
					</trkpt>
					<trkpt lat="45.981440" lon="4.598280">
						<ele>377</ele>
						<time>2024-10-10T20:27:17Z</time>
					</trkpt>
					<trkpt lat="45.981370" lon="4.598180">
						<ele>378</ele>
						<time>2024-10-10T20:27:18Z</time>
					</trkpt>
					<trkpt lat="45.981240" lon="4.598180">
						<ele>379</ele>
						<time>2024-10-10T20:27:21Z</time>
					</trkpt>
					<trkpt lat="45.981110" lon="4.598260">
						<ele>379</ele>
						<time>2024-10-10T20:27:23Z</time>
					</trkpt>
					<trkpt lat="45.980890" lon="4.598540">
						<ele>378</ele>
						<time>2024-10-10T20:27:28Z</time>
					</trkpt>
					<trkpt lat="45.980260" lon="4.599560">
						<ele>373</ele>
						<time>2024-10-10T20:27:45Z</time>
					</trkpt>
					<trkpt lat="45.980120" lon="4.599630">
						<ele>373</ele>
						<time>2024-10-10T20:27:48Z</time>
					</trkpt>
					<trkpt lat="45.979730" lon="4.599640">
						<ele>380</ele>
						<time>2024-10-10T20:27:55Z</time>
					</trkpt>
					<trkpt lat="45.979610" lon="4.599670">
						<ele>383</ele>
						<time>2024-10-10T20:27:57Z</time>
					</trkpt>
					<trkpt lat="45.979530" lon="4.599730">
						<ele>384</ele>
						<time>2024-10-10T20:27:59Z</time>
					</trkpt>
					<trkpt lat="45.979470" lon="4.599930">
						<ele>383</ele>
						<time>2024-10-10T20:28:01Z</time>
					</trkpt>
					<trkpt lat="45.979400" lon="4.600330">
						<ele>381</ele>
						<time>2024-10-10T20:28:06Z</time>
					</trkpt>
					<trkpt lat="45.979290" lon="4.600690">
						<ele>381</ele>
						<time>2024-10-10T20:28:11Z</time>
					</trkpt>
					<trkpt lat="45.979120" lon="4.601010">
						<ele>381</ele>
						<time>2024-10-10T20:28:16Z</time>
					</trkpt>
					<trkpt lat="45.978930" lon="4.601320">
						<ele>384</ele>
						<time>2024-10-10T20:28:21Z</time>
					</trkpt>
					<trkpt lat="45.978540" lon="4.601870">
						<ele>389</ele>
						<time>2024-10-10T20:28:31Z</time>
					</trkpt>
					<trkpt lat="45.978450" lon="4.602020">
						<ele>390</ele>
						<time>2024-10-10T20:28:34Z</time>
					</trkpt>
					<trkpt lat="45.978370" lon="4.602200">
						<ele>391</ele>
						<time>2024-10-10T20:28:36Z</time>
					</trkpt>
					<trkpt lat="45.978100" lon="4.603060">
						<ele>389</ele>
						<time>2024-10-10T20:28:48Z</time>
					</trkpt>
					<trkpt lat="45.977780" lon="4.603810">
						<ele>390</ele>
						<time>2024-10-10T20:28:59Z</time>
					</trkpt>
					<trkpt lat="45.977380" lon="4.604680">
						<ele>390</ele>
						<time>2024-10-10T20:29:12Z</time>
					</trkpt>
					<trkpt lat="45.977160" lon="4.605130">
						<ele>390</ele>
						<time>2024-10-10T20:29:18Z</time>
					</trkpt>
					<trkpt lat="45.976540" lon="4.606220">
						<ele>392</ele>
						<time>2024-10-10T20:29:36Z</time>
					</trkpt>
					<trkpt lat="45.976400" lon="4.606410">
						<ele>391</ele>
						<time>2024-10-10T20:29:39Z</time>
					</trkpt>
					<trkpt lat="45.976190" lon="4.606630">
						<ele>392</ele>
						<time>2024-10-10T20:29:44Z</time>
					</trkpt>
					<trkpt lat="45.976040" lon="4.606750">
						<ele>393</ele>
						<time>2024-10-10T20:29:47Z</time>
					</trkpt>
					<trkpt lat="45.975790" lon="4.606910">
						<ele>395</ele>
						<time>2024-10-10T20:29:52Z</time>
					</trkpt>
					<trkpt lat="45.975590" lon="4.606990">
						<ele>396</ele>
						<time>2024-10-10T20:29:56Z</time>
					</trkpt>
					<trkpt lat="45.975390" lon="4.607040">
						<ele>397</ele>
						<time>2024-10-10T20:29:59Z</time>
					</trkpt>
					<trkpt lat="45.975160" lon="4.607080">
						<ele>398</ele>
						<time>2024-10-10T20:30:03Z</time>
					</trkpt>
					<trkpt lat="45.975070" lon="4.607010">
						<ele>400</ele>
						<time>2024-10-10T20:30:05Z</time>
					</trkpt>
					<trkpt lat="45.975020" lon="4.606950">
						<ele>400</ele>
						<time>2024-10-10T20:30:06Z</time>
					</trkpt>
					<trkpt lat="45.974890" lon="4.607250">
						<ele>401</ele>
						<time>2024-10-10T20:30:11Z</time>
					</trkpt>
					<trkpt lat="45.974800" lon="4.607550">
						<ele>401</ele>
						<time>2024-10-10T20:30:15Z</time>
					</trkpt>
					<trkpt lat="45.974750" lon="4.607770">
						<ele>402</ele>
						<time>2024-10-10T20:30:18Z</time>
					</trkpt>
					<trkpt lat="45.974630" lon="4.608570">
						<ele>402</ele>
						<time>2024-10-10T20:30:28Z</time>
					</trkpt>
					<trkpt lat="45.974560" lon="4.608680">
						<ele>403</ele>
						<time>2024-10-10T20:30:30Z</time>
					</trkpt>
					<trkpt lat="45.974410" lon="4.609310">
						<ele>403</ele>
						<time>2024-10-10T20:30:38Z</time>
					</trkpt>
					<trkpt lat="45.974350" lon="4.609490">
						<ele>404</ele>
						<time>2024-10-10T20:30:40Z</time>
					</trkpt>
					<trkpt lat="45.974120" lon="4.610000">
						<ele>407</ele>
						<time>2024-10-10T20:30:48Z</time>
					</trkpt>
					<trkpt lat="45.973770" lon="4.610700">
						<ele>405</ele>
						<time>2024-10-10T20:30:58Z</time>
					</trkpt>
					<trkpt lat="45.973450" lon="4.611350">
						<ele>406</ele>
						<time>2024-10-10T20:31:08Z</time>
					</trkpt>
					<trkpt lat="45.973310" lon="4.611590">
						<ele>406</ele>
						<time>2024-10-10T20:31:12Z</time>
					</trkpt>
					<trkpt lat="45.973240" lon="4.611690">
						<ele>405</ele>
						<time>2024-10-10T20:31:14Z</time>
					</trkpt>
					<trkpt lat="45.973150" lon="4.611760">
						<ele>405</ele>
						<time>2024-10-10T20:31:16Z</time>
					</trkpt>
					<trkpt lat="45.972920" lon="4.611770">
						<ele>404</ele>
						<time>2024-10-10T20:31:20Z</time>
					</trkpt>
					<trkpt lat="45.972730" lon="4.611790">
						<ele>404</ele>
						<time>2024-10-10T20:31:23Z</time>
					</trkpt>
					<trkpt lat="45.972720" lon="4.611870">
						<ele>404</ele>
						<time>2024-10-10T20:31:24Z</time>
					</trkpt>
					<trkpt lat="45.972770" lon="4.612350">
						<ele>403</ele>
						<time>2024-10-10T20:31:30Z</time>
					</trkpt>
					<trkpt lat="45.972770" lon="4.612700">
						<ele>403</ele>
						<time>2024-10-10T20:31:35Z</time>
					</trkpt>
					<trkpt lat="45.972600" lon="4.614660">
						<ele>408</ele>
						<time>2024-10-10T20:31:59Z</time>
					</trkpt>
					<trkpt lat="45.972550" lon="4.614910">
						<ele>409</ele>
						<time>2024-10-10T20:32:02Z</time>
					</trkpt>
					<trkpt lat="45.972460" lon="4.615190">
						<ele>409</ele>
						<time>2024-10-10T20:32:06Z</time>
					</trkpt>
					<trkpt lat="45.972350" lon="4.615460">
						<ele>407</ele>
						<time>2024-10-10T20:32:10Z</time>
					</trkpt>
					<trkpt lat="45.972290" lon="4.615560">
						<ele>407</ele>
						<time>2024-10-10T20:32:11Z</time>
					</trkpt>
					<trkpt lat="45.972180" lon="4.615690">
						<ele>405</ele>
						<time>2024-10-10T20:32:14Z</time>
					</trkpt>
					<trkpt lat="45.971900" lon="4.615970">
						<ele>402</ele>
						<time>2024-10-10T20:32:20Z</time>
					</trkpt>
					<trkpt lat="45.971840" lon="4.616070">
						<ele>402</ele>
						<time>2024-10-10T20:32:22Z</time>
					</trkpt>
					<trkpt lat="45.971830" lon="4.616130">
						<ele>401</ele>
						<time>2024-10-10T20:32:22Z</time>
					</trkpt>
					<trkpt lat="45.971770" lon="4.616480">
						<ele>401</ele>
						<time>2024-10-10T20:32:27Z</time>
					</trkpt>
					<trkpt lat="45.971670" lon="4.617730">
						<ele>397</ele>
						<time>2024-10-10T20:32:42Z</time>
					</trkpt>
					<trkpt lat="45.971570" lon="4.618510">
						<ele>395</ele>
						<time>2024-10-10T20:32:52Z</time>
					</trkpt>
					<trkpt lat="45.971560" lon="4.618770">
						<ele>395</ele>
						<time>2024-10-10T20:32:56Z</time>
					</trkpt>
					<trkpt lat="45.971580" lon="4.619170">
						<ele>395</ele>
						<time>2024-10-10T20:33:00Z</time>
					</trkpt>
					<trkpt lat="45.971590" lon="4.619590">
						<ele>395</ele>
						<time>2024-10-10T20:33:06Z</time>
					</trkpt>
					<trkpt lat="45.971580" lon="4.619710">
						<ele>395</ele>
						<time>2024-10-10T20:33:07Z</time>
					</trkpt>
					<trkpt lat="45.971570" lon="4.619990">
						<ele>395</ele>
						<time>2024-10-10T20:33:11Z</time>
					</trkpt>
					<trkpt lat="45.971620" lon="4.620470">
						<ele>394</ele>
						<time>2024-10-10T20:33:17Z</time>
					</trkpt>
					<trkpt lat="45.971710" lon="4.621110">
						<ele>393</ele>
						<time>2024-10-10T20:33:25Z</time>
					</trkpt>
					<trkpt lat="45.971770" lon="4.621290">
						<ele>393</ele>
						<time>2024-10-10T20:33:27Z</time>
					</trkpt>
					<trkpt lat="45.971830" lon="4.621400">
						<ele>393</ele>
						<time>2024-10-10T20:33:29Z</time>
					</trkpt>
					<trkpt lat="45.972120" lon="4.621840">
						<ele>392</ele>
						<time>2024-10-10T20:33:36Z</time>
					</trkpt>
					<trkpt lat="45.972160" lon="4.621960">
						<ele>391</ele>
						<time>2024-10-10T20:33:38Z</time>
					</trkpt>
					<trkpt lat="45.972200" lon="4.622240">
						<ele>391</ele>
						<time>2024-10-10T20:33:42Z</time>
					</trkpt>
					<trkpt lat="45.972210" lon="4.622340">
						<ele>390</ele>
						<time>2024-10-10T20:33:43Z</time>
					</trkpt>
					<trkpt lat="45.971900" lon="4.623000">
						<ele>389</ele>
						<time>2024-10-10T20:33:53Z</time>
					</trkpt>
					<trkpt lat="45.971860" lon="4.623080">
						<ele>389</ele>
						<time>2024-10-10T20:33:54Z</time>
					</trkpt>
					<trkpt lat="45.971820" lon="4.623350">
						<ele>388</ele>
						<time>2024-10-10T20:33:57Z</time>
					</trkpt>
					<trkpt lat="45.971890" lon="4.623990">
						<ele>384</ele>
						<time>2024-10-10T20:34:05Z</time>
					</trkpt>
					<trkpt lat="45.971890" lon="4.624160">
						<ele>383</ele>
						<time>2024-10-10T20:34:07Z</time>
					</trkpt>
					<trkpt lat="45.971870" lon="4.624290">
						<ele>381</ele>
						<time>2024-10-10T20:34:09Z</time>
					</trkpt>
					<trkpt lat="45.971820" lon="4.624470">
						<ele>380</ele>
						<time>2024-10-10T20:34:11Z</time>
					</trkpt>
					<trkpt lat="45.971810" lon="4.624510">
						<ele>379</ele>
						<time>2024-10-10T20:34:12Z</time>
					</trkpt>
					<trkpt lat="45.971650" lon="4.624760">
						<ele>377</ele>
						<time>2024-10-10T20:34:16Z</time>
					</trkpt>
					<trkpt lat="45.971450" lon="4.625040">
						<ele>373</ele>
						<time>2024-10-10T20:34:21Z</time>
					</trkpt>
					<trkpt lat="45.971210" lon="4.625310">
						<ele>371</ele>
						<time>2024-10-10T20:34:27Z</time>
					</trkpt>
					<trkpt lat="45.970690" lon="4.625870">
						<ele>366</ele>
						<time>2024-10-10T20:34:38Z</time>
					</trkpt>
					<trkpt lat="45.970370" lon="4.626290">
						<ele>363</ele>
						<time>2024-10-10T20:34:46Z</time>
					</trkpt>
					<trkpt lat="45.970190" lon="4.626600">
						<ele>360</ele>
						<time>2024-10-10T20:34:51Z</time>
					</trkpt>
					<trkpt lat="45.970040" lon="4.626930">
						<ele>357</ele>
						<time>2024-10-10T20:34:56Z</time>
					</trkpt>
					<trkpt lat="45.969520" lon="4.627730">
						<ele>352</ele>
						<time>2024-10-10T20:35:09Z</time>
					</trkpt>
					<trkpt lat="45.969370" lon="4.627920">
						<ele>350</ele>
						<time>2024-10-10T20:35:13Z</time>
					</trkpt>
					<trkpt lat="45.969000" lon="4.628280">
						<ele>349</ele>
						<time>2024-10-10T20:35:21Z</time>
					</trkpt>
					<trkpt lat="45.968800" lon="4.628540">
						<ele>348</ele>
						<time>2024-10-10T20:35:26Z</time>
					</trkpt>
					<trkpt lat="45.968670" lon="4.628740">
						<ele>348</ele>
						<time>2024-10-10T20:35:29Z</time>
					</trkpt>
					<trkpt lat="45.967660" lon="4.628380">
						<ele>349</ele>
						<time>2024-10-10T20:35:47Z</time>
					</trkpt>
					<trkpt lat="45.967550" lon="4.628300">
						<ele>349</ele>
						<time>2024-10-10T20:35:50Z</time>
					</trkpt>
					<trkpt lat="45.967390" lon="4.629680">
						<ele>347</ele>
						<time>2024-10-10T20:36:07Z</time>
					</trkpt>
					<trkpt lat="45.967330" lon="4.630360">
						<ele>345</ele>
						<time>2024-10-10T20:36:15Z</time>
					</trkpt>
					<trkpt lat="45.967260" lon="4.630630">
						<ele>343</ele>
						<time>2024-10-10T20:36:19Z</time>
					</trkpt>
					<trkpt lat="45.966940" lon="4.631520">
						<ele>338</ele>
						<time>2024-10-10T20:36:31Z</time>
					</trkpt>
					<trkpt lat="45.966840" lon="4.631730">
						<ele>337</ele>
						<time>2024-10-10T20:36:35Z</time>
					</trkpt>
					<trkpt lat="45.966460" lon="4.632430">
						<ele>333</ele>
						<time>2024-10-10T20:36:46Z</time>
					</trkpt>
					<trkpt lat="45.966000" lon="4.633640">
						<ele>328</ele>
						<time>2024-10-10T20:37:03Z</time>
					</trkpt>
					<trkpt lat="45.965880" lon="4.634070">
						<ele>326</ele>
						<time>2024-10-10T20:37:08Z</time>
					</trkpt>
					<trkpt lat="45.965820" lon="4.634310">
						<ele>325</ele>
						<time>2024-10-10T20:37:11Z</time>
					</trkpt>
					<trkpt lat="45.965680" lon="4.634720">
						<ele>322</ele>
						<time>2024-10-10T20:37:17Z</time>
					</trkpt>
					<trkpt lat="45.965490" lon="4.635110">
						<ele>321</ele>
						<time>2024-10-10T20:37:23Z</time>
					</trkpt>
					<trkpt lat="45.965360" lon="4.635400">
						<ele>321</ele>
						<time>2024-10-10T20:37:27Z</time>
					</trkpt>
					<trkpt lat="45.965260" lon="4.635690">
						<ele>321</ele>
						<time>2024-10-10T20:37:31Z</time>
					</trkpt>
					<trkpt lat="45.965150" lon="4.636270">
						<ele>318</ele>
						<time>2024-10-10T20:37:39Z</time>
					</trkpt>
					<trkpt lat="45.964940" lon="4.635960">
						<ele>320</ele>
						<time>2024-10-10T20:37:44Z</time>
					</trkpt>
					<trkpt lat="45.964790" lon="4.635660">
						<ele>318</ele>
						<time>2024-10-10T20:37:49Z</time>
					</trkpt>
					<trkpt lat="45.964640" lon="4.635120">
						<ele>316</ele>
						<time>2024-10-10T20:37:56Z</time>
					</trkpt>
					<trkpt lat="45.964590" lon="4.634820">
						<ele>315</ele>
						<time>2024-10-10T20:38:00Z</time>
					</trkpt>
					<trkpt lat="45.964540" lon="4.634310">
						<ele>313</ele>
						<time>2024-10-10T20:38:06Z</time>
					</trkpt>
					<trkpt lat="45.964530" lon="4.633930">
						<ele>311</ele>
						<time>2024-10-10T20:38:11Z</time>
					</trkpt>
					<trkpt lat="45.964570" lon="4.633430">
						<ele>310</ele>
						<time>2024-10-10T20:38:17Z</time>
					</trkpt>
					<trkpt lat="45.964610" lon="4.633210">
						<ele>310</ele>
						<time>2024-10-10T20:38:20Z</time>
					</trkpt>
					<trkpt lat="45.964830" lon="4.632340">
						<ele>312</ele>
						<time>2024-10-10T20:38:31Z</time>
					</trkpt>
					<trkpt lat="45.964860" lon="4.632080">
						<ele>312</ele>
						<time>2024-10-10T20:38:34Z</time>
					</trkpt>
					<trkpt lat="45.964810" lon="4.631490">
						<ele>309</ele>
						<time>2024-10-10T20:38:42Z</time>
					</trkpt>
					<trkpt lat="45.964790" lon="4.631050">
						<ele>308</ele>
						<time>2024-10-10T20:38:47Z</time>
					</trkpt>
					<trkpt lat="45.964810" lon="4.630890">
						<ele>308</ele>
						<time>2024-10-10T20:38:49Z</time>
					</trkpt>
					<trkpt lat="45.964890" lon="4.630590">
						<ele>308</ele>
						<time>2024-10-10T20:38:53Z</time>
					</trkpt>
					<trkpt lat="45.965050" lon="4.629910">
						<ele>308</ele>
						<time>2024-10-10T20:39:02Z</time>
					</trkpt>
					<trkpt lat="45.965090" lon="4.629630">
						<ele>308</ele>
						<time>2024-10-10T20:39:06Z</time>
					</trkpt>
					<trkpt lat="45.965120" lon="4.629370">
						<ele>308</ele>
						<time>2024-10-10T20:39:09Z</time>
					</trkpt>
					<trkpt lat="45.965160" lon="4.628420">
						<ele>305</ele>
						<time>2024-10-10T20:39:21Z</time>
					</trkpt>
					<trkpt lat="45.965150" lon="4.628260">
						<ele>304</ele>
						<time>2024-10-10T20:39:23Z</time>
					</trkpt>
					<trkpt lat="45.965100" lon="4.628090">
						<ele>303</ele>
						<time>2024-10-10T20:39:25Z</time>
					</trkpt>
					<trkpt lat="45.965040" lon="4.627950">
						<ele>302</ele>
						<time>2024-10-10T20:39:27Z</time>
					</trkpt>
					<trkpt lat="45.964870" lon="4.627660">
						<ele>303</ele>
						<time>2024-10-10T20:39:32Z</time>
					</trkpt>
					<trkpt lat="45.964800" lon="4.627570">
						<ele>304</ele>
						<time>2024-10-10T20:39:33Z</time>
					</trkpt>
					<trkpt lat="45.964640" lon="4.627330">
						<ele>308</ele>
						<time>2024-10-10T20:39:37Z</time>
					</trkpt>
					<trkpt lat="45.964950" lon="4.626770">
						<ele>307</ele>
						<time>2024-10-10T20:39:46Z</time>
					</trkpt>
					<trkpt lat="45.965070" lon="4.626570">
						<ele>308</ele>
						<time>2024-10-10T20:39:50Z</time>
					</trkpt>
					<trkpt lat="45.965100" lon="4.626510">
						<ele>309</ele>
						<time>2024-10-10T20:39:51Z</time>
					</trkpt>
					<trkpt lat="45.965220" lon="4.626290">
						<ele>311</ele>
						<time>2024-10-10T20:39:54Z</time>
					</trkpt>
					<trkpt lat="45.965420" lon="4.625910">
						<ele>314</ele>
						<time>2024-10-10T20:40:00Z</time>
					</trkpt>
					<trkpt lat="45.965570" lon="4.625530">
						<ele>314</ele>
						<time>2024-10-10T20:40:05Z</time>
					</trkpt>
					<trkpt lat="45.965690" lon="4.625100">
						<ele>312</ele>
						<time>2024-10-10T20:40:11Z</time>
					</trkpt>
					<trkpt lat="45.965910" lon="4.623920">
						<ele>317</ele>
						<time>2024-10-10T20:40:26Z</time>
					</trkpt>
					<trkpt lat="45.965970" lon="4.623680">
						<ele>320</ele>
						<time>2024-10-10T20:40:29Z</time>
					</trkpt>
					<trkpt lat="45.966280" lon="4.622900">
						<ele>323</ele>
						<time>2024-10-10T20:40:40Z</time>
					</trkpt>
					<trkpt lat="45.966440" lon="4.622380">
						<ele>322</ele>
						<time>2024-10-10T20:40:47Z</time>
					</trkpt>
					<trkpt lat="45.966510" lon="4.621930">
						<ele>322</ele>
						<time>2024-10-10T20:40:53Z</time>
					</trkpt>
					<trkpt lat="45.966560" lon="4.621430">
						<ele>322</ele>
						<time>2024-10-10T20:40:59Z</time>
					</trkpt>
					<trkpt lat="45.966570" lon="4.621120">
						<ele>324</ele>
						<time>2024-10-10T20:41:03Z</time>
					</trkpt>
					<trkpt lat="45.966550" lon="4.620810">
						<ele>326</ele>
						<time>2024-10-10T20:41:07Z</time>
					</trkpt>
					<trkpt lat="45.966450" lon="4.620160">
						<ele>334</ele>
						<time>2024-10-10T20:41:15Z</time>
					</trkpt>
					<trkpt lat="45.966220" lon="4.618940">
						<ele>340</ele>
						<time>2024-10-10T20:41:31Z</time>
					</trkpt>
					<trkpt lat="45.966080" lon="4.618380">
						<ele>340</ele>
						<time>2024-10-10T20:41:38Z</time>
					</trkpt>
					<trkpt lat="45.965910" lon="4.617660">
						<ele>341</ele>
						<time>2024-10-10T20:41:48Z</time>
					</trkpt>
					<trkpt lat="45.965810" lon="4.617370">
						<ele>341</ele>
						<time>2024-10-10T20:41:52Z</time>
					</trkpt>
					<trkpt lat="45.965680" lon="4.617100">
						<ele>344</ele>
						<time>2024-10-10T20:41:56Z</time>
					</trkpt>
					<trkpt lat="45.965440" lon="4.616700">
						<ele>347</ele>
						<time>2024-10-10T20:42:02Z</time>
					</trkpt>
					<trkpt lat="45.964830" lon="4.615820">
						<ele>354</ele>
						<time>2024-10-10T20:42:18Z</time>
					</trkpt>
					<trkpt lat="45.964380" lon="4.615130">
						<ele>362</ele>
						<time>2024-10-10T20:42:29Z</time>
					</trkpt>
					<trkpt lat="45.964040" lon="4.614370">
						<ele>367</ele>
						<time>2024-10-10T20:42:41Z</time>
					</trkpt>
					<trkpt lat="45.963920" lon="4.614110">
						<ele>371</ele>
						<time>2024-10-10T20:42:44Z</time>
					</trkpt>
					<trkpt lat="45.963270" lon="4.612420">
						<ele>380</ele>
						<time>2024-10-10T20:43:08Z</time>
					</trkpt>
					<trkpt lat="45.963110" lon="4.611890">
						<ele>382</ele>
						<time>2024-10-10T20:43:15Z</time>
					</trkpt>
					<trkpt lat="45.963000" lon="4.611270">
						<ele>385</ele>
						<time>2024-10-10T20:43:23Z</time>
					</trkpt>
					<trkpt lat="45.962960" lon="4.610800">
						<ele>387</ele>
						<time>2024-10-10T20:43:29Z</time>
					</trkpt>
					<trkpt lat="45.962840" lon="4.608000">
						<ele>400</ele>
						<time>2024-10-10T20:44:04Z</time>
					</trkpt>
					<trkpt lat="45.962760" lon="4.606990">
						<ele>405</ele>
						<time>2024-10-10T20:44:16Z</time>
					</trkpt>
					<trkpt lat="45.962680" lon="4.606630">
						<ele>407</ele>
						<time>2024-10-10T20:44:21Z</time>
					</trkpt>
					<trkpt lat="45.962580" lon="4.606400">
						<ele>408</ele>
						<time>2024-10-10T20:44:25Z</time>
					</trkpt>
					<trkpt lat="45.962530" lon="4.606310">
						<ele>409</ele>
						<time>2024-10-10T20:44:26Z</time>
					</trkpt>
					<trkpt lat="45.962300" lon="4.606050">
						<ele>411</ele>
						<time>2024-10-10T20:44:31Z</time>
					</trkpt>
					<trkpt lat="45.962070" lon="4.605910">
						<ele>412</ele>
						<time>2024-10-10T20:44:36Z</time>
					</trkpt>
					<trkpt lat="45.961980" lon="4.605890">
						<ele>413</ele>
						<time>2024-10-10T20:44:37Z</time>
					</trkpt>
					<trkpt lat="45.961930" lon="4.605880">
						<ele>413</ele>
						<time>2024-10-10T20:44:38Z</time>
					</trkpt>
					<trkpt lat="45.961770" lon="4.605910">
						<ele>414</ele>
						<time>2024-10-10T20:44:41Z</time>
					</trkpt>
					<trkpt lat="45.961690" lon="4.605970">
						<ele>415</ele>
						<time>2024-10-10T20:44:43Z</time>
					</trkpt>
					<trkpt lat="45.961660" lon="4.605990">
						<ele>415</ele>
						<time>2024-10-10T20:44:43Z</time>
					</trkpt>
					<trkpt lat="45.961590" lon="4.606090">
						<ele>417</ele>
						<time>2024-10-10T20:44:45Z</time>
					</trkpt>
					<trkpt lat="45.961510" lon="4.606300">
						<ele>418</ele>
						<time>2024-10-10T20:44:48Z</time>
					</trkpt>
					<trkpt lat="45.961420" lon="4.606540">
						<ele>418</ele>
						<time>2024-10-10T20:44:51Z</time>
					</trkpt>
					<trkpt lat="45.961310" lon="4.606750">
						<ele>419</ele>
						<time>2024-10-10T20:44:55Z</time>
					</trkpt>
					<trkpt lat="45.961290" lon="4.606750">
						<ele>419</ele>
						<time>2024-10-10T20:44:55Z</time>
					</trkpt>
					<trkpt lat="45.961350" lon="4.607070">
						<ele>418</ele>
						<time>2024-10-10T20:44:59Z</time>
					</trkpt>
					<trkpt lat="45.961720" lon="4.609070">
						<ele>414</ele>
						<time>2024-10-10T20:45:25Z</time>
					</trkpt>
					<trkpt lat="45.961130" lon="4.609090">
						<ele>418</ele>
						<time>2024-10-10T20:45:35Z</time>
					</trkpt>
					<trkpt lat="45.960970" lon="4.609070">
						<ele>419</ele>
						<time>2024-10-10T20:45:38Z</time>
					</trkpt>
					<trkpt lat="45.960020" lon="4.608890">
						<ele>427</ele>
						<time>2024-10-10T20:45:55Z</time>
					</trkpt>
					<trkpt lat="45.959760" lon="4.608930">
						<ele>428</ele>
						<time>2024-10-10T20:46:00Z</time>
					</trkpt>
					<trkpt lat="45.959300" lon="4.609140">
						<ele>427</ele>
						<time>2024-10-10T20:46:08Z</time>
					</trkpt>
					<trkpt lat="45.958480" lon="4.609280">
						<ele>419</ele>
						<time>2024-10-10T20:46:23Z</time>
					</trkpt>
					<trkpt lat="45.957680" lon="4.609260">
						<ele>417</ele>
						<time>2024-10-10T20:46:37Z</time>
					</trkpt>
					<trkpt lat="45.957480" lon="4.609210">
						<ele>417</ele>
						<time>2024-10-10T20:46:41Z</time>
					</trkpt>
					<trkpt lat="45.956810" lon="4.609000">
						<ele>417</ele>
						<time>2024-10-10T20:46:53Z</time>
					</trkpt>
					<trkpt lat="45.956340" lon="4.608970">
						<ele>418</ele>
						<time>2024-10-10T20:47:01Z</time>
					</trkpt>
					<trkpt lat="45.956150" lon="4.609030">
						<ele>419</ele>
						<time>2024-10-10T20:47:05Z</time>
					</trkpt>
					<trkpt lat="45.956080" lon="4.609110">
						<ele>419</ele>
						<time>2024-10-10T20:47:06Z</time>
					</trkpt>
					<trkpt lat="45.956030" lon="4.609190">
						<ele>419</ele>
						<time>2024-10-10T20:47:08Z</time>
					</trkpt>
					<trkpt lat="45.956030" lon="4.609200">
						<ele>419</ele>
						<time>2024-10-10T20:47:08Z</time>
					</trkpt>
					<trkpt lat="45.955950" lon="4.609780">
						<ele>416</ele>
						<time>2024-10-10T20:47:15Z</time>
					</trkpt>
					<trkpt lat="45.955930" lon="4.609930">
						<ele>416</ele>
						<time>2024-10-10T20:47:17Z</time>
					</trkpt>
					<trkpt lat="45.955890" lon="4.610060">
						<ele>416</ele>
						<time>2024-10-10T20:47:19Z</time>
					</trkpt>
					<trkpt lat="45.955840" lon="4.610150">
						<ele>416</ele>
						<time>2024-10-10T20:47:20Z</time>
					</trkpt>
					<trkpt lat="45.955530" lon="4.610420">
						<ele>420</ele>
						<time>2024-10-10T20:47:27Z</time>
					</trkpt>
					<trkpt lat="45.955420" lon="4.610570">
						<ele>421</ele>
						<time>2024-10-10T20:47:29Z</time>
					</trkpt>
					<trkpt lat="45.955210" lon="4.611300">
						<ele>423</ele>
						<time>2024-10-10T20:47:39Z</time>
					</trkpt>
					<trkpt lat="45.955170" lon="4.612590">
						<ele>427</ele>
						<time>2024-10-10T20:47:55Z</time>
					</trkpt>
					<trkpt lat="45.955570" lon="4.613520">
						<ele>426</ele>
						<time>2024-10-10T20:48:09Z</time>
					</trkpt>
					<trkpt lat="45.955620" lon="4.613770">
						<ele>426</ele>
						<time>2024-10-10T20:48:12Z</time>
					</trkpt>
					<trkpt lat="45.955660" lon="4.614340">
						<ele>428</ele>
						<time>2024-10-10T20:48:19Z</time>
					</trkpt>
					<trkpt lat="45.955660" lon="4.614960">
						<ele>426</ele>
						<time>2024-10-10T20:48:27Z</time>
					</trkpt>
					<trkpt lat="45.955630" lon="4.615430">
						<ele>424</ele>
						<time>2024-10-10T20:48:32Z</time>
					</trkpt>
					<trkpt lat="45.955570" lon="4.615750">
						<ele>422</ele>
						<time>2024-10-10T20:48:37Z</time>
					</trkpt>
					<trkpt lat="45.955300" lon="4.616390">
						<ele>421</ele>
						<time>2024-10-10T20:48:46Z</time>
					</trkpt>
					<trkpt lat="45.955150" lon="4.616630">
						<ele>421</ele>
						<time>2024-10-10T20:48:50Z</time>
					</trkpt>
					<trkpt lat="45.955040" lon="4.616760">
						<ele>420</ele>
						<time>2024-10-10T20:48:52Z</time>
					</trkpt>
					<trkpt lat="45.954850" lon="4.616930">
						<ele>418</ele>
						<time>2024-10-10T20:48:56Z</time>
					</trkpt>
					<trkpt lat="45.954730" lon="4.616980">
						<ele>417</ele>
						<time>2024-10-10T20:48:59Z</time>
					</trkpt>
					<trkpt lat="45.954600" lon="4.617000">
						<ele>416</ele>
						<time>2024-10-10T20:49:01Z</time>
					</trkpt>
					<trkpt lat="45.953820" lon="4.616920">
						<ele>417</ele>
						<time>2024-10-10T20:49:15Z</time>
					</trkpt>
					<trkpt lat="45.953530" lon="4.616930">
						<ele>417</ele>
						<time>2024-10-10T20:49:20Z</time>
					</trkpt>
					<trkpt lat="45.953220" lon="4.616990">
						<ele>417</ele>
						<time>2024-10-10T20:49:25Z</time>
					</trkpt>
					<trkpt lat="45.953020" lon="4.617070">
						<ele>417</ele>
						<time>2024-10-10T20:49:29Z</time>
					</trkpt>
					<trkpt lat="45.952890" lon="4.617160">
						<ele>417</ele>
						<time>2024-10-10T20:49:32Z</time>
					</trkpt>
					<trkpt lat="45.952800" lon="4.617280">
						<ele>416</ele>
						<time>2024-10-10T20:49:34Z</time>
					</trkpt>
					<trkpt lat="45.952700" lon="4.617510">
						<ele>414</ele>
						<time>2024-10-10T20:49:37Z</time>
					</trkpt>
					<trkpt lat="45.952580" lon="4.617860">
						<ele>413</ele>
						<time>2024-10-10T20:49:42Z</time>
					</trkpt>
					<trkpt lat="45.952500" lon="4.618030">
						<ele>413</ele>
						<time>2024-10-10T20:49:45Z</time>
					</trkpt>
					<trkpt lat="45.951840" lon="4.619060">
						<ele>414</ele>
						<time>2024-10-10T20:50:02Z</time>
					</trkpt>
					<trkpt lat="45.951690" lon="4.619230">
						<ele>414</ele>
						<time>2024-10-10T20:50:05Z</time>
					</trkpt>
					<trkpt lat="45.950960" lon="4.619680">
						<ele>414</ele>
						<time>2024-10-10T20:50:20Z</time>
					</trkpt>
					<trkpt lat="45.950200" lon="4.620050">
						<ele>412</ele>
						<time>2024-10-10T20:50:34Z</time>
					</trkpt>
					<trkpt lat="45.949440" lon="4.620470">
						<ele>406</ele>
						<time>2024-10-10T20:50:48Z</time>
					</trkpt>
					<trkpt lat="45.949220" lon="4.620570">
						<ele>405</ele>
						<time>2024-10-10T20:50:52Z</time>
					</trkpt>
					<trkpt lat="45.949030" lon="4.620590">
						<ele>405</ele>
						<time>2024-10-10T20:50:56Z</time>
					</trkpt>
					<trkpt lat="45.948270" lon="4.620590">
						<ele>404</ele>
						<time>2024-10-10T20:51:09Z</time>
					</trkpt>
					<trkpt lat="45.948070" lon="4.620540">
						<ele>403</ele>
						<time>2024-10-10T20:51:13Z</time>
					</trkpt>
					<trkpt lat="45.947850" lon="4.620370">
						<ele>403</ele>
						<time>2024-10-10T20:51:17Z</time>
					</trkpt>
					<trkpt lat="45.947630" lon="4.620310">
						<ele>402</ele>
						<time>2024-10-10T20:51:21Z</time>
					</trkpt>
					<trkpt lat="45.947490" lon="4.620330">
						<ele>401</ele>
						<time>2024-10-10T20:51:24Z</time>
					</trkpt>
					<trkpt lat="45.946470" lon="4.620800">
						<ele>403</ele>
						<time>2024-10-10T20:51:43Z</time>
					</trkpt>
					<trkpt lat="45.946040" lon="4.621170">
						<ele>400</ele>
						<time>2024-10-10T20:51:52Z</time>
					</trkpt>
					<trkpt lat="45.945900" lon="4.621340">
						<ele>398</ele>
						<time>2024-10-10T20:51:55Z</time>
					</trkpt>
					<trkpt lat="45.945400" lon="4.622200">
						<ele>397</ele>
						<time>2024-10-10T20:52:09Z</time>
					</trkpt>
					<trkpt lat="45.945250" lon="4.622410">
						<ele>398</ele>
						<time>2024-10-10T20:52:13Z</time>
					</trkpt>
					<trkpt lat="45.944990" lon="4.622560">
						<ele>401</ele>
						<time>2024-10-10T20:52:18Z</time>
					</trkpt>
					<trkpt lat="45.944990" lon="4.622560">
						<ele>401</ele>
						<time>2024-10-10T20:52:18Z</time>
					</trkpt>
					<trkpt lat="45.944640" lon="4.622700">
						<ele>400</ele>
						<time>2024-10-10T20:52:24Z</time>
					</trkpt>
					<trkpt lat="45.944590" lon="4.622600">
						<ele>401</ele>
						<time>2024-10-10T20:52:26Z</time>
					</trkpt>
					<trkpt lat="45.944540" lon="4.622550">
						<ele>401</ele>
						<time>2024-10-10T20:52:27Z</time>
					</trkpt>
					<trkpt lat="45.944190" lon="4.622390">
						<ele>402</ele>
						<time>2024-10-10T20:52:33Z</time>
					</trkpt>
					<trkpt lat="45.943370" lon="4.621800">
						<ele>406</ele>
						<time>2024-10-10T20:52:50Z</time>
					</trkpt>
					<trkpt lat="45.942840" lon="4.621540">
						<ele>409</ele>
						<time>2024-10-10T20:53:00Z</time>
					</trkpt>
					<trkpt lat="45.941920" lon="4.620760">
						<ele>416</ele>
						<time>2024-10-10T20:53:19Z</time>
					</trkpt>
					<trkpt lat="45.941680" lon="4.620590">
						<ele>417</ele>
						<time>2024-10-10T20:53:23Z</time>
					</trkpt>
					<trkpt lat="45.940290" lon="4.619980">
						<ele>423</ele>
						<time>2024-10-10T20:53:49Z</time>
					</trkpt>
					<trkpt lat="45.940060" lon="4.619860">
						<ele>425</ele>
						<time>2024-10-10T20:53:54Z</time>
					</trkpt>
					<trkpt lat="45.939780" lon="4.619670">
						<ele>426</ele>
						<time>2024-10-10T20:53:59Z</time>
					</trkpt>
					<trkpt lat="45.939590" lon="4.619500">
						<ele>428</ele>
						<time>2024-10-10T20:54:03Z</time>
					</trkpt>
					<trkpt lat="45.939480" lon="4.619370">
						<ele>429</ele>
						<time>2024-10-10T20:54:06Z</time>
					</trkpt>
					<trkpt lat="45.939260" lon="4.618990">
						<ele>433</ele>
						<time>2024-10-10T20:54:12Z</time>
					</trkpt>
					<trkpt lat="45.939090" lon="4.618600">
						<ele>438</ele>
						<time>2024-10-10T20:54:17Z</time>
					</trkpt>
					<trkpt lat="45.939020" lon="4.618220">
						<ele>442</ele>
						<time>2024-10-10T20:54:22Z</time>
					</trkpt>
					<trkpt lat="45.939060" lon="4.618180">
						<ele>443</ele>
						<time>2024-10-10T20:54:23Z</time>
					</trkpt>
					<trkpt lat="45.939090" lon="4.617740">
						<ele>446</ele>
						<time>2024-10-10T20:54:29Z</time>
					</trkpt>
					<trkpt lat="45.939190" lon="4.617340">
						<ele>450</ele>
						<time>2024-10-10T20:54:34Z</time>
					</trkpt>
					<trkpt lat="45.939250" lon="4.616900">
						<ele>452</ele>
						<time>2024-10-10T20:54:39Z</time>
					</trkpt>
					<trkpt lat="45.939390" lon="4.616560">
						<ele>454</ele>
						<time>2024-10-10T20:54:44Z</time>
					</trkpt>
					<trkpt lat="45.939580" lon="4.616180">
						<ele>455</ele>
						<time>2024-10-10T20:54:50Z</time>
					</trkpt>
					<trkpt lat="45.939640" lon="4.616250">
						<ele>456</ele>
						<time>2024-10-10T20:54:51Z</time>
					</trkpt>
					<trkpt lat="45.939750" lon="4.616110">
						<ele>457</ele>
						<time>2024-10-10T20:54:54Z</time>
					</trkpt>
					<trkpt lat="45.939910" lon="4.615730">
						<ele>458</ele>
						<time>2024-10-10T20:55:00Z</time>
					</trkpt>
					<trkpt lat="45.939840" lon="4.614740">
						<ele>455</ele>
						<time>2024-10-10T20:55:12Z</time>
					</trkpt>
					<trkpt lat="45.939800" lon="4.614560">
						<ele>455</ele>
						<time>2024-10-10T20:55:14Z</time>
					</trkpt>
					<trkpt lat="45.939850" lon="4.614470">
						<ele>455</ele>
						<time>2024-10-10T20:55:16Z</time>
					</trkpt>
					<trkpt lat="45.939810" lon="4.614390">
						<ele>455</ele>
						<time>2024-10-10T20:55:17Z</time>
					</trkpt>
					<trkpt lat="45.939760" lon="4.614390">
						<ele>454</ele>
						<time>2024-10-10T20:55:18Z</time>
					</trkpt>
					<trkpt lat="45.939730" lon="4.614410">
						<ele>454</ele>
						<time>2024-10-10T20:55:18Z</time>
					</trkpt>
					<trkpt lat="45.939730" lon="4.614520">
						<ele>454</ele>
						<time>2024-10-10T20:55:20Z</time>
					</trkpt>
					<trkpt lat="45.939670" lon="4.614600">
						<ele>453</ele>
						<time>2024-10-10T20:55:21Z</time>
					</trkpt>
					<trkpt lat="45.939310" lon="4.615670">
						<ele>450</ele>
						<time>2024-10-10T20:55:36Z</time>
					</trkpt>
					<trkpt lat="45.939240" lon="4.615940">
						<ele>449</ele>
						<time>2024-10-10T20:55:39Z</time>
					</trkpt>
					<trkpt lat="45.939230" lon="4.615960">
						<ele>449</ele>
						<time>2024-10-10T20:55:40Z</time>
					</trkpt>
					<trkpt lat="45.939130" lon="4.615960">
						<ele>448</ele>
						<time>2024-10-10T20:55:41Z</time>
					</trkpt>
					<trkpt lat="45.939090" lon="4.615980">
						<ele>447</ele>
						<time>2024-10-10T20:55:42Z</time>
					</trkpt>
					<trkpt lat="45.938900" lon="4.616080">
						<ele>445</ele>
						<time>2024-10-10T20:55:46Z</time>
					</trkpt>
					<trkpt lat="45.938520" lon="4.616370">
						<ele>440</ele>
						<time>2024-10-10T20:55:53Z</time>
					</trkpt>
					<trkpt lat="45.938410" lon="4.615310">
						<ele>437</ele>
						<time>2024-10-10T20:56:07Z</time>
					</trkpt>
					<trkpt lat="45.938260" lon="4.614340">
						<ele>433</ele>
						<time>2024-10-10T20:56:19Z</time>
					</trkpt>
					<trkpt lat="45.938030" lon="4.613570">
						<ele>430</ele>
						<time>2024-10-10T20:56:29Z</time>
					</trkpt>
					<trkpt lat="45.937940" lon="4.613390">
						<ele>428</ele>
						<time>2024-10-10T20:56:32Z</time>
					</trkpt>
					<trkpt lat="45.937500" lon="4.612830">
						<ele>420</ele>
						<time>2024-10-10T20:56:43Z</time>
					</trkpt>
					<trkpt lat="45.937450" lon="4.612640">
						<ele>417</ele>
						<time>2024-10-10T20:56:45Z</time>
					</trkpt>
					<trkpt lat="45.937470" lon="4.612420">
						<ele>416</ele>
						<time>2024-10-10T20:56:48Z</time>
					</trkpt>
					<trkpt lat="45.937820" lon="4.611790">
						<ele>417</ele>
						<time>2024-10-10T20:56:58Z</time>
					</trkpt>
					<trkpt lat="45.937970" lon="4.611410">
						<ele>417</ele>
						<time>2024-10-10T20:57:03Z</time>
					</trkpt>
					<trkpt lat="45.938110" lon="4.610870">
						<ele>414</ele>
						<time>2024-10-10T20:57:10Z</time>
					</trkpt>
					<trkpt lat="45.938230" lon="4.609960">
						<ele>412</ele>
						<time>2024-10-10T20:57:22Z</time>
					</trkpt>
					<trkpt lat="45.938240" lon="4.609640">
						<ele>412</ele>
						<time>2024-10-10T20:57:26Z</time>
					</trkpt>
					<trkpt lat="45.938200" lon="4.609440">
						<ele>412</ele>
						<time>2024-10-10T20:57:28Z</time>
					</trkpt>
					<trkpt lat="45.938150" lon="4.609350">
						<ele>412</ele>
						<time>2024-10-10T20:57:30Z</time>
					</trkpt>
					<trkpt lat="45.938000" lon="4.609240">
						<ele>412</ele>
						<time>2024-10-10T20:57:33Z</time>
					</trkpt>
					<trkpt lat="45.937850" lon="4.609240">
						<ele>412</ele>
						<time>2024-10-10T20:57:35Z</time>
					</trkpt>
					<trkpt lat="45.937700" lon="4.609320">
						<ele>411</ele>
						<time>2024-10-10T20:57:38Z</time>
					</trkpt>
					<trkpt lat="45.936880" lon="4.610060">
						<ele>405</ele>
						<time>2024-10-10T20:57:56Z</time>
					</trkpt>
					<trkpt lat="45.936640" lon="4.610350">
						<ele>404</ele>
						<time>2024-10-10T20:58:01Z</time>
					</trkpt>
					<trkpt lat="45.935740" lon="4.611690">
						<ele>398</ele>
						<time>2024-10-10T20:58:24Z</time>
					</trkpt>
					<trkpt lat="45.935200" lon="4.612430">
						<ele>396</ele>
						<time>2024-10-10T20:58:37Z</time>
					</trkpt>
					<trkpt lat="45.934680" lon="4.613080">
						<ele>392</ele>
						<time>2024-10-10T20:58:50Z</time>
					</trkpt>
					<trkpt lat="45.934500" lon="4.613240">
						<ele>391</ele>
						<time>2024-10-10T20:58:53Z</time>
					</trkpt>
					<trkpt lat="45.934260" lon="4.613380">
						<ele>390</ele>
						<time>2024-10-10T20:58:58Z</time>
					</trkpt>
					<trkpt lat="45.933890" lon="4.613540">
						<ele>390</ele>
						<time>2024-10-10T20:59:05Z</time>
					</trkpt>
					<trkpt lat="45.933630" lon="4.613690">
						<ele>388</ele>
						<time>2024-10-10T20:59:10Z</time>
					</trkpt>
					<trkpt lat="45.933220" lon="4.614020">
						<ele>385</ele>
						<time>2024-10-10T20:59:18Z</time>
					</trkpt>
					<trkpt lat="45.932950" lon="4.614270">
						<ele>383</ele>
						<time>2024-10-10T20:59:24Z</time>
					</trkpt>
					<trkpt lat="45.932870" lon="4.614390">
						<ele>383</ele>
						<time>2024-10-10T20:59:26Z</time>
					</trkpt>
					<trkpt lat="45.932520" lon="4.614530">
						<ele>386</ele>
						<time>2024-10-10T20:59:33Z</time>
					</trkpt>
					<trkpt lat="45.931840" lon="4.614820">
						<ele>387</ele>
						<time>2024-10-10T20:59:45Z</time>
					</trkpt>
					<trkpt lat="45.931780" lon="4.614790">
						<ele>388</ele>
						<time>2024-10-10T20:59:46Z</time>
					</trkpt>
					<trkpt lat="45.931440" lon="4.614670">
						<ele>390</ele>
						<time>2024-10-10T20:59:53Z</time>
					</trkpt>
					<trkpt lat="45.931130" lon="4.614640">
						<ele>391</ele>
						<time>2024-10-10T20:59:58Z</time>
					</trkpt>
					<trkpt lat="45.930920" lon="4.614660">
						<ele>391</ele>
						<time>2024-10-10T21:00:02Z</time>
					</trkpt>
					<trkpt lat="45.930680" lon="4.614730">
						<ele>393</ele>
						<time>2024-10-10T21:00:06Z</time>
					</trkpt>
					<trkpt lat="45.930460" lon="4.614880">
						<ele>394</ele>
						<time>2024-10-10T21:00:10Z</time>
					</trkpt>
					<trkpt lat="45.929640" lon="4.615620">
						<ele>393</ele>
						<time>2024-10-10T21:00:28Z</time>
					</trkpt>
					<trkpt lat="45.929350" lon="4.615810">
						<ele>395</ele>
						<time>2024-10-10T21:00:33Z</time>
					</trkpt>
					<trkpt lat="45.928970" lon="4.615900">
						<ele>395</ele>
						<time>2024-10-10T21:00:40Z</time>
					</trkpt>
					<trkpt lat="45.928930" lon="4.615960">
						<ele>395</ele>
						<time>2024-10-10T21:00:41Z</time>
					</trkpt>
					<trkpt lat="45.928970" lon="4.615900">
						<ele>395</ele>
						<time>2024-10-10T21:00:42Z</time>
					</trkpt>
					<trkpt lat="45.928770" lon="4.615850">
						<ele>395</ele>
						<time>2024-10-10T21:00:46Z</time>
					</trkpt>
					<trkpt lat="45.928600" lon="4.615750">
						<ele>395</ele>
						<time>2024-10-10T21:00:49Z</time>
					</trkpt>
					<trkpt lat="45.928360" lon="4.615540">
						<ele>397</ele>
						<time>2024-10-10T21:00:54Z</time>
					</trkpt>
					<trkpt lat="45.927550" lon="4.614620">
						<ele>403</ele>
						<time>2024-10-10T21:01:13Z</time>
					</trkpt>
					<trkpt lat="45.927280" lon="4.614320">
						<ele>404</ele>
						<time>2024-10-10T21:01:19Z</time>
					</trkpt>
					<trkpt lat="45.926730" lon="4.613710">
						<ele>408</ele>
						<time>2024-10-10T21:01:31Z</time>
					</trkpt>
					<trkpt lat="45.926580" lon="4.613520">
						<ele>409</ele>
						<time>2024-10-10T21:01:35Z</time>
					</trkpt>
					<trkpt lat="45.925770" lon="4.611980">
						<ele>412</ele>
						<time>2024-10-10T21:01:58Z</time>
					</trkpt>
					<trkpt lat="45.925610" lon="4.611740">
						<ele>414</ele>
						<time>2024-10-10T21:02:03Z</time>
					</trkpt>
					<trkpt lat="45.925530" lon="4.611550">
						<ele>415</ele>
						<time>2024-10-10T21:02:05Z</time>
					</trkpt>
					<trkpt lat="45.925470" lon="4.611350">
						<ele>416</ele>
						<time>2024-10-10T21:02:08Z</time>
					</trkpt>
					<trkpt lat="45.925400" lon="4.611260">
						<ele>417</ele>
						<time>2024-10-10T21:02:10Z</time>
					</trkpt>
					<trkpt lat="45.925290" lon="4.611000">
						<ele>418</ele>
						<time>2024-10-10T21:02:13Z</time>
					</trkpt>
					<trkpt lat="45.925140" lon="4.610560">
						<ele>419</ele>
						<time>2024-10-10T21:02:19Z</time>
					</trkpt>
					<trkpt lat="45.925010" lon="4.610150">
						<ele>417</ele>
						<time>2024-10-10T21:02:25Z</time>
					</trkpt>
					<trkpt lat="45.924950" lon="4.610020">
						<ele>417</ele>
						<time>2024-10-10T21:02:27Z</time>
					</trkpt>
					<trkpt lat="45.924910" lon="4.609940">
						<ele>417</ele>
						<time>2024-10-10T21:02:28Z</time>
					</trkpt>
					<trkpt lat="45.924860" lon="4.609870">
						<ele>416</ele>
						<time>2024-10-10T21:02:29Z</time>
					</trkpt>
					<trkpt lat="45.924460" lon="4.609410">
						<ele>413</ele>
						<time>2024-10-10T21:02:39Z</time>
					</trkpt>
					<trkpt lat="45.924340" lon="4.609330">
						<ele>413</ele>
						<time>2024-10-10T21:02:41Z</time>
					</trkpt>
					<trkpt lat="45.923920" lon="4.609190">
						<ele>412</ele>
						<time>2024-10-10T21:02:49Z</time>
					</trkpt>
					<trkpt lat="45.923800" lon="4.609110">
						<ele>412</ele>
						<time>2024-10-10T21:02:51Z</time>
					</trkpt>
					<trkpt lat="45.923680" lon="4.609000">
						<ele>411</ele>
						<time>2024-10-10T21:02:53Z</time>
					</trkpt>
					<trkpt lat="45.923250" lon="4.608450">
						<ele>410</ele>
						<time>2024-10-10T21:03:04Z</time>
					</trkpt>
					<trkpt lat="45.923010" lon="4.608190">
						<ele>409</ele>
						<time>2024-10-10T21:03:09Z</time>
					</trkpt>
					<trkpt lat="45.922790" lon="4.607990">
						<ele>409</ele>
						<time>2024-10-10T21:03:14Z</time>
					</trkpt>
					<trkpt lat="45.922480" lon="4.607770">
						<ele>410</ele>
						<time>2024-10-10T21:03:20Z</time>
					</trkpt>
					<trkpt lat="45.922220" lon="4.607590">
						<ele>410</ele>
						<time>2024-10-10T21:03:25Z</time>
					</trkpt>
					<trkpt lat="45.921970" lon="4.607430">
						<ele>409</ele>
						<time>2024-10-10T21:03:30Z</time>
					</trkpt>
					<trkpt lat="45.921850" lon="4.607390">
						<ele>409</ele>
						<time>2024-10-10T21:03:32Z</time>
					</trkpt>
					<trkpt lat="45.921590" lon="4.607380">
						<ele>410</ele>
						<time>2024-10-10T21:03:37Z</time>
					</trkpt>
					<trkpt lat="45.921470" lon="4.607360">
						<ele>411</ele>
						<time>2024-10-10T21:03:39Z</time>
					</trkpt>
					<trkpt lat="45.920670" lon="4.607120">
						<ele>413</ele>
						<time>2024-10-10T21:03:53Z</time>
					</trkpt>
					<trkpt lat="45.919810" lon="4.606920">
						<ele>411</ele>
						<time>2024-10-10T21:04:09Z</time>
					</trkpt>
					<trkpt lat="45.919290" lon="4.606830">
						<ele>408</ele>
						<time>2024-10-10T21:04:18Z</time>
					</trkpt>
					<trkpt lat="45.919100" lon="4.606830">
						<ele>407</ele>
						<time>2024-10-10T21:04:22Z</time>
					</trkpt>
					<trkpt lat="45.918910" lon="4.606890">
						<ele>406</ele>
						<time>2024-10-10T21:04:25Z</time>
					</trkpt>
					<trkpt lat="45.918710" lon="4.607000">
						<ele>406</ele>
						<time>2024-10-10T21:04:29Z</time>
					</trkpt>
					<trkpt lat="45.918570" lon="4.607100">
						<ele>406</ele>
						<time>2024-10-10T21:04:32Z</time>
					</trkpt>
					<trkpt lat="45.918290" lon="4.607270">
						<ele>405</ele>
						<time>2024-10-10T21:04:37Z</time>
					</trkpt>
					<trkpt lat="45.918230" lon="4.607360">
						<ele>405</ele>
						<time>2024-10-10T21:04:39Z</time>
					</trkpt>
					<trkpt lat="45.917940" lon="4.607400">
						<ele>403</ele>
						<time>2024-10-10T21:04:44Z</time>
					</trkpt>
					<trkpt lat="45.917870" lon="4.607410">
						<ele>403</ele>
						<time>2024-10-10T21:04:45Z</time>
					</trkpt>
					<trkpt lat="45.917840" lon="4.607460">
						<ele>403</ele>
						<time>2024-10-10T21:04:46Z</time>
					</trkpt>
					<trkpt lat="45.917810" lon="4.607560">
						<ele>403</ele>
						<time>2024-10-10T21:04:47Z</time>
					</trkpt>
					<trkpt lat="45.917780" lon="4.607850">
						<ele>403</ele>
						<time>2024-10-10T21:04:51Z</time>
					</trkpt>
					<trkpt lat="45.917760" lon="4.607900">
						<ele>403</ele>
						<time>2024-10-10T21:04:52Z</time>
					</trkpt>
					<trkpt lat="45.917630" lon="4.607990">
						<ele>402</ele>
						<time>2024-10-10T21:04:54Z</time>
					</trkpt>
					<trkpt lat="45.917510" lon="4.608060">
						<ele>401</ele>
						<time>2024-10-10T21:04:56Z</time>
					</trkpt>
					<trkpt lat="45.917340" lon="4.608280">
						<ele>401</ele>
						<time>2024-10-10T21:05:00Z</time>
					</trkpt>
					<trkpt lat="45.917320" lon="4.608300">
						<ele>400</ele>
						<time>2024-10-10T21:05:01Z</time>
					</trkpt>
					<trkpt lat="45.916930" lon="4.609140">
						<ele>398</ele>
						<time>2024-10-10T21:05:13Z</time>
					</trkpt>
					<trkpt lat="45.916950" lon="4.609350">
						<ele>397</ele>
						<time>2024-10-10T21:05:16Z</time>
					</trkpt>
					<trkpt lat="45.916260" lon="4.609420">
						<ele>391</ele>
						<time>2024-10-10T21:05:28Z</time>
					</trkpt>
					<trkpt lat="45.915600" lon="4.609540">
						<ele>384</ele>
						<time>2024-10-10T21:05:40Z</time>
					</trkpt>
					<trkpt lat="45.915530" lon="4.609510">
						<ele>383</ele>
						<time>2024-10-10T21:05:41Z</time>
					</trkpt>
					<trkpt lat="45.915480" lon="4.609400">
						<ele>383</ele>
						<time>2024-10-10T21:05:43Z</time>
					</trkpt>
					<trkpt lat="45.915390" lon="4.608250">
						<ele>384</ele>
						<time>2024-10-10T21:05:57Z</time>
					</trkpt>
					<trkpt lat="45.915370" lon="4.608170">
						<ele>384</ele>
						<time>2024-10-10T21:05:58Z</time>
					</trkpt>
					<trkpt lat="45.915280" lon="4.608090">
						<ele>383</ele>
						<time>2024-10-10T21:06:00Z</time>
					</trkpt>
					<trkpt lat="45.913080" lon="4.606800">
						<ele>361</ele>
						<time>2024-10-10T21:06:43Z</time>
					</trkpt>
					<trkpt lat="45.912630" lon="4.606560">
						<ele>360</ele>
						<time>2024-10-10T21:06:51Z</time>
					</trkpt>
					<trkpt lat="45.912280" lon="4.606160">
						<ele>358</ele>
						<time>2024-10-10T21:06:59Z</time>
					</trkpt>
					<trkpt lat="45.912190" lon="4.606160">
						<ele>357</ele>
						<time>2024-10-10T21:07:01Z</time>
					</trkpt>
					<trkpt lat="45.912140" lon="4.606230">
						<ele>358</ele>
						<time>2024-10-10T21:07:02Z</time>
					</trkpt>
					<trkpt lat="45.911900" lon="4.605840">
						<ele>356</ele>
						<time>2024-10-10T21:07:08Z</time>
					</trkpt>
					<trkpt lat="45.911750" lon="4.605510">
						<ele>353</ele>
						<time>2024-10-10T21:07:13Z</time>
					</trkpt>
					<trkpt lat="45.911670" lon="4.605240">
						<ele>351</ele>
						<time>2024-10-10T21:07:17Z</time>
					</trkpt>
					<trkpt lat="45.911610" lon="4.604960">
						<ele>350</ele>
						<time>2024-10-10T21:07:21Z</time>
					</trkpt>
					<trkpt lat="45.911590" lon="4.604660">
						<ele>349</ele>
						<time>2024-10-10T21:07:24Z</time>
					</trkpt>
					<trkpt lat="45.911590" lon="4.603340">
						<ele>345</ele>
						<time>2024-10-10T21:07:41Z</time>
					</trkpt>
					<trkpt lat="45.911610" lon="4.602310">
						<ele>343</ele>
						<time>2024-10-10T21:07:53Z</time>
					</trkpt>
					<trkpt lat="45.911650" lon="4.602100">
						<ele>342</ele>
						<time>2024-10-10T21:07:56Z</time>
					</trkpt>
					<trkpt lat="45.911770" lon="4.601780">
						<ele>341</ele>
						<time>2024-10-10T21:08:01Z</time>
					</trkpt>
					<trkpt lat="45.913220" lon="4.599520">
						<ele>328</ele>
						<time>2024-10-10T21:08:39Z</time>
					</trkpt>
					<trkpt lat="45.913320" lon="4.599280">
						<ele>327</ele>
						<time>2024-10-10T21:08:42Z</time>
					</trkpt>
					<trkpt lat="45.913360" lon="4.599050">
						<ele>326</ele>
						<time>2024-10-10T21:08:45Z</time>
					</trkpt>
					<trkpt lat="45.913370" lon="4.598790">
						<ele>325</ele>
						<time>2024-10-10T21:08:48Z</time>
					</trkpt>
					<trkpt lat="45.913330" lon="4.598530">
						<ele>324</ele>
						<time>2024-10-10T21:08:52Z</time>
					</trkpt>
					<trkpt lat="45.912900" lon="4.596960">
						<ele>316</ele>
						<time>2024-10-10T21:09:12Z</time>
					</trkpt>
					<trkpt lat="45.912840" lon="4.596660">
						<ele>315</ele>
						<time>2024-10-10T21:09:16Z</time>
					</trkpt>
					<trkpt lat="45.912840" lon="4.596390">
						<ele>314</ele>
						<time>2024-10-10T21:09:20Z</time>
					</trkpt>
					<trkpt lat="45.912880" lon="4.596140">
						<ele>313</ele>
						<time>2024-10-10T21:09:23Z</time>
					</trkpt>
					<trkpt lat="45.912950" lon="4.595930">
						<ele>312</ele>
						<time>2024-10-10T21:09:26Z</time>
					</trkpt>
					<trkpt lat="45.913090" lon="4.595690">
						<ele>311</ele>
						<time>2024-10-10T21:09:30Z</time>
					</trkpt>
					<trkpt lat="45.913680" lon="4.594990">
						<ele>306</ele>
						<time>2024-10-10T21:09:43Z</time>
					</trkpt>
					<trkpt lat="45.913850" lon="4.595200">
						<ele>305</ele>
						<time>2024-10-10T21:09:47Z</time>
					</trkpt>
					<trkpt lat="45.913920" lon="4.595320">
						<ele>305</ele>
						<time>2024-10-10T21:09:49Z</time>
					</trkpt>
					<trkpt lat="45.913950" lon="4.595440">
						<ele>306</ele>
						<time>2024-10-10T21:09:51Z</time>
					</trkpt>
					<trkpt lat="45.913970" lon="4.595650">
						<ele>306</ele>
						<time>2024-10-10T21:09:53Z</time>
					</trkpt>
					<trkpt lat="45.914040" lon="4.595790">
						<ele>306</ele>
						<time>2024-10-10T21:09:55Z</time>
					</trkpt>
					<trkpt lat="45.914120" lon="4.595860">
						<ele>307</ele>
						<time>2024-10-10T21:09:57Z</time>
					</trkpt>
					<trkpt lat="45.914300" lon="4.595860">
						<ele>306</ele>
						<time>2024-10-10T21:10:00Z</time>
					</trkpt>
					<trkpt lat="45.914730" lon="4.595750">
						<ele>303</ele>
						<time>2024-10-10T21:10:08Z</time>
					</trkpt>
					<trkpt lat="45.915100" lon="4.595560">
						<ele>300</ele>
						<time>2024-10-10T21:10:15Z</time>
					</trkpt>
					<trkpt lat="45.915250" lon="4.595420">
						<ele>300</ele>
						<time>2024-10-10T21:10:18Z</time>
					</trkpt>
					<trkpt lat="45.915370" lon="4.595270">
						<ele>299</ele>
						<time>2024-10-10T21:10:21Z</time>
					</trkpt>
					<trkpt lat="45.915470" lon="4.595010">
						<ele>297</ele>
						<time>2024-10-10T21:10:25Z</time>
					</trkpt>
					<trkpt lat="45.915610" lon="4.594030">
						<ele>292</ele>
						<time>2024-10-10T21:10:37Z</time>
					</trkpt>
					<trkpt lat="45.915630" lon="4.593670">
						<ele>294</ele>
						<time>2024-10-10T21:10:42Z</time>
					</trkpt>
					<trkpt lat="45.915700" lon="4.593420">
						<ele>295</ele>
						<time>2024-10-10T21:10:45Z</time>
					</trkpt>
					<trkpt lat="45.915780" lon="4.593250">
						<ele>297</ele>
						<time>2024-10-10T21:10:47Z</time>
					</trkpt>
					<trkpt lat="45.915980" lon="4.592990">
						<ele>301</ele>
						<time>2024-10-10T21:10:52Z</time>
					</trkpt>
					<trkpt lat="45.916110" lon="4.592860">
						<ele>302</ele>
						<time>2024-10-10T21:10:55Z</time>
					</trkpt>
					<trkpt lat="45.916290" lon="4.592620">
						<ele>304</ele>
						<time>2024-10-10T21:10:59Z</time>
					</trkpt>
					<trkpt lat="45.916900" lon="4.591740">
						<ele>310</ele>
						<time>2024-10-10T21:11:15Z</time>
					</trkpt>
					<trkpt lat="45.917210" lon="4.591340">
						<ele>311</ele>
						<time>2024-10-10T21:11:22Z</time>
					</trkpt>
					<trkpt lat="45.917700" lon="4.590580">
						<ele>317</ele>
						<time>2024-10-10T21:11:35Z</time>
					</trkpt>
					<trkpt lat="45.918580" lon="4.589470">
						<ele>325</ele>
						<time>2024-10-10T21:11:56Z</time>
					</trkpt>
					<trkpt lat="45.919720" lon="4.587140">
						<ele>343</ele>
						<time>2024-10-10T21:12:31Z</time>
					</trkpt>
					<trkpt lat="45.919980" lon="4.586710">
						<ele>347</ele>
						<time>2024-10-10T21:12:38Z</time>
					</trkpt>
					<trkpt lat="45.920220" lon="4.586390">
						<ele>350</ele>
						<time>2024-10-10T21:12:44Z</time>
					</trkpt>
					<trkpt lat="45.920680" lon="4.585660">
						<ele>354</ele>
						<time>2024-10-10T21:12:56Z</time>
					</trkpt>
					<trkpt lat="45.920330" lon="4.585450">
						<ele>352</ele>
						<time>2024-10-10T21:13:03Z</time>
					</trkpt>
					<trkpt lat="45.920190" lon="4.584040">
						<ele>345</ele>
						<time>2024-10-10T21:13:21Z</time>
					</trkpt>
					<trkpt lat="45.920220" lon="4.584040">
						<ele>346</ele>
						<time>2024-10-10T21:13:21Z</time>
					</trkpt>
					<trkpt lat="45.920250" lon="4.583080">
						<ele>339</ele>
						<time>2024-10-10T21:13:33Z</time>
					</trkpt>
					<trkpt lat="45.920240" lon="4.582720">
						<ele>337</ele>
						<time>2024-10-10T21:13:38Z</time>
					</trkpt>
					<trkpt lat="45.920190" lon="4.582230">
						<ele>333</ele>
						<time>2024-10-10T21:13:44Z</time>
					</trkpt>
					<trkpt lat="45.920220" lon="4.582010">
						<ele>332</ele>
						<time>2024-10-10T21:13:46Z</time>
					</trkpt>
					<trkpt lat="45.920300" lon="4.581740">
						<ele>330</ele>
						<time>2024-10-10T21:13:50Z</time>
					</trkpt>
					<trkpt lat="45.920640" lon="4.581000">
						<ele>323</ele>
						<time>2024-10-10T21:14:01Z</time>
					</trkpt>
					<trkpt lat="45.920670" lon="4.581010">
						<ele>323</ele>
						<time>2024-10-10T21:14:02Z</time>
					</trkpt>
					<trkpt lat="45.920710" lon="4.581010">
						<ele>323</ele>
						<time>2024-10-10T21:14:02Z</time>
					</trkpt>
					<trkpt lat="45.920730" lon="4.580930">
						<ele>322</ele>
						<time>2024-10-10T21:14:03Z</time>
					</trkpt>
					<trkpt lat="45.920720" lon="4.580890">
						<ele>322</ele>
						<time>2024-10-10T21:14:04Z</time>
					</trkpt>
					<trkpt lat="45.920680" lon="4.580860">
						<ele>321</ele>
						<time>2024-10-10T21:14:05Z</time>
					</trkpt>
					<trkpt lat="45.920620" lon="4.580920">
						<ele>322</ele>
						<time>2024-10-10T21:14:06Z</time>
					</trkpt>
					<trkpt lat="45.920410" lon="4.580830">
						<ele>320</ele>
						<time>2024-10-10T21:14:10Z</time>
					</trkpt>
					<trkpt lat="45.919880" lon="4.580540">
						<ele>319</ele>
						<time>2024-10-10T21:14:20Z</time>
					</trkpt>
					<trkpt lat="45.919310" lon="4.580000">
						<ele>314</ele>
						<time>2024-10-10T21:14:32Z</time>
					</trkpt>
					<trkpt lat="45.918930" lon="4.579560">
						<ele>314</ele>
						<time>2024-10-10T21:14:41Z</time>
					</trkpt>
					<trkpt lat="45.918760" lon="4.579410">
						<ele>313</ele>
						<time>2024-10-10T21:14:44Z</time>
					</trkpt>
					<trkpt lat="45.918330" lon="4.579140">
						<ele>311</ele>
						<time>2024-10-10T21:14:53Z</time>
					</trkpt>
					<trkpt lat="45.918130" lon="4.578950">
						<ele>312</ele>
						<time>2024-10-10T21:14:57Z</time>
					</trkpt>
					<trkpt lat="45.917940" lon="4.578710">
						<ele>312</ele>
						<time>2024-10-10T21:15:01Z</time>
					</trkpt>
					<trkpt lat="45.917540" lon="4.578050">
						<ele>308</ele>
						<time>2024-10-10T21:15:12Z</time>
					</trkpt>
					<trkpt lat="45.917400" lon="4.577780">
						<ele>306</ele>
						<time>2024-10-10T21:15:16Z</time>
					</trkpt>
					<trkpt lat="45.917530" lon="4.577610">
						<ele>304</ele>
						<time>2024-10-10T21:15:20Z</time>
					</trkpt>
					<trkpt lat="45.917580" lon="4.577420">
						<ele>305</ele>
						<time>2024-10-10T21:15:22Z</time>
					</trkpt>
					<trkpt lat="45.917580" lon="4.577320">
						<ele>306</ele>
						<time>2024-10-10T21:15:23Z</time>
					</trkpt>
					<trkpt lat="45.917520" lon="4.577140">
						<ele>306</ele>
						<time>2024-10-10T21:15:26Z</time>
					</trkpt>
					<trkpt lat="45.917470" lon="4.577050">
						<ele>307</ele>
						<time>2024-10-10T21:15:27Z</time>
					</trkpt>
					<trkpt lat="45.917090" lon="4.576720">
						<ele>304</ele>
						<time>2024-10-10T21:15:35Z</time>
					</trkpt>
					<trkpt lat="45.917040" lon="4.576650">
						<ele>303</ele>
						<time>2024-10-10T21:15:36Z</time>
					</trkpt>
					<trkpt lat="45.916960" lon="4.576420">
						<ele>302</ele>
						<time>2024-10-10T21:15:40Z</time>
					</trkpt>
					<trkpt lat="45.916850" lon="4.575940">
						<ele>299</ele>
						<time>2024-10-10T21:15:46Z</time>
					</trkpt>
					<trkpt lat="45.916730" lon="4.575660">
						<ele>298</ele>
						<time>2024-10-10T21:15:50Z</time>
					</trkpt>
					<trkpt lat="45.916450" lon="4.575200">
						<ele>298</ele>
						<time>2024-10-10T21:15:57Z</time>
					</trkpt>
					<trkpt lat="45.916300" lon="4.575020">
						<ele>296</ele>
						<time>2024-10-10T21:16:01Z</time>
					</trkpt>
					<trkpt lat="45.916020" lon="4.574770">
						<ele>292</ele>
						<time>2024-10-10T21:16:07Z</time>
					</trkpt>
					<trkpt lat="45.915960" lon="4.574690">
						<ele>291</ele>
						<time>2024-10-10T21:16:08Z</time>
					</trkpt>
					<trkpt lat="45.915910" lon="4.574600">
						<ele>291</ele>
						<time>2024-10-10T21:16:10Z</time>
					</trkpt>
					<trkpt lat="45.915670" lon="4.574010">
						<ele>290</ele>
						<time>2024-10-10T21:16:18Z</time>
					</trkpt>
					<trkpt lat="45.915580" lon="4.573830">
						<ele>290</ele>
						<time>2024-10-10T21:16:21Z</time>
					</trkpt>
					<trkpt lat="45.915340" lon="4.573510">
						<ele>287</ele>
						<time>2024-10-10T21:16:27Z</time>
					</trkpt>
					<trkpt lat="45.914810" lon="4.573050">
						<ele>279</ele>
						<time>2024-10-10T21:16:38Z</time>
					</trkpt>
					<trkpt lat="45.914760" lon="4.572940">
						<ele>278</ele>
						<time>2024-10-10T21:16:39Z</time>
					</trkpt>
					<trkpt lat="45.914700" lon="4.572700">
						<ele>278</ele>
						<time>2024-10-10T21:16:42Z</time>
					</trkpt>
					<trkpt lat="45.914720" lon="4.572430">
						<ele>277</ele>
						<time>2024-10-10T21:16:46Z</time>
					</trkpt>
					<trkpt lat="45.914760" lon="4.572330">
						<ele>276</ele>
						<time>2024-10-10T21:16:47Z</time>
					</trkpt>
					<trkpt lat="45.914870" lon="4.572190">
						<ele>275</ele>
						<time>2024-10-10T21:16:50Z</time>
					</trkpt>
					<trkpt lat="45.914930" lon="4.572160">
						<ele>276</ele>
						<time>2024-10-10T21:16:51Z</time>
					</trkpt>
					<trkpt lat="45.915330" lon="4.572070">
						<ele>278</ele>
						<time>2024-10-10T21:16:58Z</time>
					</trkpt>
					<trkpt lat="45.915510" lon="4.571980">
						<ele>277</ele>
						<time>2024-10-10T21:17:02Z</time>
					</trkpt>
					<trkpt lat="45.916240" lon="4.571440">
						<ele>272</ele>
						<time>2024-10-10T21:17:16Z</time>
					</trkpt>
					<trkpt lat="45.916610" lon="4.571080">
						<ele>269</ele>
						<time>2024-10-10T21:17:24Z</time>
					</trkpt>
					<trkpt lat="45.916840" lon="4.570920">
						<ele>267</ele>
						<time>2024-10-10T21:17:29Z</time>
					</trkpt>
					<trkpt lat="45.917070" lon="4.570780">
						<ele>265</ele>
						<time>2024-10-10T21:17:33Z</time>
					</trkpt>
					<trkpt lat="45.917580" lon="4.570570">
						<ele>264</ele>
						<time>2024-10-10T21:17:43Z</time>
					</trkpt>
					<trkpt lat="45.917680" lon="4.570500">
						<ele>264</ele>
						<time>2024-10-10T21:17:45Z</time>
					</trkpt>
					<trkpt lat="45.918290" lon="4.569920">
						<ele>261</ele>
						<time>2024-10-10T21:17:58Z</time>
					</trkpt>
					<trkpt lat="45.918540" lon="4.569610">
						<ele>260</ele>
						<time>2024-10-10T21:18:03Z</time>
					</trkpt>
					<trkpt lat="45.918600" lon="4.569420">
						<ele>258</ele>
						<time>2024-10-10T21:18:06Z</time>
					</trkpt>
					<trkpt lat="45.918600" lon="4.569350">
						<ele>258</ele>
						<time>2024-10-10T21:18:07Z</time>
					</trkpt>
					<trkpt lat="45.919020" lon="4.568900">
						<ele>258</ele>
						<time>2024-10-10T21:18:16Z</time>
					</trkpt>
					<trkpt lat="45.920810" lon="4.566760">
						<ele>256</ele>
						<time>2024-10-10T21:18:58Z</time>
					</trkpt>
					<trkpt lat="45.920530" lon="4.566230">
						<ele>253</ele>
						<time>2024-10-10T21:19:06Z</time>
					</trkpt>
					<trkpt lat="45.920450" lon="4.565950">
						<ele>251</ele>
						<time>2024-10-10T21:19:10Z</time>
					</trkpt>
					<trkpt lat="45.920360" lon="4.565380">
						<ele>250</ele>
						<time>2024-10-10T21:19:17Z</time>
					</trkpt>
					<trkpt lat="45.920340" lon="4.564750">
						<ele>251</ele>
						<time>2024-10-10T21:19:25Z</time>
					</trkpt>
					<trkpt lat="45.920430" lon="4.563740">
						<ele>253</ele>
						<time>2024-10-10T21:19:37Z</time>
					</trkpt>
					<trkpt lat="45.920520" lon="4.562200">
						<ele>256</ele>
						<time>2024-10-10T21:19:56Z</time>
					</trkpt>
					<trkpt lat="45.920570" lon="4.561850">
						<ele>258</ele>
						<time>2024-10-10T21:20:01Z</time>
					</trkpt>
					<trkpt lat="45.920640" lon="4.561600">
						<ele>260</ele>
						<time>2024-10-10T21:20:04Z</time>
					</trkpt>
					<trkpt lat="45.920780" lon="4.561240">
						<ele>261</ele>
						<time>2024-10-10T21:20:09Z</time>
					</trkpt>
					<trkpt lat="45.920860" lon="4.560870">
						<ele>264</ele>
						<time>2024-10-10T21:20:14Z</time>
					</trkpt>
					<trkpt lat="45.920820" lon="4.560030">
						<ele>269</ele>
						<time>2024-10-10T21:20:25Z</time>
					</trkpt>
					<trkpt lat="45.920790" lon="4.559780">
						<ele>271</ele>
						<time>2024-10-10T21:20:28Z</time>
					</trkpt>
					<trkpt lat="45.920740" lon="4.559550">
						<ele>274</ele>
						<time>2024-10-10T21:20:31Z</time>
					</trkpt>
					<trkpt lat="45.920670" lon="4.559370">
						<ele>276</ele>
						<time>2024-10-10T21:20:33Z</time>
					</trkpt>
					<trkpt lat="45.920610" lon="4.559260">
						<ele>277</ele>
						<time>2024-10-10T21:20:35Z</time>
					</trkpt>
					<trkpt lat="45.920520" lon="4.559150">
						<ele>277</ele>
						<time>2024-10-10T21:20:37Z</time>
					</trkpt>
					<trkpt lat="45.920190" lon="4.558810">
						<ele>279</ele>
						<time>2024-10-10T21:20:44Z</time>
					</trkpt>
					<trkpt lat="45.920130" lon="4.558700">
						<ele>280</ele>
						<time>2024-10-10T21:20:46Z</time>
					</trkpt>
					<trkpt lat="45.920090" lon="4.558600">
						<ele>280</ele>
						<time>2024-10-10T21:20:47Z</time>
					</trkpt>
					<trkpt lat="45.920080" lon="4.558440">
						<ele>282</ele>
						<time>2024-10-10T21:20:49Z</time>
					</trkpt>
					<trkpt lat="45.920130" lon="4.557920">
						<ele>284</ele>
						<time>2024-10-10T21:20:56Z</time>
					</trkpt>
					<trkpt lat="45.920230" lon="4.557360">
						<ele>286</ele>
						<time>2024-10-10T21:21:03Z</time>
					</trkpt>
					<trkpt lat="45.920260" lon="4.556750">
						<ele>288</ele>
						<time>2024-10-10T21:21:11Z</time>
					</trkpt>
					<trkpt lat="45.920230" lon="4.556210">
						<ele>289</ele>
						<time>2024-10-10T21:21:17Z</time>
					</trkpt>
					<trkpt lat="45.920160" lon="4.555750">
						<ele>290</ele>
						<time>2024-10-10T21:21:23Z</time>
					</trkpt>
					<trkpt lat="45.920170" lon="4.555170">
						<ele>293</ele>
						<time>2024-10-10T21:21:30Z</time>
					</trkpt>
					<trkpt lat="45.920070" lon="4.554540">
						<ele>296</ele>
						<time>2024-10-10T21:21:38Z</time>
					</trkpt>
					<trkpt lat="45.919920" lon="4.553050">
						<ele>306</ele>
						<time>2024-10-10T21:21:57Z</time>
					</trkpt>
					<trkpt lat="45.919970" lon="4.552290">
						<ele>308</ele>
						<time>2024-10-10T21:22:06Z</time>
					</trkpt>
					<trkpt lat="45.919960" lon="4.551920">
						<ele>309</ele>
						<time>2024-10-10T21:22:11Z</time>
					</trkpt>
					<trkpt lat="45.919880" lon="4.551310">
						<ele>313</ele>
						<time>2024-10-10T21:22:19Z</time>
					</trkpt>
					<trkpt lat="45.919820" lon="4.551120">
						<ele>314</ele>
						<time>2024-10-10T21:22:21Z</time>
					</trkpt>
					<trkpt lat="45.919660" lon="4.550770">
						<ele>314</ele>
						<time>2024-10-10T21:22:26Z</time>
					</trkpt>
					<trkpt lat="45.919630" lon="4.550440">
						<ele>315</ele>
						<time>2024-10-10T21:22:31Z</time>
					</trkpt>
					<trkpt lat="45.919660" lon="4.549620">
						<ele>315</ele>
						<time>2024-10-10T21:22:41Z</time>
					</trkpt>
					<trkpt lat="45.919710" lon="4.549210">
						<ele>315</ele>
						<time>2024-10-10T21:22:46Z</time>
					</trkpt>
					<trkpt lat="45.919750" lon="4.549050">
						<ele>316</ele>
						<time>2024-10-10T21:22:48Z</time>
					</trkpt>
					<trkpt lat="45.920120" lon="4.548300">
						<ele>318</ele>
						<time>2024-10-10T21:22:59Z</time>
					</trkpt>
					<trkpt lat="45.920320" lon="4.547620">
						<ele>321</ele>
						<time>2024-10-10T21:23:09Z</time>
					</trkpt>
					<trkpt lat="45.920490" lon="4.547280">
						<ele>323</ele>
						<time>2024-10-10T21:23:14Z</time>
					</trkpt>
					<trkpt lat="45.920700" lon="4.546960">
						<ele>324</ele>
						<time>2024-10-10T21:23:19Z</time>
					</trkpt>
					<trkpt lat="45.920910" lon="4.546570">
						<ele>325</ele>
						<time>2024-10-10T21:23:25Z</time>
					</trkpt>
					<trkpt lat="45.921360" lon="4.545630">
						<ele>328</ele>
						<time>2024-10-10T21:23:39Z</time>
					</trkpt>
					<trkpt lat="45.921500" lon="4.545460">
						<ele>329</ele>
						<time>2024-10-10T21:23:43Z</time>
					</trkpt>
					<trkpt lat="45.921710" lon="4.545280">
						<ele>331</ele>
						<time>2024-10-10T21:23:47Z</time>
					</trkpt>
					<trkpt lat="45.921810" lon="4.545130">
						<ele>332</ele>
						<time>2024-10-10T21:23:50Z</time>
					</trkpt>
					<trkpt lat="45.921880" lon="4.544910">
						<ele>333</ele>
						<time>2024-10-10T21:23:53Z</time>
					</trkpt>
					<trkpt lat="45.921990" lon="4.544260">
						<ele>334</ele>
						<time>2024-10-10T21:24:01Z</time>
					</trkpt>
					<trkpt lat="45.922120" lon="4.543850">
						<ele>334</ele>
						<time>2024-10-10T21:24:06Z</time>
					</trkpt>
					<trkpt lat="45.922220" lon="4.543620">
						<ele>334</ele>
						<time>2024-10-10T21:24:10Z</time>
					</trkpt>
					<trkpt lat="45.923120" lon="4.542180">
						<ele>337</ele>
						<time>2024-10-10T21:24:34Z</time>
					</trkpt>
					<trkpt lat="45.923420" lon="4.541610">
						<ele>337</ele>
						<time>2024-10-10T21:24:43Z</time>
					</trkpt>
					<trkpt lat="45.923680" lon="4.541170">
						<ele>339</ele>
						<time>2024-10-10T21:24:50Z</time>
					</trkpt>
					<trkpt lat="45.924710" lon="4.539320">
						<ele>346</ele>
						<time>2024-10-10T21:25:19Z</time>
					</trkpt>
					<trkpt lat="45.925180" lon="4.538810">
						<ele>349</ele>
						<time>2024-10-10T21:25:30Z</time>
					</trkpt>
					<trkpt lat="45.926720" lon="4.537320">
						<ele>357</ele>
						<time>2024-10-10T21:26:03Z</time>
					</trkpt>
					<trkpt lat="45.926820" lon="4.537200">
						<ele>358</ele>
						<time>2024-10-10T21:26:05Z</time>
					</trkpt>
					<trkpt lat="45.926860" lon="4.537070">
						<ele>358</ele>
						<time>2024-10-10T21:26:07Z</time>
					</trkpt>
					<trkpt lat="45.926860" lon="4.536980">
						<ele>358</ele>
						<time>2024-10-10T21:26:08Z</time>
					</trkpt>
					<trkpt lat="45.926810" lon="4.536870">
						<ele>357</ele>
						<time>2024-10-10T21:26:09Z</time>
					</trkpt>
					<trkpt lat="45.926710" lon="4.536800">
						<ele>357</ele>
						<time>2024-10-10T21:26:11Z</time>
					</trkpt>
					<trkpt lat="45.926200" lon="4.536690">
						<ele>359</ele>
						<time>2024-10-10T21:26:21Z</time>
					</trkpt>
					<trkpt lat="45.925840" lon="4.536640">
						<ele>361</ele>
						<time>2024-10-10T21:26:27Z</time>
					</trkpt>
					<trkpt lat="45.925580" lon="4.536640">
						<ele>363</ele>
						<time>2024-10-10T21:26:32Z</time>
					</trkpt>
					<trkpt lat="45.925080" lon="4.536700">
						<ele>367</ele>
						<time>2024-10-10T21:26:41Z</time>
					</trkpt>
					<trkpt lat="45.924820" lon="4.536740">
						<ele>369</ele>
						<time>2024-10-10T21:26:45Z</time>
					</trkpt>
					<trkpt lat="45.924570" lon="4.536900">
						<ele>370</ele>
						<time>2024-10-10T21:26:50Z</time>
					</trkpt>
					<trkpt lat="45.924350" lon="4.536980">
						<ele>371</ele>
						<time>2024-10-10T21:26:54Z</time>
					</trkpt>
					<trkpt lat="45.924200" lon="4.536950">
						<ele>373</ele>
						<time>2024-10-10T21:26:57Z</time>
					</trkpt>
					<trkpt lat="45.923890" lon="4.536860">
						<ele>375</ele>
						<time>2024-10-10T21:27:02Z</time>
					</trkpt>
					<trkpt lat="45.923780" lon="4.536860">
						<ele>375</ele>
						<time>2024-10-10T21:27:04Z</time>
					</trkpt>
					<trkpt lat="45.923680" lon="4.536900">
						<ele>375</ele>
						<time>2024-10-10T21:27:06Z</time>
					</trkpt>
					<trkpt lat="45.923420" lon="4.537070">
						<ele>375</ele>
						<time>2024-10-10T21:27:11Z</time>
					</trkpt>
					<trkpt lat="45.923340" lon="4.537090">
						<ele>375</ele>
						<time>2024-10-10T21:27:13Z</time>
					</trkpt>
					<trkpt lat="45.923250" lon="4.537090">
						<ele>375</ele>
						<time>2024-10-10T21:27:14Z</time>
					</trkpt>
					<trkpt lat="45.923160" lon="4.537040">
						<ele>376</ele>
						<time>2024-10-10T21:27:16Z</time>
					</trkpt>
					<trkpt lat="45.923080" lon="4.536950">
						<ele>376</ele>
						<time>2024-10-10T21:27:18Z</time>
					</trkpt>
					<trkpt lat="45.922970" lon="4.536780">
						<ele>376</ele>
						<time>2024-10-10T21:27:21Z</time>
					</trkpt>
					<trkpt lat="45.922910" lon="4.536600">
						<ele>376</ele>
						<time>2024-10-10T21:27:23Z</time>
					</trkpt>
					<trkpt lat="45.922880" lon="4.536390">
						<ele>376</ele>
						<time>2024-10-10T21:27:26Z</time>
					</trkpt>
					<trkpt lat="45.922880" lon="4.536190">
						<ele>375</ele>
						<time>2024-10-10T21:27:28Z</time>
					</trkpt>
					<trkpt lat="45.922910" lon="4.535990">
						<ele>375</ele>
						<time>2024-10-10T21:27:31Z</time>
					</trkpt>
					<trkpt lat="45.924430" lon="4.529530">
						<ele>369</ele>
						<time>2024-10-10T21:28:55Z</time>
					</trkpt>
					<trkpt lat="45.924410" lon="4.529280">
						<ele>369</ele>
						<time>2024-10-10T21:28:58Z</time>
					</trkpt>
					<trkpt lat="45.924280" lon="4.529060">
						<ele>369</ele>
						<time>2024-10-10T21:29:02Z</time>
					</trkpt>
					<trkpt lat="45.924200" lon="4.529000">
						<ele>370</ele>
						<time>2024-10-10T21:29:04Z</time>
					</trkpt>
					<trkpt lat="45.924110" lon="4.528950">
						<ele>371</ele>
						<time>2024-10-10T21:29:05Z</time>
					</trkpt>
					<trkpt lat="45.924010" lon="4.528950">
						<ele>372</ele>
						<time>2024-10-10T21:29:07Z</time>
					</trkpt>
					<trkpt lat="45.923870" lon="4.528970">
						<ele>373</ele>
						<time>2024-10-10T21:29:10Z</time>
					</trkpt>
					<trkpt lat="45.923750" lon="4.529020">
						<ele>374</ele>
						<time>2024-10-10T21:29:12Z</time>
					</trkpt>
					<trkpt lat="45.923450" lon="4.529260">
						<ele>374</ele>
						<time>2024-10-10T21:29:18Z</time>
					</trkpt>
					<trkpt lat="45.923010" lon="4.529720">
						<ele>370</ele>
						<time>2024-10-10T21:29:28Z</time>
					</trkpt>
					<trkpt lat="45.922780" lon="4.529890">
						<ele>370</ele>
						<time>2024-10-10T21:29:32Z</time>
					</trkpt>
					<trkpt lat="45.922500" lon="4.529980">
						<ele>371</ele>
						<time>2024-10-10T21:29:37Z</time>
					</trkpt>
					<trkpt lat="45.922320" lon="4.529960">
						<ele>371</ele>
						<time>2024-10-10T21:29:40Z</time>
					</trkpt>
					<trkpt lat="45.922220" lon="4.529910">
						<ele>371</ele>
						<time>2024-10-10T21:29:42Z</time>
					</trkpt>
					<trkpt lat="45.921970" lon="4.529700">
						<ele>373</ele>
						<time>2024-10-10T21:29:48Z</time>
					</trkpt>
					<trkpt lat="45.921880" lon="4.529580">
						<ele>373</ele>
						<time>2024-10-10T21:29:50Z</time>
					</trkpt>
					<trkpt lat="45.921790" lon="4.529390">
						<ele>374</ele>
						<time>2024-10-10T21:29:53Z</time>
					</trkpt>
					<trkpt lat="45.921610" lon="4.528870">
						<ele>378</ele>
						<time>2024-10-10T21:30:00Z</time>
					</trkpt>
					<trkpt lat="45.921530" lon="4.528740">
						<ele>379</ele>
						<time>2024-10-10T21:30:02Z</time>
					</trkpt>
					<trkpt lat="45.921410" lon="4.528620">
						<ele>380</ele>
						<time>2024-10-10T21:30:04Z</time>
					</trkpt>
					<trkpt lat="45.921300" lon="4.528530">
						<ele>381</ele>
						<time>2024-10-10T21:30:07Z</time>
					</trkpt>
					<trkpt lat="45.921010" lon="4.528480">
						<ele>382</ele>
						<time>2024-10-10T21:30:12Z</time>
					</trkpt>
					<trkpt lat="45.920680" lon="4.528510">
						<ele>382</ele>
						<time>2024-10-10T21:30:18Z</time>
					</trkpt>
					<trkpt lat="45.920080" lon="4.528860">
						<ele>384</ele>
						<time>2024-10-10T21:30:29Z</time>
					</trkpt>
					<trkpt lat="45.919970" lon="4.528900">
						<ele>384</ele>
						<time>2024-10-10T21:30:31Z</time>
					</trkpt>
					<trkpt lat="45.919740" lon="4.528900">
						<ele>385</ele>
						<time>2024-10-10T21:30:35Z</time>
					</trkpt>
					<trkpt lat="45.919640" lon="4.528870">
						<ele>385</ele>
						<time>2024-10-10T21:30:37Z</time>
					</trkpt>
					<trkpt lat="45.919460" lon="4.528730">
						<ele>386</ele>
						<time>2024-10-10T21:30:41Z</time>
					</trkpt>
					<trkpt lat="45.919260" lon="4.528440">
						<ele>388</ele>
						<time>2024-10-10T21:30:46Z</time>
					</trkpt>
					<trkpt lat="45.919020" lon="4.527980">
						<ele>390</ele>
						<time>2024-10-10T21:30:53Z</time>
					</trkpt>
					<trkpt lat="45.919840" lon="4.525900">
						<ele>383</ele>
						<time>2024-10-10T21:31:23Z</time>
					</trkpt>
					<trkpt lat="45.919930" lon="4.525600">
						<ele>382</ele>
						<time>2024-10-10T21:31:27Z</time>
					</trkpt>
					<trkpt lat="45.919970" lon="4.525360">
						<ele>381</ele>
						<time>2024-10-10T21:31:30Z</time>
					</trkpt>
					<trkpt lat="45.919970" lon="4.525080">
						<ele>379</ele>
						<time>2024-10-10T21:31:33Z</time>
					</trkpt>
					<trkpt lat="45.919920" lon="4.524060">
						<ele>376</ele>
						<time>2024-10-10T21:31:46Z</time>
					</trkpt>
					<trkpt lat="45.919930" lon="4.523560">
						<ele>375</ele>
						<time>2024-10-10T21:31:52Z</time>
					</trkpt>
					<trkpt lat="45.919970" lon="4.522850">
						<ele>372</ele>
						<time>2024-10-10T21:32:01Z</time>
					</trkpt>
					<trkpt lat="45.920030" lon="4.522400">
						<ele>370</ele>
						<time>2024-10-10T21:32:07Z</time>
					</trkpt>
					<trkpt lat="45.920130" lon="4.521890">
						<ele>367</ele>
						<time>2024-10-10T21:32:13Z</time>
					</trkpt>
					<trkpt lat="45.920360" lon="4.521010">
						<ele>368</ele>
						<time>2024-10-10T21:32:25Z</time>
					</trkpt>
					<trkpt lat="45.920670" lon="4.520240">
						<ele>366</ele>
						<time>2024-10-10T21:32:36Z</time>
					</trkpt>
					<trkpt lat="45.920700" lon="4.520080">
						<ele>365</ele>
						<time>2024-10-10T21:32:38Z</time>
					</trkpt>
					<trkpt lat="45.920700" lon="4.519850">
						<ele>365</ele>
						<time>2024-10-10T21:32:41Z</time>
					</trkpt>
					<trkpt lat="45.920680" lon="4.519700">
						<ele>365</ele>
						<time>2024-10-10T21:32:43Z</time>
					</trkpt>
					<trkpt lat="45.920640" lon="4.519560">
						<ele>366</ele>
						<time>2024-10-10T21:32:44Z</time>
					</trkpt>
					<trkpt lat="45.920540" lon="4.519440">
						<ele>366</ele>
						<time>2024-10-10T21:32:47Z</time>
					</trkpt>
					<trkpt lat="45.920400" lon="4.519330">
						<ele>367</ele>
						<time>2024-10-10T21:32:50Z</time>
					</trkpt>
					<trkpt lat="45.920200" lon="4.519300">
						<ele>368</ele>
						<time>2024-10-10T21:32:53Z</time>
					</trkpt>
					<trkpt lat="45.920060" lon="4.519310">
						<ele>368</ele>
						<time>2024-10-10T21:32:56Z</time>
					</trkpt>
					<trkpt lat="45.919870" lon="4.519400">
						<ele>368</ele>
						<time>2024-10-10T21:32:59Z</time>
					</trkpt>
					<trkpt lat="45.919610" lon="4.519590">
						<ele>369</ele>
						<time>2024-10-10T21:33:04Z</time>
					</trkpt>
					<trkpt lat="45.919140" lon="4.520160">
						<ele>368</ele>
						<time>2024-10-10T21:33:15Z</time>
					</trkpt>
					<trkpt lat="45.918910" lon="4.520390">
						<ele>369</ele>
						<time>2024-10-10T21:33:20Z</time>
					</trkpt>
					<trkpt lat="45.918700" lon="4.520510">
						<ele>370</ele>
						<time>2024-10-10T21:33:24Z</time>
					</trkpt>
					<trkpt lat="45.917900" lon="4.520880">
						<ele>373</ele>
						<time>2024-10-10T21:33:39Z</time>
					</trkpt>
					<trkpt lat="45.917280" lon="4.521210">
						<ele>377</ele>
						<time>2024-10-10T21:33:51Z</time>
					</trkpt>
					<trkpt lat="45.917100" lon="4.521350">
						<ele>377</ele>
						<time>2024-10-10T21:33:55Z</time>
					</trkpt>
					<trkpt lat="45.916670" lon="4.522000">
						<ele>376</ele>
						<time>2024-10-10T21:34:06Z</time>
					</trkpt>
					<trkpt lat="45.916510" lon="4.522190">
						<ele>377</ele>
						<time>2024-10-10T21:34:10Z</time>
					</trkpt>
					<trkpt lat="45.916280" lon="4.522380">
						<ele>378</ele>
						<time>2024-10-10T21:34:14Z</time>
					</trkpt>
					<trkpt lat="45.915940" lon="4.522620">
						<ele>381</ele>
						<time>2024-10-10T21:34:21Z</time>
					</trkpt>
					<trkpt lat="45.915830" lon="4.522660">
						<ele>381</ele>
						<time>2024-10-10T21:34:23Z</time>
					</trkpt>
					<trkpt lat="45.915730" lon="4.522670">
						<ele>381</ele>
						<time>2024-10-10T21:34:25Z</time>
					</trkpt>
					<trkpt lat="45.915610" lon="4.522640">
						<ele>381</ele>
						<time>2024-10-10T21:34:27Z</time>
					</trkpt>
					<trkpt lat="45.915240" lon="4.522410">
						<ele>382</ele>
						<time>2024-10-10T21:34:34Z</time>
					</trkpt>
					<trkpt lat="45.914760" lon="4.522140">
						<ele>380</ele>
						<time>2024-10-10T21:34:43Z</time>
					</trkpt>
					<trkpt lat="45.912980" lon="4.520100">
						<ele>372</ele>
						<time>2024-10-10T21:35:24Z</time>
					</trkpt>
					<trkpt lat="45.912630" lon="4.519660">
						<ele>369</ele>
						<time>2024-10-10T21:35:32Z</time>
					</trkpt>
					<trkpt lat="45.912550" lon="4.519500">
						<ele>368</ele>
						<time>2024-10-10T21:35:35Z</time>
					</trkpt>
					<trkpt lat="45.912480" lon="4.519280">
						<ele>367</ele>
						<time>2024-10-10T21:35:38Z</time>
					</trkpt>
					<trkpt lat="45.912440" lon="4.519080">
						<ele>366</ele>
						<time>2024-10-10T21:35:40Z</time>
					</trkpt>
					<trkpt lat="45.912430" lon="4.518900">
						<ele>365</ele>
						<time>2024-10-10T21:35:42Z</time>
					</trkpt>
					<trkpt lat="45.912470" lon="4.518600">
						<ele>364</ele>
						<time>2024-10-10T21:35:46Z</time>
					</trkpt>
					<trkpt lat="45.912710" lon="4.517900">
						<ele>363</ele>
						<time>2024-10-10T21:35:56Z</time>
					</trkpt>
					<trkpt lat="45.912760" lon="4.517680">
						<ele>362</ele>
						<time>2024-10-10T21:35:59Z</time>
					</trkpt>
					<trkpt lat="45.912780" lon="4.517540">
						<ele>362</ele>
						<time>2024-10-10T21:36:00Z</time>
					</trkpt>
					<trkpt lat="45.912740" lon="4.517290">
						<ele>362</ele>
						<time>2024-10-10T21:36:04Z</time>
					</trkpt>
					<trkpt lat="45.912680" lon="4.517180">
						<ele>362</ele>
						<time>2024-10-10T21:36:05Z</time>
					</trkpt>
					<trkpt lat="45.912590" lon="4.517080">
						<ele>362</ele>
						<time>2024-10-10T21:36:07Z</time>
					</trkpt>
					<trkpt lat="45.912450" lon="4.517030">
						<ele>361</ele>
						<time>2024-10-10T21:36:10Z</time>
					</trkpt>
					<trkpt lat="45.911900" lon="4.516910">
						<ele>354</ele>
						<time>2024-10-10T21:36:20Z</time>
					</trkpt>
					<trkpt lat="45.911730" lon="4.516840">
						<ele>352</ele>
						<time>2024-10-10T21:36:23Z</time>
					</trkpt>
					<trkpt lat="45.911580" lon="4.516740">
						<ele>350</ele>
						<time>2024-10-10T21:36:26Z</time>
					</trkpt>
					<trkpt lat="45.911430" lon="4.516600">
						<ele>348</ele>
						<time>2024-10-10T21:36:29Z</time>
					</trkpt>
					<trkpt lat="45.911310" lon="4.516450">
						<ele>346</ele>
						<time>2024-10-10T21:36:32Z</time>
					</trkpt>
					<trkpt lat="45.910850" lon="4.515650">
						<ele>339</ele>
						<time>2024-10-10T21:36:45Z</time>
					</trkpt>
					<trkpt lat="45.910750" lon="4.515320">
						<ele>338</ele>
						<time>2024-10-10T21:36:49Z</time>
					</trkpt>
					<trkpt lat="45.910740" lon="4.515180">
						<ele>338</ele>
						<time>2024-10-10T21:36:51Z</time>
					</trkpt>
					<trkpt lat="45.910770" lon="4.515040">
						<ele>338</ele>
						<time>2024-10-10T21:36:53Z</time>
					</trkpt>
					<trkpt lat="45.910900" lon="4.514700">
						<ele>341</ele>
						<time>2024-10-10T21:36:58Z</time>
					</trkpt>
					<trkpt lat="45.910910" lon="4.514520">
						<ele>342</ele>
						<time>2024-10-10T21:37:00Z</time>
					</trkpt>
					<trkpt lat="45.910850" lon="4.514360">
						<ele>341</ele>
						<time>2024-10-10T21:37:02Z</time>
					</trkpt>
					<trkpt lat="45.910720" lon="4.514170">
						<ele>339</ele>
						<time>2024-10-10T21:37:05Z</time>
					</trkpt>
					<trkpt lat="45.910470" lon="4.514030">
						<ele>334</ele>
						<time>2024-10-10T21:37:10Z</time>
					</trkpt>
					<trkpt lat="45.910180" lon="4.513910">
						<ele>328</ele>
						<time>2024-10-10T21:37:15Z</time>
					</trkpt>
					<trkpt lat="45.910080" lon="4.513820">
						<ele>326</ele>
						<time>2024-10-10T21:37:18Z</time>
					</trkpt>
					<trkpt lat="45.910010" lon="4.513730">
						<ele>325</ele>
						<time>2024-10-10T21:37:19Z</time>
					</trkpt>
					<trkpt lat="45.909960" lon="4.513620">
						<ele>323</ele>
						<time>2024-10-10T21:37:21Z</time>
					</trkpt>
					<trkpt lat="45.909940" lon="4.513480">
						<ele>323</ele>
						<time>2024-10-10T21:37:23Z</time>
					</trkpt>
					<trkpt lat="45.909960" lon="4.513140">
						<ele>322</ele>
						<time>2024-10-10T21:37:27Z</time>
					</trkpt>
					<trkpt lat="45.910150" lon="4.512130">
						<ele>320</ele>
						<time>2024-10-10T21:37:40Z</time>
					</trkpt>
					<trkpt lat="45.910160" lon="4.511820">
						<ele>319</ele>
						<time>2024-10-10T21:37:44Z</time>
					</trkpt>
					<trkpt lat="45.910120" lon="4.511230">
						<ele>315</ele>
						<time>2024-10-10T21:37:51Z</time>
					</trkpt>
					<trkpt lat="45.910140" lon="4.510790">
						<ele>314</ele>
						<time>2024-10-10T21:37:56Z</time>
					</trkpt>
					<trkpt lat="45.910230" lon="4.510460">
						<ele>316</ele>
						<time>2024-10-10T21:38:01Z</time>
					</trkpt>
					<trkpt lat="45.910240" lon="4.510300">
						<ele>317</ele>
						<time>2024-10-10T21:38:03Z</time>
					</trkpt>
					<trkpt lat="45.910210" lon="4.510110">
						<ele>316</ele>
						<time>2024-10-10T21:38:05Z</time>
					</trkpt>
					<trkpt lat="45.910170" lon="4.510070">
						<ele>315</ele>
						<time>2024-10-10T21:38:06Z</time>
					</trkpt>
					<trkpt lat="45.910000" lon="4.510000">
						<ele>311</ele>
						<time>2024-10-10T21:38:09Z</time>
					</trkpt>
					<trkpt lat="45.909880" lon="4.509930">
						<ele>311</ele>
						<time>2024-10-10T21:38:12Z</time>
					</trkpt>
					<trkpt lat="45.910000" lon="4.510000">
						<ele>311</ele>
						<time>2024-10-10T21:38:14Z</time>
					</trkpt>
					<trkpt lat="45.909880" lon="4.509930">
						<ele>311</ele>
						<time>2024-10-10T21:38:16Z</time>
					</trkpt>
					<trkpt lat="45.909730" lon="4.509900">
						<ele>310</ele>
						<time>2024-10-10T21:38:19Z</time>
					</trkpt>
					<trkpt lat="45.908880" lon="4.509660">
						<ele>318</ele>
						<time>2024-10-10T21:38:34Z</time>
					</trkpt>
					<trkpt lat="45.908740" lon="4.509540">
						<ele>322</ele>
						<time>2024-10-10T21:38:37Z</time>
					</trkpt>
					<trkpt lat="45.908710" lon="4.509410">
						<ele>323</ele>
						<time>2024-10-10T21:38:39Z</time>
					</trkpt>
					<trkpt lat="45.908810" lon="4.507790">
						<ele>322</ele>
						<time>2024-10-10T21:38:59Z</time>
					</trkpt>
					<trkpt lat="45.908780" lon="4.506890">
						<ele>326</ele>
						<time>2024-10-10T21:39:10Z</time>
					</trkpt>
					<trkpt lat="45.908860" lon="4.506010">
						<ele>327</ele>
						<time>2024-10-10T21:39:21Z</time>
					</trkpt>
					<trkpt lat="45.908810" lon="4.505250">
						<ele>331</ele>
						<time>2024-10-10T21:39:31Z</time>
					</trkpt>
					<trkpt lat="45.908870" lon="4.504590">
						<ele>334</ele>
						<time>2024-10-10T21:39:39Z</time>
					</trkpt>
					<trkpt lat="45.908860" lon="4.504080">
						<ele>338</ele>
						<time>2024-10-10T21:39:45Z</time>
					</trkpt>
					<trkpt lat="45.908830" lon="4.503830">
						<ele>340</ele>
						<time>2024-10-10T21:39:48Z</time>
					</trkpt>
					<trkpt lat="45.908650" lon="4.503010">
						<ele>346</ele>
						<time>2024-10-10T21:39:59Z</time>
					</trkpt>
					<trkpt lat="45.908640" lon="4.502010">
						<ele>354</ele>
						<time>2024-10-10T21:40:11Z</time>
					</trkpt>
					<trkpt lat="45.908610" lon="4.501690">
						<ele>358</ele>
						<time>2024-10-10T21:40:15Z</time>
					</trkpt>
					<trkpt lat="45.908510" lon="4.501240">
						<ele>360</ele>
						<time>2024-10-10T21:40:21Z</time>
					</trkpt>
					<trkpt lat="45.908340" lon="4.499980">
						<ele>358</ele>
						<time>2024-10-10T21:40:37Z</time>
					</trkpt>
					<trkpt lat="45.908290" lon="4.499740">
						<ele>358</ele>
						<time>2024-10-10T21:40:40Z</time>
					</trkpt>
					<trkpt lat="45.908200" lon="4.499480">
						<ele>359</ele>
						<time>2024-10-10T21:40:44Z</time>
					</trkpt>
					<trkpt lat="45.908110" lon="4.499320">
						<ele>360</ele>
						<time>2024-10-10T21:40:46Z</time>
					</trkpt>
					<trkpt lat="45.907930" lon="4.499130">
						<ele>361</ele>
						<time>2024-10-10T21:40:50Z</time>
					</trkpt>
					<trkpt lat="45.907830" lon="4.499100">
						<ele>362</ele>
						<time>2024-10-10T21:40:52Z</time>
					</trkpt>
					<trkpt lat="45.907740" lon="4.499100">
						<ele>363</ele>
						<time>2024-10-10T21:40:54Z</time>
					</trkpt>
					<trkpt lat="45.907610" lon="4.499130">
						<ele>365</ele>
						<time>2024-10-10T21:40:56Z</time>
					</trkpt>
					<trkpt lat="45.904800" lon="4.501220">
						<ele>384</ele>
						<time>2024-10-10T21:41:52Z</time>
					</trkpt>
					<trkpt lat="45.904560" lon="4.501280">
						<ele>384</ele>
						<time>2024-10-10T21:41:57Z</time>
					</trkpt>
					<trkpt lat="45.904360" lon="4.501200">
						<ele>385</ele>
						<time>2024-10-10T21:42:00Z</time>
					</trkpt>
					<trkpt lat="45.904240" lon="4.501100">
						<ele>386</ele>
						<time>2024-10-10T21:42:03Z</time>
					</trkpt>
					<trkpt lat="45.904120" lon="4.500940">
						<ele>387</ele>
						<time>2024-10-10T21:42:06Z</time>
					</trkpt>
					<trkpt lat="45.904000" lon="4.500750">
						<ele>388</ele>
						<time>2024-10-10T21:42:09Z</time>
					</trkpt>
					<trkpt lat="45.903910" lon="4.500540">
						<ele>389</ele>
						<time>2024-10-10T21:42:12Z</time>
					</trkpt>
					<trkpt lat="45.903790" lon="4.500040">
						<ele>390</ele>
						<time>2024-10-10T21:42:19Z</time>
					</trkpt>
					<trkpt lat="45.903900" lon="4.498670">
						<ele>397</ele>
						<time>2024-10-10T21:42:36Z</time>
					</trkpt>
					<trkpt lat="45.903980" lon="4.497960">
						<ele>401</ele>
						<time>2024-10-10T21:42:45Z</time>
					</trkpt>
					<trkpt lat="45.904130" lon="4.497040">
						<ele>407</ele>
						<time>2024-10-10T21:42:56Z</time>
					</trkpt>
					<trkpt lat="45.904140" lon="4.496740">
						<ele>408</ele>
						<time>2024-10-10T21:43:00Z</time>
					</trkpt>
					<trkpt lat="45.904090" lon="4.495940">
						<ele>410</ele>
						<time>2024-10-10T21:43:10Z</time>
					</trkpt>
					<trkpt lat="45.904120" lon="4.495650">
						<ele>412</ele>
						<time>2024-10-10T21:43:14Z</time>
					</trkpt>
					<trkpt lat="45.904330" lon="4.494370">
						<ele>418</ele>
						<time>2024-10-10T21:43:30Z</time>
					</trkpt>
					<trkpt lat="45.904340" lon="4.494230">
						<ele>419</ele>
						<time>2024-10-10T21:43:32Z</time>
					</trkpt>
					<trkpt lat="45.904280" lon="4.493790">
						<ele>421</ele>
						<time>2024-10-10T21:43:37Z</time>
					</trkpt>
					<trkpt lat="45.903930" lon="4.492810">
						<ele>428</ele>
						<time>2024-10-10T21:43:51Z</time>
					</trkpt>
					<trkpt lat="45.903880" lon="4.492730">
						<ele>429</ele>
						<time>2024-10-10T21:43:52Z</time>
					</trkpt>
					<trkpt lat="45.903820" lon="4.492680">
						<ele>430</ele>
						<time>2024-10-10T21:43:53Z</time>
					</trkpt>
					<trkpt lat="45.903390" lon="4.492640">
						<ele>434</ele>
						<time>2024-10-10T21:44:01Z</time>
					</trkpt>
					<trkpt lat="45.903230" lon="4.492520">
						<ele>435</ele>
						<time>2024-10-10T21:44:04Z</time>
					</trkpt>
					<trkpt lat="45.903110" lon="4.492210">
						<ele>436</ele>
						<time>2024-10-10T21:44:09Z</time>
					</trkpt>
					<trkpt lat="45.903040" lon="4.491930">
						<ele>437</ele>
						<time>2024-10-10T21:44:12Z</time>
					</trkpt>
					<trkpt lat="45.902930" lon="4.491320">
						<ele>438</ele>
						<time>2024-10-10T21:44:20Z</time>
					</trkpt>
					<trkpt lat="45.902800" lon="4.490830">
						<ele>439</ele>
						<time>2024-10-10T21:44:27Z</time>
					</trkpt>
					<trkpt lat="45.900220" lon="4.485640">
						<ele>438</ele>
						<time>2024-10-10T21:45:46Z</time>
					</trkpt>
					<trkpt lat="45.900030" lon="4.485390">
						<ele>438</ele>
						<time>2024-10-10T21:45:50Z</time>
					</trkpt>
					<trkpt lat="45.899820" lon="4.485320">
						<ele>439</ele>
						<time>2024-10-10T21:45:54Z</time>
					</trkpt>
					<trkpt lat="45.899700" lon="4.485340">
						<ele>440</ele>
						<time>2024-10-10T21:45:56Z</time>
					</trkpt>
					<trkpt lat="45.899590" lon="4.485400">
						<ele>440</ele>
						<time>2024-10-10T21:45:58Z</time>
					</trkpt>
					<trkpt lat="45.899480" lon="4.485500">
						<ele>441</ele>
						<time>2024-10-10T21:46:00Z</time>
					</trkpt>
					<trkpt lat="45.899380" lon="4.485620">
						<ele>441</ele>
						<time>2024-10-10T21:46:03Z</time>
					</trkpt>
					<trkpt lat="45.899290" lon="4.485810">
						<ele>442</ele>
						<time>2024-10-10T21:46:06Z</time>
					</trkpt>
					<trkpt lat="45.899240" lon="4.485970">
						<ele>442</ele>
						<time>2024-10-10T21:46:08Z</time>
					</trkpt>
					<trkpt lat="45.899250" lon="4.486300">
						<ele>442</ele>
						<time>2024-10-10T21:46:12Z</time>
					</trkpt>
					<trkpt lat="45.899310" lon="4.486770">
						<ele>441</ele>
						<time>2024-10-10T21:46:18Z</time>
					</trkpt>
					<trkpt lat="45.899300" lon="4.487280">
						<ele>443</ele>
						<time>2024-10-10T21:46:24Z</time>
					</trkpt>
					<trkpt lat="45.899200" lon="4.487910">
						<ele>444</ele>
						<time>2024-10-10T21:46:32Z</time>
					</trkpt>
					<trkpt lat="45.898990" lon="4.488930">
						<ele>445</ele>
						<time>2024-10-10T21:46:45Z</time>
					</trkpt>
					<trkpt lat="45.898930" lon="4.489160">
						<ele>445</ele>
						<time>2024-10-10T21:46:48Z</time>
					</trkpt>
					<trkpt lat="45.898880" lon="4.489280">
						<ele>445</ele>
						<time>2024-10-10T21:46:50Z</time>
					</trkpt>
					<trkpt lat="45.898690" lon="4.489610">
						<ele>446</ele>
						<time>2024-10-10T21:46:55Z</time>
					</trkpt>
					<trkpt lat="45.898510" lon="4.489760">
						<ele>448</ele>
						<time>2024-10-10T21:46:59Z</time>
					</trkpt>
					<trkpt lat="45.898360" lon="4.489810">
						<ele>450</ele>
						<time>2024-10-10T21:47:02Z</time>
					</trkpt>
					<trkpt lat="45.898150" lon="4.489810">
						<ele>454</ele>
						<time>2024-10-10T21:47:06Z</time>
					</trkpt>
					<trkpt lat="45.897820" lon="4.489890">
						<ele>459</ele>
						<time>2024-10-10T21:47:12Z</time>
					</trkpt>
					<trkpt lat="45.897360" lon="4.490330">
						<ele>461</ele>
						<time>2024-10-10T21:47:21Z</time>
					</trkpt>
					<trkpt lat="45.896830" lon="4.491170">
						<ele>460</ele>
						<time>2024-10-10T21:47:35Z</time>
					</trkpt>
					<trkpt lat="45.896710" lon="4.491310">
						<ele>461</ele>
						<time>2024-10-10T21:47:38Z</time>
					</trkpt>
					<trkpt lat="45.896570" lon="4.491380">
						<ele>462</ele>
						<time>2024-10-10T21:47:41Z</time>
					</trkpt>
					<trkpt lat="45.896200" lon="4.491420">
						<ele>463</ele>
						<time>2024-10-10T21:47:47Z</time>
					</trkpt>
					<trkpt lat="45.895570" lon="4.491570">
						<ele>463</ele>
						<time>2024-10-10T21:47:59Z</time>
					</trkpt>
					<trkpt lat="45.894650" lon="4.491840">
						<ele>463</ele>
						<time>2024-10-10T21:48:15Z</time>
					</trkpt>
					<trkpt lat="45.894390" lon="4.491960">
						<ele>462</ele>
						<time>2024-10-10T21:48:20Z</time>
					</trkpt>
					<trkpt lat="45.894000" lon="4.492200">
						<ele>461</ele>
						<time>2024-10-10T21:48:28Z</time>
					</trkpt>
					<trkpt lat="45.893810" lon="4.492280">
						<ele>462</ele>
						<time>2024-10-10T21:48:31Z</time>
					</trkpt>
					<trkpt lat="45.893520" lon="4.492300">
						<ele>464</ele>
						<time>2024-10-10T21:48:37Z</time>
					</trkpt>
					<trkpt lat="45.893390" lon="4.492260">
						<ele>465</ele>
						<time>2024-10-10T21:48:39Z</time>
					</trkpt>
					<trkpt lat="45.893270" lon="4.492170">
						<ele>465</ele>
						<time>2024-10-10T21:48:41Z</time>
					</trkpt>
					<trkpt lat="45.893130" lon="4.492000">
						<ele>465</ele>
						<time>2024-10-10T21:48:45Z</time>
					</trkpt>
					<trkpt lat="45.892930" lon="4.491660">
						<ele>466</ele>
						<time>2024-10-10T21:48:50Z</time>
					</trkpt>
					<trkpt lat="45.892890" lon="4.491600">
						<ele>466</ele>
						<time>2024-10-10T21:48:51Z</time>
					</trkpt>
					<trkpt lat="45.892740" lon="4.491370">
						<ele>466</ele>
						<time>2024-10-10T21:48:55Z</time>
					</trkpt>
					<trkpt lat="45.892580" lon="4.491190">
						<ele>466</ele>
						<time>2024-10-10T21:48:59Z</time>
					</trkpt>
					<trkpt lat="45.892470" lon="4.491110">
						<ele>467</ele>
						<time>2024-10-10T21:49:01Z</time>
					</trkpt>
					<trkpt lat="45.892390" lon="4.491050">
						<ele>467</ele>
						<time>2024-10-10T21:49:02Z</time>
					</trkpt>
					<trkpt lat="45.892260" lon="4.490990">
						<ele>468</ele>
						<time>2024-10-10T21:49:05Z</time>
					</trkpt>
					<trkpt lat="45.892180" lon="4.490950">
						<ele>468</ele>
						<time>2024-10-10T21:49:06Z</time>
					</trkpt>
					<trkpt lat="45.891960" lon="4.490930">
						<ele>469</ele>
						<time>2024-10-10T21:49:10Z</time>
					</trkpt>
					<trkpt lat="45.891400" lon="4.491150">
						<ele>470</ele>
						<time>2024-10-10T21:49:21Z</time>
					</trkpt>
					<trkpt lat="45.891260" lon="4.491290">
						<ele>470</ele>
						<time>2024-10-10T21:49:24Z</time>
					</trkpt>
					<trkpt lat="45.891190" lon="4.491530">
						<ele>469</ele>
						<time>2024-10-10T21:49:27Z</time>
					</trkpt>
					<trkpt lat="45.891180" lon="4.492060">
						<ele>467</ele>
						<time>2024-10-10T21:49:33Z</time>
					</trkpt>
					<trkpt lat="45.891160" lon="4.492210">
						<ele>466</ele>
						<time>2024-10-10T21:49:35Z</time>
					</trkpt>
					<trkpt lat="45.891070" lon="4.492540">
						<ele>465</ele>
						<time>2024-10-10T21:49:40Z</time>
					</trkpt>
					<trkpt lat="45.890690" lon="4.493450">
						<ele>460</ele>
						<time>2024-10-10T21:49:53Z</time>
					</trkpt>
					<trkpt lat="45.890540" lon="4.493690">
						<ele>458</ele>
						<time>2024-10-10T21:49:57Z</time>
					</trkpt>
					<trkpt lat="45.890420" lon="4.493820">
						<ele>458</ele>
						<time>2024-10-10T21:50:00Z</time>
					</trkpt>
					<trkpt lat="45.890170" lon="4.494000">
						<ele>458</ele>
						<time>2024-10-10T21:50:05Z</time>
					</trkpt>
					<trkpt lat="45.890070" lon="4.494030">
						<ele>458</ele>
						<time>2024-10-10T21:50:06Z</time>
					</trkpt>
					<trkpt lat="45.889930" lon="4.494010">
						<ele>458</ele>
						<time>2024-10-10T21:50:09Z</time>
					</trkpt>
					<trkpt lat="45.889860" lon="4.493970">
						<ele>457</ele>
						<time>2024-10-10T21:50:10Z</time>
					</trkpt>
					<trkpt lat="45.889700" lon="4.493810">
						<ele>457</ele>
						<time>2024-10-10T21:50:14Z</time>
					</trkpt>
					<trkpt lat="45.889580" lon="4.493640">
						<ele>456</ele>
						<time>2024-10-10T21:50:17Z</time>
					</trkpt>
					<trkpt lat="45.889530" lon="4.493830">
						<ele>455</ele>
						<time>2024-10-10T21:50:19Z</time>
					</trkpt>
					<trkpt lat="45.889520" lon="4.494010">
						<ele>454</ele>
						<time>2024-10-10T21:50:21Z</time>
					</trkpt>
					<trkpt lat="45.889530" lon="4.494150">
						<ele>454</ele>
						<time>2024-10-10T21:50:23Z</time>
					</trkpt>
					<trkpt lat="45.889560" lon="4.494270">
						<ele>453</ele>
						<time>2024-10-10T21:50:25Z</time>
					</trkpt>
					<trkpt lat="45.889610" lon="4.494360">
						<ele>452</ele>
						<time>2024-10-10T21:50:26Z</time>
					</trkpt>
					<trkpt lat="45.889900" lon="4.494650">
						<ele>452</ele>
						<time>2024-10-10T21:50:32Z</time>
					</trkpt>
					<trkpt lat="45.890000" lon="4.494810">
						<ele>451</ele>
						<time>2024-10-10T21:50:35Z</time>
					</trkpt>
					<trkpt lat="45.890230" lon="4.495320">
						<ele>445</ele>
						<time>2024-10-10T21:50:43Z</time>
					</trkpt>
					<trkpt lat="45.890280" lon="4.495470">
						<ele>444</ele>
						<time>2024-10-10T21:50:45Z</time>
					</trkpt>
					<trkpt lat="45.890320" lon="4.495660">
						<ele>442</ele>
						<time>2024-10-10T21:50:47Z</time>
					</trkpt>
					<trkpt lat="45.890350" lon="4.495940">
						<ele>440</ele>
						<time>2024-10-10T21:50:51Z</time>
					</trkpt>
					<trkpt lat="45.890370" lon="4.496410">
						<ele>438</ele>
						<time>2024-10-10T21:50:56Z</time>
					</trkpt>
					<trkpt lat="45.890360" lon="4.496610">
						<ele>437</ele>
						<time>2024-10-10T21:50:59Z</time>
					</trkpt>
					<trkpt lat="45.890210" lon="4.497530">
						<ele>435</ele>
						<time>2024-10-10T21:51:11Z</time>
					</trkpt>
					<trkpt lat="45.890160" lon="4.498340">
						<ele>433</ele>
						<time>2024-10-10T21:51:21Z</time>
					</trkpt>
					<trkpt lat="45.890060" lon="4.499040">
						<ele>430</ele>
						<time>2024-10-10T21:51:30Z</time>
					</trkpt>
					<trkpt lat="45.890060" lon="4.501960">
						<ele>416</ele>
						<time>2024-10-10T21:52:06Z</time>
					</trkpt>
					<trkpt lat="45.890030" lon="4.502500">
						<ele>416</ele>
						<time>2024-10-10T21:52:12Z</time>
					</trkpt>
					<trkpt lat="45.889950" lon="4.502760">
						<ele>416</ele>
						<time>2024-10-10T21:52:16Z</time>
					</trkpt>
					<trkpt lat="45.889650" lon="4.503350">
						<ele>412</ele>
						<time>2024-10-10T21:52:25Z</time>
					</trkpt>
					<trkpt lat="45.888880" lon="4.504780">
						<ele>405</ele>
						<time>2024-10-10T21:52:47Z</time>
					</trkpt>
					<trkpt lat="45.888550" lon="4.505460">
						<ele>401</ele>
						<time>2024-10-10T21:52:58Z</time>
					</trkpt>
					<trkpt lat="45.888410" lon="4.505770">
						<ele>399</ele>
						<time>2024-10-10T21:53:02Z</time>
					</trkpt>
					<trkpt lat="45.888090" lon="4.506730">
						<ele>397</ele>
						<time>2024-10-10T21:53:15Z</time>
					</trkpt>
					<trkpt lat="45.887980" lon="4.506990">
						<ele>396</ele>
						<time>2024-10-10T21:53:19Z</time>
					</trkpt>
					<trkpt lat="45.887830" lon="4.507240">
						<ele>394</ele>
						<time>2024-10-10T21:53:23Z</time>
					</trkpt>
					<trkpt lat="45.887480" lon="4.507560">
						<ele>390</ele>
						<time>2024-10-10T21:53:31Z</time>
					</trkpt>
					<trkpt lat="45.887330" lon="4.507770">
						<ele>389</ele>
						<time>2024-10-10T21:53:34Z</time>
					</trkpt>
					<trkpt lat="45.887220" lon="4.508030">
						<ele>389</ele>
						<time>2024-10-10T21:53:38Z</time>
					</trkpt>
					<trkpt lat="45.887190" lon="4.509010">
						<ele>390</ele>
						<time>2024-10-10T21:53:50Z</time>
					</trkpt>
					<trkpt lat="45.887230" lon="4.509780">
						<ele>388</ele>
						<time>2024-10-10T21:54:00Z</time>
					</trkpt>
					<trkpt lat="45.887210" lon="4.509940">
						<ele>387</ele>
						<time>2024-10-10T21:54:02Z</time>
					</trkpt>
					<trkpt lat="45.887180" lon="4.510040">
						<ele>387</ele>
						<time>2024-10-10T21:54:03Z</time>
					</trkpt>
					<trkpt lat="45.886320" lon="4.511450">
						<ele>378</ele>
						<time>2024-10-10T21:54:26Z</time>
					</trkpt>
					<trkpt lat="45.886020" lon="4.512080">
						<ele>376</ele>
						<time>2024-10-10T21:54:36Z</time>
					</trkpt>
					<trkpt lat="45.884950" lon="4.514170">
						<ele>371</ele>
						<time>2024-10-10T21:55:08Z</time>
					</trkpt>
					<trkpt lat="45.884830" lon="4.514480">
						<ele>370</ele>
						<time>2024-10-10T21:55:12Z</time>
					</trkpt>
					<trkpt lat="45.884750" lon="4.514850">
						<ele>369</ele>
						<time>2024-10-10T21:55:17Z</time>
					</trkpt>
					<trkpt lat="45.884570" lon="4.515960">
						<ele>365</ele>
						<time>2024-10-10T21:55:31Z</time>
					</trkpt>
					<trkpt lat="45.884450" lon="4.516560">
						<ele>363</ele>
						<time>2024-10-10T21:55:39Z</time>
					</trkpt>
					<trkpt lat="45.884130" lon="4.516500">
						<ele>363</ele>
						<time>2024-10-10T21:55:45Z</time>
					</trkpt>
					<trkpt lat="45.883330" lon="4.516600">
						<ele>360</ele>
						<time>2024-10-10T21:55:59Z</time>
					</trkpt>
					<trkpt lat="45.883240" lon="4.516640">
						<ele>360</ele>
						<time>2024-10-10T21:56:01Z</time>
					</trkpt>
					<trkpt lat="45.883010" lon="4.517600">
						<ele>355</ele>
						<time>2024-10-10T21:56:13Z</time>
					</trkpt>
					<trkpt lat="45.883240" lon="4.517740">
						<ele>354</ele>
						<time>2024-10-10T21:56:18Z</time>
					</trkpt>
					<trkpt lat="45.883600" lon="4.518210">
						<ele>353</ele>
						<time>2024-10-10T21:56:26Z</time>
					</trkpt>
					<trkpt lat="45.883560" lon="4.518280">
						<ele>353</ele>
						<time>2024-10-10T21:56:28Z</time>
					</trkpt>
					<trkpt lat="45.883540" lon="4.518420">
						<ele>353</ele>
						<time>2024-10-10T21:56:29Z</time>
					</trkpt>
					<trkpt lat="45.883600" lon="4.519710">
						<ele>353</ele>
						<time>2024-10-10T21:56:45Z</time>
					</trkpt>
					<trkpt lat="45.883690" lon="4.520600">
						<ele>351</ele>
						<time>2024-10-10T21:56:57Z</time>
					</trkpt>
					<trkpt lat="45.884000" lon="4.521680">
						<ele>348</ele>
						<time>2024-10-10T21:57:11Z</time>
					</trkpt>
					<trkpt lat="45.884070" lon="4.522570">
						<ele>346</ele>
						<time>2024-10-10T21:57:22Z</time>
					</trkpt>
					<trkpt lat="45.884150" lon="4.522920">
						<ele>347</ele>
						<time>2024-10-10T21:57:27Z</time>
					</trkpt>
					<trkpt lat="45.884140" lon="4.523170">
						<ele>347</ele>
						<time>2024-10-10T21:57:30Z</time>
					</trkpt>
					<trkpt lat="45.884070" lon="4.523490">
						<ele>349</ele>
						<time>2024-10-10T21:57:34Z</time>
					</trkpt>
					<trkpt lat="45.884050" lon="4.523650">
						<ele>349</ele>
						<time>2024-10-10T21:57:36Z</time>
					</trkpt>
					<trkpt lat="45.884090" lon="4.524810">
						<ele>355</ele>
						<time>2024-10-10T21:57:50Z</time>
					</trkpt>
					<trkpt lat="45.884080" lon="4.524970">
						<ele>355</ele>
						<time>2024-10-10T21:57:52Z</time>
					</trkpt>
					<trkpt lat="45.883630" lon="4.526200">
						<ele>356</ele>
						<time>2024-10-10T21:58:10Z</time>
					</trkpt>
					<trkpt lat="45.883540" lon="4.526370">
						<ele>356</ele>
						<time>2024-10-10T21:58:12Z</time>
					</trkpt>
					<trkpt lat="45.883470" lon="4.526580">
						<ele>356</ele>
						<time>2024-10-10T21:58:15Z</time>
					</trkpt>
					<trkpt lat="45.883350" lon="4.527330">
						<ele>355</ele>
						<time>2024-10-10T21:58:25Z</time>
					</trkpt>
					<trkpt lat="45.883210" lon="4.528850">
						<ele>354</ele>
						<time>2024-10-10T21:58:44Z</time>
					</trkpt>
					<trkpt lat="45.883040" lon="4.529870">
						<ele>354</ele>
						<time>2024-10-10T21:58:57Z</time>
					</trkpt>
					<trkpt lat="45.883030" lon="4.530050">
						<ele>353</ele>
						<time>2024-10-10T21:58:59Z</time>
					</trkpt>
					<trkpt lat="45.883040" lon="4.530940">
						<ele>352</ele>
						<time>2024-10-10T21:59:10Z</time>
					</trkpt>
					<trkpt lat="45.882990" lon="4.531970">
						<ele>351</ele>
						<time>2024-10-10T21:59:23Z</time>
					</trkpt>
					<trkpt lat="45.882750" lon="4.533010">
						<ele>349</ele>
						<time>2024-10-10T21:59:36Z</time>
					</trkpt>
					<trkpt lat="45.882590" lon="4.533950">
						<ele>348</ele>
						<time>2024-10-10T21:59:48Z</time>
					</trkpt>
					<trkpt lat="45.882600" lon="4.534190">
						<ele>347</ele>
						<time>2024-10-10T21:59:51Z</time>
					</trkpt>
					<trkpt lat="45.882680" lon="4.534570">
						<ele>347</ele>
						<time>2024-10-10T21:59:56Z</time>
					</trkpt>
					<trkpt lat="45.882720" lon="4.535140">
						<ele>346</ele>
						<time>2024-10-10T22:00:03Z</time>
					</trkpt>
					<trkpt lat="45.882730" lon="4.535480">
						<ele>346</ele>
						<time>2024-10-10T22:00:07Z</time>
					</trkpt>
					<trkpt lat="45.882720" lon="4.535780">
						<ele>346</ele>
						<time>2024-10-10T22:00:11Z</time>
					</trkpt>
					<trkpt lat="45.882750" lon="4.535990">
						<ele>346</ele>
						<time>2024-10-10T22:00:14Z</time>
					</trkpt>
					<trkpt lat="45.882920" lon="4.536380">
						<ele>345</ele>
						<time>2024-10-10T22:00:19Z</time>
					</trkpt>
					<trkpt lat="45.882970" lon="4.536550">
						<ele>345</ele>
						<time>2024-10-10T22:00:22Z</time>
					</trkpt>
					<trkpt lat="45.883020" lon="4.536810">
						<ele>345</ele>
						<time>2024-10-10T22:00:25Z</time>
					</trkpt>
					<trkpt lat="45.883110" lon="4.537560">
						<ele>347</ele>
						<time>2024-10-10T22:00:35Z</time>
					</trkpt>
					<trkpt lat="45.883230" lon="4.538030">
						<ele>348</ele>
						<time>2024-10-10T22:00:41Z</time>
					</trkpt>
					<trkpt lat="45.883540" lon="4.539020">
						<ele>351</ele>
						<time>2024-10-10T22:00:54Z</time>
					</trkpt>
					<trkpt lat="45.883710" lon="4.539490">
						<ele>354</ele>
						<time>2024-10-10T22:01:01Z</time>
					</trkpt>
					<trkpt lat="45.883830" lon="4.539960">
						<ele>356</ele>
						<time>2024-10-10T22:01:07Z</time>
					</trkpt>
					<trkpt lat="45.883810" lon="4.540140">
						<ele>357</ele>
						<time>2024-10-10T22:01:09Z</time>
					</trkpt>
					<trkpt lat="45.883620" lon="4.541200">
						<ele>359</ele>
						<time>2024-10-10T22:01:23Z</time>
					</trkpt>
					<trkpt lat="45.883620" lon="4.541540">
						<ele>360</ele>
						<time>2024-10-10T22:01:27Z</time>
					</trkpt>
					<trkpt lat="45.883750" lon="4.542200">
						<ele>360</ele>
						<time>2024-10-10T22:01:35Z</time>
					</trkpt>
					<trkpt lat="45.883760" lon="4.542370">
						<ele>361</ele>
						<time>2024-10-10T22:01:38Z</time>
					</trkpt>
					<trkpt lat="45.883670" lon="4.543020">
						<ele>362</ele>
						<time>2024-10-10T22:01:46Z</time>
					</trkpt>
					<trkpt lat="45.883640" lon="4.543500">
						<ele>362</ele>
						<time>2024-10-10T22:01:52Z</time>
					</trkpt>
					<trkpt lat="45.883850" lon="4.544920">
						<ele>362</ele>
						<time>2024-10-10T22:02:10Z</time>
					</trkpt>
					<trkpt lat="45.884290" lon="4.546630">
						<ele>362</ele>
						<time>2024-10-10T22:02:32Z</time>
					</trkpt>
					<trkpt lat="45.884770" lon="4.547960">
						<ele>361</ele>
						<time>2024-10-10T22:02:51Z</time>
					</trkpt>
					<trkpt lat="45.885130" lon="4.549610">
						<ele>362</ele>
						<time>2024-10-10T22:03:12Z</time>
					</trkpt>
					<trkpt lat="45.885230" lon="4.549970">
						<ele>362</ele>
						<time>2024-10-10T22:03:17Z</time>
					</trkpt>
					<trkpt lat="45.885180" lon="4.550080">
						<ele>362</ele>
						<time>2024-10-10T22:03:19Z</time>
					</trkpt>
					<trkpt lat="45.884990" lon="4.550370">
						<ele>362</ele>
						<time>2024-10-10T22:03:24Z</time>
					</trkpt>
					<trkpt lat="45.883070" lon="4.553140">
						<ele>356</ele>
						<time>2024-10-10T22:04:12Z</time>
					</trkpt>
					<trkpt lat="45.882740" lon="4.553630">
						<ele>356</ele>
						<time>2024-10-10T22:04:20Z</time>
					</trkpt>
					<trkpt lat="45.882050" lon="4.554570">
						<ele>357</ele>
						<time>2024-10-10T22:04:37Z</time>
					</trkpt>
					<trkpt lat="45.881640" lon="4.554970">
						<ele>358</ele>
						<time>2024-10-10T22:04:46Z</time>
					</trkpt>
					<trkpt lat="45.881330" lon="4.555180">
						<ele>358</ele>
						<time>2024-10-10T22:04:52Z</time>
					</trkpt>
					<trkpt lat="45.881050" lon="4.555320">
						<ele>358</ele>
						<time>2024-10-10T22:04:58Z</time>
					</trkpt>
					<trkpt lat="45.879960" lon="4.555670">
						<ele>355</ele>
						<time>2024-10-10T22:05:17Z</time>
					</trkpt>
					<trkpt lat="45.879210" lon="4.556000">
						<ele>355</ele>
						<time>2024-10-10T22:05:31Z</time>
					</trkpt>
					<trkpt lat="45.879110" lon="4.556030">
						<ele>355</ele>
						<time>2024-10-10T22:05:33Z</time>
					</trkpt>
					<trkpt lat="45.878930" lon="4.555990">
						<ele>356</ele>
						<time>2024-10-10T22:05:36Z</time>
					</trkpt>
					<trkpt lat="45.878940" lon="4.556310">
						<ele>356</ele>
						<time>2024-10-10T22:05:40Z</time>
					</trkpt>
					<trkpt lat="45.878930" lon="4.558020">
						<ele>360</ele>
						<time>2024-10-10T22:06:02Z</time>
					</trkpt>
					<trkpt lat="45.878980" lon="4.558440">
						<ele>361</ele>
						<time>2024-10-10T22:06:07Z</time>
					</trkpt>
					<trkpt lat="45.879120" lon="4.559120">
						<ele>363</ele>
						<time>2024-10-10T22:06:16Z</time>
					</trkpt>
					<trkpt lat="45.879560" lon="4.559710">
						<ele>365</ele>
						<time>2024-10-10T22:06:26Z</time>
					</trkpt>
					<trkpt lat="45.879850" lon="4.559980">
						<ele>366</ele>
						<time>2024-10-10T22:06:33Z</time>
					</trkpt>
					<trkpt lat="45.880350" lon="4.560100">
						<ele>365</ele>
						<time>2024-10-10T22:06:42Z</time>
					</trkpt>
					<trkpt lat="45.880780" lon="4.560340">
						<ele>364</ele>
						<time>2024-10-10T22:06:50Z</time>
					</trkpt>
					<trkpt lat="45.880960" lon="4.560480">
						<ele>364</ele>
						<time>2024-10-10T22:06:53Z</time>
					</trkpt>
					<trkpt lat="45.881120" lon="4.560690">
						<ele>365</ele>
						<time>2024-10-10T22:06:57Z</time>
					</trkpt>
					<trkpt lat="45.881360" lon="4.561140">
						<ele>368</ele>
						<time>2024-10-10T22:07:04Z</time>
					</trkpt>
					<trkpt lat="45.881400" lon="4.561260">
						<ele>369</ele>
						<time>2024-10-10T22:07:06Z</time>
					</trkpt>
					<trkpt lat="45.881430" lon="4.561530">
						<ele>372</ele>
						<time>2024-10-10T22:07:09Z</time>
					</trkpt>
					<trkpt lat="45.881410" lon="4.561660">
						<ele>373</ele>
						<time>2024-10-10T22:07:11Z</time>
					</trkpt>
					<trkpt lat="45.881380" lon="4.561750">
						<ele>373</ele>
						<time>2024-10-10T22:07:12Z</time>
					</trkpt>
					<trkpt lat="45.881270" lon="4.561920">
						<ele>374</ele>
						<time>2024-10-10T22:07:15Z</time>
					</trkpt>
					<trkpt lat="45.880220" lon="4.563040">
						<ele>379</ele>
						<time>2024-10-10T22:07:38Z</time>
					</trkpt>
					<trkpt lat="45.879980" lon="4.563220">
						<ele>380</ele>
						<time>2024-10-10T22:07:43Z</time>
					</trkpt>
					<trkpt lat="45.879740" lon="4.563320">
						<ele>381</ele>
						<time>2024-10-10T22:07:48Z</time>
					</trkpt>
					<trkpt lat="45.878220" lon="4.563720">
						<ele>389</ele>
						<time>2024-10-10T22:08:15Z</time>
					</trkpt>
					<trkpt lat="45.878040" lon="4.563810">
						<ele>389</ele>
						<time>2024-10-10T22:08:19Z</time>
					</trkpt>
					<trkpt lat="45.877290" lon="4.564260">
						<ele>393</ele>
						<time>2024-10-10T22:08:33Z</time>
					</trkpt>
					<trkpt lat="45.877070" lon="4.564400">
						<ele>394</ele>
						<time>2024-10-10T22:08:37Z</time>
					</trkpt>
					<trkpt lat="45.876980" lon="4.564490">
						<ele>394</ele>
						<time>2024-10-10T22:08:39Z</time>
					</trkpt>
					<trkpt lat="45.876930" lon="4.564580">
						<ele>395</ele>
						<time>2024-10-10T22:08:41Z</time>
					</trkpt>
					<trkpt lat="45.876890" lon="4.564680">
						<ele>396</ele>
						<time>2024-10-10T22:08:42Z</time>
					</trkpt>
					<trkpt lat="45.876860" lon="4.564870">
						<ele>397</ele>
						<time>2024-10-10T22:08:44Z</time>
					</trkpt>
					<trkpt lat="45.876850" lon="4.565270">
						<ele>399</ele>
						<time>2024-10-10T22:08:49Z</time>
					</trkpt>
					<trkpt lat="45.876620" lon="4.566000">
						<ele>400</ele>
						<time>2024-10-10T22:08:59Z</time>
					</trkpt>
					<trkpt lat="45.875970" lon="4.567640">
						<ele>398</ele>
						<time>2024-10-10T22:09:23Z</time>
					</trkpt>
					<trkpt lat="45.875070" lon="4.569750">
						<ele>408</ele>
						<time>2024-10-10T22:09:53Z</time>
					</trkpt>
					<trkpt lat="45.875000" lon="4.569980">
						<ele>407</ele>
						<time>2024-10-10T22:09:56Z</time>
					</trkpt>
					<trkpt lat="45.874980" lon="4.570170">
						<ele>407</ele>
						<time>2024-10-10T22:09:59Z</time>
					</trkpt>
					<trkpt lat="45.875040" lon="4.570560">
						<ele>407</ele>
						<time>2024-10-10T22:10:04Z</time>
					</trkpt>
					<trkpt lat="45.875140" lon="4.570770">
						<ele>408</ele>
						<time>2024-10-10T22:10:07Z</time>
					</trkpt>
					<trkpt lat="45.875460" lon="4.571250">
						<ele>410</ele>
						<time>2024-10-10T22:10:15Z</time>
					</trkpt>
					<trkpt lat="45.875560" lon="4.571460">
						<ele>410</ele>
						<time>2024-10-10T22:10:18Z</time>
					</trkpt>
					<trkpt lat="45.875620" lon="4.571650">
						<ele>409</ele>
						<time>2024-10-10T22:10:21Z</time>
					</trkpt>
					<trkpt lat="45.875780" lon="4.572680">
						<ele>404</ele>
						<time>2024-10-10T22:10:34Z</time>
					</trkpt>
					<trkpt lat="45.875910" lon="4.574790">
						<ele>395</ele>
						<time>2024-10-10T22:11:00Z</time>
					</trkpt>
					<trkpt lat="45.875530" lon="4.574820">
						<ele>395</ele>
						<time>2024-10-10T22:11:07Z</time>
					</trkpt>
					<trkpt lat="45.875280" lon="4.574870">
						<ele>394</ele>
						<time>2024-10-10T22:11:12Z</time>
					</trkpt>
					<trkpt lat="45.875060" lon="4.574950">
						<ele>392</ele>
						<time>2024-10-10T22:11:16Z</time>
					</trkpt>
					<trkpt lat="45.874500" lon="4.575220">
						<ele>389</ele>
						<time>2024-10-10T22:11:26Z</time>
					</trkpt>
					<trkpt lat="45.872430" lon="4.576980">
						<ele>377</ele>
						<time>2024-10-10T22:12:09Z</time>
					</trkpt>
					<trkpt lat="45.871630" lon="4.577160">
						<ele>376</ele>
						<time>2024-10-10T22:12:23Z</time>
					</trkpt>
					<trkpt lat="45.871290" lon="4.577270">
						<ele>375</ele>
						<time>2024-10-10T22:12:29Z</time>
					</trkpt>
					<trkpt lat="45.871210" lon="4.577230">
						<ele>375</ele>
						<time>2024-10-10T22:12:31Z</time>
					</trkpt>
					<trkpt lat="45.871120" lon="4.577110">
						<ele>374</ele>
						<time>2024-10-10T22:12:33Z</time>
					</trkpt>
					<trkpt lat="45.870420" lon="4.576650">
						<ele>370</ele>
						<time>2024-10-10T22:12:47Z</time>
					</trkpt>
					<trkpt lat="45.870450" lon="4.576670">
						<ele>370</ele>
						<time>2024-10-10T22:12:47Z</time>
					</trkpt>
					<trkpt lat="45.869490" lon="4.576010">
						<ele>367</ele>
						<time>2024-10-10T22:13:06Z</time>
					</trkpt>
					<trkpt lat="45.869300" lon="4.575960">
						<ele>366</ele>
						<time>2024-10-10T22:13:10Z</time>
					</trkpt>
					<trkpt lat="45.869060" lon="4.575920">
						<ele>366</ele>
						<time>2024-10-10T22:13:14Z</time>
					</trkpt>
					<trkpt lat="45.868450" lon="4.575860">
						<ele>366</ele>
						<time>2024-10-10T22:13:25Z</time>
					</trkpt>
					<trkpt lat="45.868300" lon="4.575900">
						<ele>366</ele>
						<time>2024-10-10T22:13:28Z</time>
					</trkpt>
					<trkpt lat="45.868170" lon="4.575960">
						<ele>366</ele>
						<time>2024-10-10T22:13:30Z</time>
					</trkpt>
					<trkpt lat="45.868030" lon="4.576090">
						<ele>366</ele>
						<time>2024-10-10T22:13:33Z</time>
					</trkpt>
					<trkpt lat="45.867570" lon="4.576640">
						<ele>367</ele>
						<time>2024-10-10T22:13:44Z</time>
					</trkpt>
					<trkpt lat="45.867360" lon="4.576920">
						<ele>368</ele>
						<time>2024-10-10T22:13:49Z</time>
					</trkpt>
					<trkpt lat="45.867070" lon="4.577460">
						<ele>368</ele>
						<time>2024-10-10T22:13:57Z</time>
					</trkpt>
					<trkpt lat="45.867250" lon="4.579000">
						<ele>368</ele>
						<time>2024-10-10T22:14:17Z</time>
					</trkpt>
					<trkpt lat="45.867220" lon="4.580290">
						<ele>368</ele>
						<time>2024-10-10T22:14:33Z</time>
					</trkpt>
					<trkpt lat="45.867240" lon="4.580660">
						<ele>369</ele>
						<time>2024-10-10T22:14:37Z</time>
					</trkpt>
					<trkpt lat="45.867290" lon="4.581050">
						<ele>370</ele>
						<time>2024-10-10T22:14:42Z</time>
					</trkpt>
					<trkpt lat="45.867380" lon="4.581500">
						<ele>371</ele>
						<time>2024-10-10T22:14:48Z</time>
					</trkpt>
					<trkpt lat="45.867510" lon="4.581900">
						<ele>372</ele>
						<time>2024-10-10T22:14:53Z</time>
					</trkpt>
					<trkpt lat="45.868140" lon="4.583340">
						<ele>371</ele>
						<time>2024-10-10T22:15:15Z</time>
					</trkpt>
					<trkpt lat="45.868630" lon="4.584380">
						<ele>369</ele>
						<time>2024-10-10T22:15:30Z</time>
					</trkpt>
					<trkpt lat="45.868890" lon="4.584810">
						<ele>369</ele>
						<time>2024-10-10T22:15:37Z</time>
					</trkpt>
					<trkpt lat="45.868990" lon="4.585090">
						<ele>369</ele>
						<time>2024-10-10T22:15:41Z</time>
					</trkpt>
					<trkpt lat="45.869050" lon="4.585350">
						<ele>370</ele>
						<time>2024-10-10T22:15:44Z</time>
					</trkpt>
					<trkpt lat="45.869050" lon="4.585560">
						<ele>370</ele>
						<time>2024-10-10T22:15:47Z</time>
					</trkpt>
					<trkpt lat="45.869020" lon="4.585750">
						<ele>371</ele>
						<time>2024-10-10T22:15:49Z</time>
					</trkpt>
					<trkpt lat="45.868820" lon="4.586250">
						<ele>373</ele>
						<time>2024-10-10T22:15:57Z</time>
					</trkpt>
					<trkpt lat="45.868660" lon="4.586900">
						<ele>377</ele>
						<time>2024-10-10T22:16:05Z</time>
					</trkpt>
					<trkpt lat="45.868280" lon="4.588960">
						<ele>372</ele>
						<time>2024-10-10T22:16:32Z</time>
					</trkpt>
					<trkpt lat="45.868000" lon="4.590320">
						<ele>364</ele>
						<time>2024-10-10T22:16:49Z</time>
					</trkpt>
					<trkpt lat="45.867990" lon="4.590680">
						<ele>363</ele>
						<time>2024-10-10T22:16:54Z</time>
					</trkpt>
					<trkpt lat="45.868030" lon="4.592360">
						<ele>359</ele>
						<time>2024-10-10T22:17:14Z</time>
					</trkpt>
					<trkpt lat="45.868020" lon="4.592810">
						<ele>358</ele>
						<time>2024-10-10T22:17:20Z</time>
					</trkpt>
					<trkpt lat="45.868050" lon="4.593280">
						<ele>357</ele>
						<time>2024-10-10T22:17:26Z</time>
					</trkpt>
					<trkpt lat="45.867870" lon="4.593820">
						<ele>356</ele>
						<time>2024-10-10T22:17:33Z</time>
					</trkpt>
					<trkpt lat="45.867050" lon="4.596560">
						<ele>355</ele>
						<time>2024-10-10T22:18:10Z</time>
					</trkpt>
					<trkpt lat="45.866840" lon="4.597040">
						<ele>354</ele>
						<time>2024-10-10T22:18:17Z</time>
					</trkpt>
					<trkpt lat="45.866740" lon="4.597220">
						<ele>354</ele>
						<time>2024-10-10T22:18:20Z</time>
					</trkpt>
					<trkpt lat="45.866590" lon="4.597430">
						<ele>354</ele>
						<time>2024-10-10T22:18:24Z</time>
					</trkpt>
					<trkpt lat="45.866730" lon="4.597730">
						<ele>355</ele>
						<time>2024-10-10T22:18:28Z</time>
					</trkpt>
					<trkpt lat="45.866750" lon="4.598020">
						<ele>356</ele>
						<time>2024-10-10T22:18:32Z</time>
					</trkpt>
					</trkseg>
				</trk>
			</gpx>